[[{"header":{"parameterUnit":"m.s-1","parameterCategory":1,"la1":30.6,"la2":29.2853,"lo1":-89.7004,"lo2":-87.6739,"dy":0.0162,"dx":0.0183,"nx":112,"ny":82,"refTime":"2024-06-14T18:00:00:Z","depth":0,"parameterNumber":2,"parameterNumberName":"U-component_of_WINDS"},"data":[0.0,0.0,0.0,0.0,0.0,0.0,0.0,0.0,0.0,0.0,0.0,0.0,0.0,0.0,0.0,0.0,0.0,0.0,0.0,0.0,0.0,0.0,0.0,0.0,0.0,0.0,0.0,0.0,0.0,0.0,0.0,0.0,0.0,0.0,0.0,0.0,0.0,0.0,0.0,0.0,0.0,0.0,0.0,0.0,0.0,0.0,0.0,0.0,0.0,0.0,0.0,0.0,0.0,0.0,0.0,0.0,0.0,0.0,0.0,0.0,0.0,0.0,0.0,0.0,0.0,0.0,0.0,0.0,0.0,0.0,0.0,0.0,0.0,0.0,0.0,0.0,0.0,0.0,0.0,0.0,0.0,0.0,0.0,0.0,0.0,0.0,0.0,0.0,0.0,0.0,-4.9898,-5.2706,-5.5919,-5.7881,-5.7881,-5.6359,-5.3856,-5.0304,0.0,0.0,0.0,0.0,0.0,0.0,0.0,0.0,0.0,0.0,0.0,0.0,0.0,0.0,0.0,0.0,0.0,0.0,0.0,0.0,0.0,0.0,0.0,0.0,0.0,0.0,0.0,0.0,0.0,0.0,0.0,0.0,0.0,0.0,0.0,0.0,0.0,0.0,0.0,0.0,0.0,0.0,0.0,0.0,0.0,0.0,0.0,0.0,0.0,0.0,0.0,0.0,0.0,0.0,0.0,0.0,0.0,0.0,0.0,0.0,0.0,0.0,0.0,0.0,0.0,0.0,0.0,0.0,0.0,0.0,0.0,0.0,0.0,0.0,0.0,0.0,0.0,0.0,0.0,0.0,0.0,0.0,0.0,0.0,0.0,0.0,0.0,0.0,0.0,0.0,0.0,0.0,0.0,0.0,0.0,0.0,0.0,0.0,0.0,0.0,0.0,0.0,0.0,0.0,-5.0103,-5.5547,-5.7171,-5.7881,-5.7881,-5.5412,-5.2773,-5.0236,0.0,0.0,0.0,0.0,0.0,0.0,0.0,0.0,0.0,0.0,0.0,0.0,0.0,0.0,0.0,0.0,0.0,0.0,0.0,0.0,0.0,0.0,0.0,0.0,0.0,0.0,0.0,0.0,0.0,0.0,0.0,0.0,0.0,0.0,0.0,0.0,0.0,0.0,0.0,0.0,0.0,0.0,0.0,0.0,0.0,0.0,0.0,0.0,0.0,0.0,0.0,0.0,0.0,0.0,0.0,0.0,0.0,0.0,0.0,0.0,0.0,0.0,0.0,0.0,0.0,0.0,0.0,0.0,0.0,0.0,0.0,0.0,0.0,0.0,0.0,0.0,0.0,0.0,0.0,0.0,0.0,0.0,0.0,0.0,0.0,0.0,0.0,0.0,0.0,0.0,0.0,0.0,0.0,0.0,0.0,0.0,0.0,0.0,0.0,0.0,0.0,0.0,0.0,-4.8883,-5.1691,-5.6833,-5.7679,-5.7712,-5.734,-5.4972,-5.2367,-4.9661,-4.594,0.0,0.0,0.0,0.0,0.0,0.0,0.0,0.0,0.0,0.0,0.0,0.0,0.0,0.0,0.0,0.0,0.0,0.0,0.0,0.0,0.0,0.0,0.0,0.0,0.0,0.0,0.0,0.0,0.0,0.0,0.0,0.0,0.0,0.0,0.0,0.0,0.0,0.0,0.0,0.0,0.0,0.0,0.0,0.0,0.0,0.0,0.0,0.0,0.0,0.0,0.0,0.0,0.0,0.0,0.0,0.0,0.0,0.0,0.0,0.0,0.0,0.0,0.0,0.0,0.0,0.0,0.0,0.0,0.0,0.0,0.0,0.0,0.0,0.0,0.0,0.0,0.0,0.0,0.0,0.0,0.0,0.0,0.0,0.0,0.0,0.0,0.0,0.0,0.0,0.0,0.0,0.0,0.0,0.0,0.0,0.0,0.0,0.0,0.0,0.0,0.0,0.0,-5.1657,-5.3315,-5.7442,-5.7881,-5.7577,-5.6867,-5.4431,-5.1758,-4.8917,-4.435,0.0,0.0,0.0,0.0,0.0,0.0,0.0,0.0,0.0,0.0,0.0,0.0,0.0,0.0,0.0,0.0,0.0,0.0,0.0,0.0,0.0,0.0,0.0,0.0,0.0,0.0,0.0,0.0,0.0,0.0,0.0,0.0,0.0,0.0,0.0,0.0,0.0,0.0,0.0,0.0,0.0,0.0,0.0,0.0,0.0,0.0,0.0,0.0,0.0,0.0,0.0,0.0,0.0,0.0,0.0,0.0,0.0,0.0,0.0,0.0,0.0,0.0,0.0,0.0,0.0,0.0,0.0,0.0,0.0,0.0,0.0,0.0,0.0,0.0,0.0,0.0,0.0,0.0,0.0,0.0,0.0,0.0,0.0,0.0,0.0,0.0,0.0,0.0,0.0,0.0,0.0,0.0,0.0,0.0,0.0,0.0,0.0,0.0,0.0,0.0,0.0,0.0,-5.1657,-5.4499,-5.7543,-5.7881,-5.7577,-5.6867,-5.3484,-5.0373,-4.8108,-4.3105,0.0,0.0,0.0,0.0,0.0,0.0,0.0,0.0,0.0,0.0,0.0,0.0,0.0,0.0,0.0,0.0,0.0,0.0,0.0,0.0,0.0,0.0,0.0,0.0,0.0,0.0,0.0,0.0,0.0,0.0,0.0,0.0,0.0,0.0,0.0,0.0,0.0,0.0,0.0,0.0,0.0,0.0,0.0,0.0,0.0,0.0,0.0,0.0,0.0,0.0,0.0,0.0,0.0,0.0,0.0,0.0,0.0,0.0,0.0,0.0,0.0,0.0,0.0,0.0,0.0,0.0,0.0,0.0,0.0,0.0,0.0,0.0,0.0,0.0,0.0,0.0,0.0,0.0,0.0,0.0,0.0,0.0,0.0,0.0,0.0,0.0,0.0,0.0,0.0,0.0,0.0,0.0,0.0,0.0,0.0,0.0,0.0,0.0,0.0,0.0,0.0,0.0,-5.0507,-5.3382,0.0,-5.7205,-5.6934,-5.619,-5.3112,-4.9864,-4.6752,0.0,0.0,0.0,0.0,0.0,0.0,0.0,0.0,0.0,0.0,0.0,0.0,0.0,0.0,0.0,0.0,0.0,0.0,0.0,0.0,0.0,0.0,0.0,0.0,0.0,0.0,0.0,0.0,0.0,0.0,0.0,0.0,0.0,0.0,0.0,0.0,0.0,0.0,0.0,0.0,0.0,0.0,0.0,0.0,0.0,0.0,0.0,0.0,0.0,0.0,0.0,0.0,0.0,0.0,0.0,0.0,0.0,0.0,0.0,0.0,0.0,0.0,0.0,0.0,0.0,0.0,0.0,0.0,0.0,0.0,0.0,0.0,0.0,0.0,0.0,0.0,0.0,0.0,0.0,0.0,0.0,0.0,0.0,0.0,0.0,0.0,0.0,0.0,0.0,0.0,0.0,0.0,0.0,0.0,0.0,0.0,0.0,0.0,0.0,0.0,0.0,0.0,-4.7263,-5.027,-5.3179,0.0,-5.6799,-5.6494,-5.5784,-5.2536,-4.9154,-4.5906,0.0,0.0,0.0,0.0,0.0,0.0,0.0,0.0,0.0,0.0,0.0,0.0,0.0,0.0,0.0,0.0,0.0,0.0,0.0,0.0,0.0,0.0,0.0,0.0,0.0,0.0,0.0,0.0,0.0,0.0,0.0,0.0,0.0,0.0,0.0,0.0,0.0,0.0,0.0,0.0,0.0,0.0,0.0,0.0,0.0,0.0,0.0,0.0,0.0,0.0,0.0,0.0,0.0,0.0,0.0,0.0,0.0,0.0,0.0,0.0,0.0,0.0,0.0,0.0,0.0,0.0,0.0,0.0,0.0,0.0,0.0,0.0,0.0,0.0,0.0,0.0,0.0,0.0,0.0,0.0,0.0,0.0,0.0,0.0,0.0,0.0,0.0,0.0,0.0,0.0,0.0,0.0,0.0,0.0,0.0,0.0,0.0,0.0,0.0,0.0,0.0,0.0,-4.7398,-5.1183,-5.4329,-5.6528,-5.6799,-5.6494,-5.575,-5.1589,-4.8037,0.0,0.0,0.0,0.0,0.0,0.0,0.0,0.0,0.0,0.0,0.0,0.0,0.0,0.0,0.0,0.0,0.0,0.0,0.0,0.0,0.0,0.0,0.0,0.0,0.0,0.0,0.0,0.0,0.0,0.0,0.0,0.0,0.0,0.0,0.0,0.0,0.0,0.0,0.0,0.0,0.0,0.0,0.0,0.0,0.0,0.0,0.0,0.0,0.0,0.0,0.0,0.0,0.0,0.0,0.0,0.0,0.0,0.0,0.0,0.0,0.0,0.0,0.0,0.0,0.0,0.0,0.0,0.0,0.0,0.0,0.0,0.0,0.0,0.0,0.0,0.0,0.0,0.0,0.0,0.0,0.0,0.0,0.0,0.0,0.0,0.0,0.0,0.0,0.0,0.0,0.0,0.0,0.0,0.0,0.0,0.0,0.0,0.0,0.0,0.0,0.0,0.0,0.0,-4.665,-5.0879,-5.3957,-5.5108,-5.5716,-5.5547,-5.4262,-5.098,-4.7597,-4.4316,0.0,0.0,0.0,0.0,0.0,0.0,0.0,0.0,0.0,0.0,0.0,0.0,0.0,0.0,0.0,0.0,0.0,0.0,0.0,0.0,0.0,0.0,0.0,0.0,0.0,0.0,0.0,0.0,0.0,0.0,0.0,0.0,0.0,0.0,0.0,0.0,0.0,0.0,0.0,0.0,0.0,0.0,0.0,0.0,0.0,0.0,0.0,0.0,0.0,0.0,0.0,0.0,0.0,0.0,0.0,0.0,0.0,0.0,0.0,0.0,0.0,0.0,0.0,0.0,0.0,0.0,0.0,0.0,0.0,0.0,0.0,0.0,0.0,0.0,0.0,0.0,0.0,0.0,0.0,0.0,0.0,0.0,0.0,0.0,0.0,0.0,0.0,0.0,0.0,0.0,0.0,0.0,0.0,0.0,0.0,0.0,0.0,0.0,0.0,0.0,0.0,0.0,-4.6346,-5.0439,-5.3416,-5.4465,-5.5006,-5.4905,-5.4025,-5.1183,-4.797,-4.4553,0.0,0.0,0.0,0.0,0.0,0.0,0.0,0.0,0.0,0.0,0.0,0.0,0.0,0.0,0.0,0.0,0.0,0.0,0.0,0.0,0.0,0.0,0.0,0.0,0.0,0.0,0.0,0.0,0.0,0.0,0.0,0.0,0.0,0.0,0.0,0.0,0.0,0.0,0.0,0.0,0.0,0.0,0.0,0.0,0.0,0.0,0.0,0.0,0.0,0.0,0.0,0.0,0.0,0.0,0.0,0.0,0.0,0.0,0.0,0.0,0.0,0.0,0.0,0.0,0.0,0.0,0.0,0.0,0.0,0.0,0.0,0.0,0.0,0.0,0.0,0.0,0.0,0.0,0.0,0.0,0.0,0.0,0.0,0.0,0.0,0.0,0.0,0.0,0.0,0.0,0.0,0.0,0.0,0.0,0.0,0.0,0.0,0.0,0.0,0.0,0.0,0.0,-4.6481,-5.0067,-5.2875,-5.4329,-5.4566,-5.4532,-5.4397,-5.1758,-4.8815,-4.5906,0.0,0.0,0.0,0.0,0.0,0.0,0.0,0.0,0.0,0.0,0.0,0.0,0.0,0.0,0.0,0.0,0.0,0.0,0.0,0.0,0.0,0.0,0.0,0.0,0.0,0.0,0.0,0.0,0.0,0.0,0.0,0.0,0.0,0.0,0.0,0.0,0.0,0.0,0.0,0.0,0.0,0.0,0.0,0.0,0.0,0.0,0.0,0.0,0.0,0.0,0.0,0.0,0.0,0.0,0.0,0.0,0.0,0.0,0.0,0.0,-4.3688,-4.2372,0.0,0.0,0.0,0.0,0.0,0.0,0.0,0.0,0.0,0.0,0.0,0.0,0.0,0.0,0.0,0.0,0.0,0.0,0.0,0.0,0.0,0.0,0.0,0.0,0.0,0.0,0.0,0.0,0.0,0.0,0.0,0.0,0.0,0.0,0.0,0.0,0.0,0.0,0.0,0.0,-4.7158,-5.0371,-5.2672,-5.3619,-5.4262,-5.4093,-5.2875,-5.115,-4.8815,-4.5906,-4.2591,0.0,0.0,0.0,0.0,0.0,0.0,0.0,0.0,0.0,0.0,0.0,0.0,0.0,0.0,0.0,0.0,0.0,0.0,0.0,0.0,0.0,0.0,0.0,0.0,0.0,0.0,0.0,0.0,0.0,0.0,0.0,0.0,0.0,0.0,0.0,0.0,0.0,0.0,0.0,0.0,0.0,0.0,0.0,0.0,0.0,0.0,0.0,0.0,0.0,0.0,0.0,0.0,0.0,0.0,0.0,0.0,0.0,0.0,0.0,-4.6681,-4.5214,0.0,0.0,0.0,0.0,0.0,0.0,0.0,0.0,0.0,0.0,0.0,0.0,0.0,0.0,0.0,0.0,0.0,0.0,0.0,0.0,0.0,0.0,0.0,0.0,0.0,0.0,0.0,0.0,0.0,0.0,0.0,0.0,0.0,0.0,0.0,0.0,0.0,0.0,0.0,0.0,-4.7398,-5.0168,-5.2232,-5.3382,-5.3856,-5.3754,-5.2942,-5.1488,-4.9661,-4.7428,-4.4147,0.0,0.0,0.0,0.0,0.0,0.0,0.0,0.0,0.0,0.0,0.0,0.0,0.0,0.0,0.0,0.0,0.0,0.0,0.0,0.0,0.0,0.0,0.0,0.0,0.0,0.0,0.0,0.0,0.0,0.0,0.0,0.0,0.0,0.0,0.0,0.0,0.0,0.0,0.0,0.0,0.0,0.0,0.0,0.0,0.0,0.0,0.0,0.0,0.0,0.0,0.0,0.0,0.0,-5.2276,-5.2755,-5.3025,-5.2486,-5.2486,-5.2755,-5.0032,-4.8835,-4.8656,-4.689,0.0,0.0,0.0,0.0,0.0,0.0,0.0,0.0,0.0,0.0,0.0,0.0,0.0,0.0,0.0,0.0,0.0,0.0,0.0,0.0,0.0,0.0,0.0,0.0,-4.5933,-4.5603,-4.1085,0.0,0.0,0.0,0.0,0.0,0.0,0.0,0.0,0.0,0.0,0.0,-4.7703,-5.0002,-5.1928,-5.3348,-5.3518,-5.3518,-5.3518,-5.1965,-5.0384,-4.9036,-4.5522,-4.2451,0.0,0.0,0.0,0.0,0.0,0.0,0.0,0.0,0.0,0.0,0.0,0.0,0.0,0.0,0.0,0.0,0.0,0.0,0.0,0.0,0.0,0.0,0.0,0.0,0.0,0.0,0.0,0.0,0.0,0.0,0.0,0.0,-4.3389,-4.4736,0.0,0.0,0.0,0.0,0.0,0.0,0.0,0.0,0.0,0.0,0.0,0.0,0.0,-5.3054,-5.4132,-5.5508,-5.6496,-5.7094,-5.7752,-5.7513,-5.6436,-5.6346,-5.6077,-5.5679,-5.5179,0.0,-5.078,-4.9897,0.0,0.0,0.0,0.0,0.0,0.0,0.0,0.0,0.0,0.0,0.0,0.0,0.0,0.0,0.0,0.0,0.0,0.0,0.0,0.0,0.0,0.0,-4.9,-4.7997,-4.8327,-4.858,0.0,-4.4468,-4.1656,-4.0064,-3.9001,0.0,0.0,0.0,0.0,0.0,0.0,0.0,-4.8578,-5.0777,-5.2503,-5.3416,-5.3518,-5.3518,-5.3518,-5.1361,-4.9622,-4.8795,-4.57,-4.2939,-4.0687,-3.8496,0.0,0.0,0.0,0.0,0.0,0.0,0.0,0.0,0.0,0.0,0.0,0.0,0.0,0.0,0.0,0.0,0.0,0.0,0.0,0.0,0.0,0.0,0.0,0.0,0.0,0.0,0.0,0.0,0.0,-4.3898,-4.5933,-4.686,-4.68,-4.6381,0.0,0.0,0.0,0.0,0.0,0.0,0.0,0.0,0.0,-5.4072,-5.5299,-5.6406,-5.7393,-5.8321,-5.8919,-5.9249,-5.9907,-5.9937,-5.9368,-5.9368,-5.9189,-5.8919,-5.853,-5.7334,-5.5448,-5.2935,-5.078,-4.8895,0.0,0.0,0.0,0.0,-4.6621,-4.6292,-4.8446,-4.8327,-4.7057,-4.6352,0.0,0.0,0.0,0.0,0.0,0.0,0.0,0.0,0.0,0.0,-4.9643,-4.9434,-4.9883,-5.0272,-5.0002,-4.8267,-4.5963,0.0,-4.2431,-4.165,-3.9556,0.0,0.0,0.0,0.0,-4.6982,-4.9328,-5.1183,-5.2604,-5.3416,-5.3518,-5.3315,-5.2875,-5.0992,-4.9485,-4.8726,-4.6112,-4.3968,-4.2497,-4.0442,-3.8323,0.0,0.0,0.0,0.0,0.0,0.0,0.0,0.0,0.0,0.0,0.0,0.0,0.0,0.0,0.0,0.0,0.0,0.0,0.0,0.0,0.0,0.0,0.0,0.0,0.0,0.0,0.0,0.0,-4.6621,-4.8536,-4.9224,-5.0032,-4.9942,0.0,0.0,0.0,0.0,0.0,0.0,-5.464,-5.6436,-5.7723,-5.8351,-5.9039,-5.9638,-6.0116,-6.0595,-6.0864,-6.0864,-6.1373,-6.1523,-6.1373,-6.1373,-6.1283,-6.1074,-6.0386,-5.9817,-5.9099,-5.5598,-5.3414,-5.2067,-5.0242,-4.8835,-4.7997,-4.9464,-4.9404,-4.8925,-5.1558,-5.1708,-5.0554,-4.9793,-4.8745,-4.7399,-4.5244,0.0,0.0,0.0,0.0,-4.7219,-4.7878,-4.8895,-4.9883,-5.0315,-5.0823,-5.1229,-5.1229,-5.0794,-4.9478,0.0,-4.5693,-4.483,-4.1848,0.0,0.0,0.0,0.0,-4.7571,-4.936,-5.0894,-5.2028,-5.2629,-5.2696,-5.2397,-5.1629,-5.0037,-4.8754,-4.8039,-4.5897,-4.4216,-4.3217,-4.1699,-3.9791,-3.7434,0.0,0.0,0.0,0.0,0.0,0.0,0.0,0.0,0.0,0.0,0.0,0.0,0.0,0.0,0.0,0.0,0.0,0.0,0.0,0.0,0.0,0.0,0.0,0.0,0.0,0.0,0.0,0.0,0.0,-5.1917,-5.3174,0.0,0.0,0.0,0.0,-5.3862,-5.5748,-5.7423,-5.874,-6.0116,-6.1164,-6.1822,-6.248,-6.2839,-6.2869,-6.2899,-6.2929,-6.2929,-6.2959,-6.266,-6.2061,-6.2061,-6.1702,-6.1074,-6.0386,-6.0057,-5.9877,-5.7752,-5.6137,-5.485,-5.3473,-5.2516,-5.1917,-5.2007,-5.2007,-5.2067,-5.2845,-5.2665,-5.2187,-5.2755,-5.1276,-4.906,-4.8267,-4.7189,0.0,0.0,-4.8087,-4.9284,-4.9867,-5.0554,-5.1139,-5.1169,-5.1199,-5.1229,-5.1229,-5.1199,-5.075,0.0,-4.8027,-4.7009,-4.6339,0.0,-4.549,-4.5695,-4.7057,-4.8051,-4.8189,-4.9512,-5.0518,-5.055,-5.055,-5.0262,-4.9598,-4.8022,-4.6749,-4.6102,-4.4347,-4.2848,-4.1588,-4.14,-4.0141,-3.7464,-3.6088,0.0,0.0,0.0,0.0,0.0,0.0,0.0,0.0,0.0,0.0,0.0,0.0,0.0,0.0,0.0,0.0,0.0,0.0,0.0,0.0,0.0,0.0,0.0,0.0,0.0,0.0,0.0,0.0,-5.5269,-5.7304,0.0,-5.6436,-5.7094,-5.7902,-5.859,-6.0086,-6.1343,-6.2211,-6.3139,-6.3737,-6.3977,-6.4216,-6.4336,-6.4336,-6.4336,-6.4336,-6.4336,-6.4336,-6.3977,-6.3318,-6.3318,-6.2989,-6.2331,-6.1672,-6.1134,-6.0655,-5.9488,-5.8261,-5.6974,-5.6047,-5.5329,-5.476,-5.476,-5.4491,-5.4162,-5.4401,-5.4042,-5.3473,-5.3234,-5.2247,-5.1109,-5.087,-5.0182,-4.9523,-4.9763,-5.0152,-5.0571,-5.081,-5.1003,-5.1229,-5.1229,-5.1229,-5.1229,-5.1229,-5.1229,-5.1079,-5.0601,-4.9793,-4.8715,-4.7286,-4.6857,-4.661,-4.6438,-4.7254,-4.8159,-4.8807,-4.9751,-5.0397,-5.0397,-5.0397,-4.9917,-4.8802,-4.7208,-4.5756,-4.4607,-4.2986,-4.1863,-4.1414,-4.0965,-4.0307,-3.9349,-3.7614,-3.5519,0.0,0.0,0.0,0.0,0.0,0.0,0.0,0.0,0.0,0.0,0.0,0.0,0.0,0.0,0.0,0.0,0.0,0.0,0.0,0.0,0.0,0.0,0.0,0.0,0.0,-5.467,-5.7393,-5.8022,-6.0475,-6.1493,-5.9937,-6.0775,-6.1583,-6.2061,-6.3318,-6.4246,-6.4665,-6.5323,-6.5682,-6.5682,-6.5473,-6.5353,-6.5353,-6.5144,-6.5024,-6.5024,-6.5024,-6.4665,-6.4006,-6.4006,-6.3647,-6.3049,-6.2391,-6.1852,-6.1403,-6.0715,-5.9787,-5.871,-5.7782,-5.7184,-5.6795,-5.6555,-5.6196,-5.5807,-5.5598,-5.5089,-5.4431,-5.3743,-5.3234,-5.2785,-5.2336,-5.1887,-5.1498,-5.1289,-5.1229,-5.1229,-5.1229,-5.1229,-5.1229,-5.1229,-5.1229,-5.1229,-5.1229,-5.1229,-5.1229,-5.1229,-5.0823,-5.0046,-4.8566,-4.8297,-4.8126,-4.7638,-4.7793,-4.8204,-4.8863,-4.9171,-4.9367,-4.9367,-4.9367,-4.8803,-4.7394,-4.6098,-4.488,-4.3707,-4.2214,-4.1422,-4.1422,-4.0756,-4.0277,-4.0068,-3.8123,-3.6357,-3.4831,0.0,0.0,0.0,0.0,0.0,0.0,0.0,0.0,0.0,0.0,0.0,0.0,0.0,0.0,0.0,0.0,0.0,0.0,0.0,0.0,0.0,0.0,0.0,-5.5179,-5.7573,-5.9488,-6.0146,-6.251,-6.3348,-6.1493,-6.2989,-6.4096,-6.4096,-6.5293,-6.6041,-6.6041,-6.664,-6.6999,-6.6999,-6.637,-6.6041,-6.6041,-6.5413,-6.5084,-6.5084,-6.5084,-6.4725,-6.4066,-6.4036,-6.3677,-6.3079,-6.2421,-6.2121,-6.2061,-6.1403,-6.0715,-5.9967,-5.868,-5.8171,-5.8082,-5.7393,-5.7094,-5.6974,-5.6376,-5.5748,-5.5089,-5.4431,-5.4221,-5.3952,-5.2636,-5.2217,-5.2067,-5.1409,-5.1229,-5.1229,-5.1229,-5.1229,-5.1229,-5.1229,-5.1229,-5.1229,-5.1229,-5.1229,-5.1229,-5.1229,-5.1229,-5.102,-5.0315,-5.0196,-5.0032,-4.9449,-4.8745,0.0,-4.8297,-4.7728,-4.7339,-4.7309,-4.7309,-4.677,-4.5424,-4.4706,-4.4018,-4.3319,-4.2073,-4.1354,-4.1354,-4.0756,-4.0098,-3.9433,-3.7554,-3.6237,-3.5579,0.0,0.0,0.0,0.0,0.0,0.0,0.0,0.0,0.0,0.0,0.0,0.0,0.0,0.0,0.0,0.0,0.0,0.0,0.0,0.0,0.0,-5.5089,-5.7094,-5.7304,-6.0386,-6.2899,-6.3588,-6.5144,-6.5951,-6.5443,-6.5862,-6.6161,-6.6161,-6.652,-6.6729,-6.6729,-6.6879,-6.6999,-6.6999,-6.6819,-6.6729,-6.6729,-6.655,-6.646,-6.646,-6.646,-6.6101,-6.5443,-6.4964,-6.4366,-6.3707,-6.3079,-6.254,-6.2091,-6.1912,-6.1134,-6.0057,-5.9697,-5.9249,-5.874,-5.8082,-5.7244,-5.6406,-5.6278,-5.5748,-5.5149,-5.497,-5.461,-5.4042,-5.3174,-5.2576,-5.2067,-5.1409,-5.1229,-5.1229,-5.1229,-5.1229,-5.1229,-5.1229,-5.1229,-5.1229,-5.1229,-5.1229,-5.1229,-5.1229,-5.1229,-5.1169,-5.0943,-5.0495,-5.0136,-5.0002,-4.9404,0.0,-4.8356,-4.8117,-4.7848,-4.7369,-4.7309,-4.695,-4.6112,-4.4975,-4.3838,-4.2701,-4.1384,-4.0666,-4.0666,-4.0487,-4.0307,-4.0127,-3.8631,-3.7554,0.0,0.0,0.0,0.0,0.0,0.0,0.0,0.0,0.0,0.0,0.0,0.0,0.0,0.0,0.0,0.0,0.0,0.0,0.0,0.0,0.0,0.0,-5.8471,-6.0386,-6.0954,-6.2989,-6.4784,-6.5742,-6.652,-6.6999,-6.6999,-6.6999,-6.6999,-6.6999,-6.6999,-6.6999,-6.6999,-6.6999,-6.6999,-6.6999,-6.6999,-6.6999,-6.6999,-6.6999,-6.6999,-6.6999,-6.6999,-6.664,-6.6011,-6.5622,-6.5054,-6.4395,-6.3737,-6.3258,-6.2869,-6.26,-6.1882,0.0,0.0,0.0,0.0,0.0,-5.7693,-5.6555,-5.6555,-5.5957,-5.5179,-5.5179,-5.494,-5.4431,-5.3473,-5.2905,-5.2426,-5.1468,-5.1229,-5.1229,-5.1229,-5.1229,-5.1229,-5.1229,-5.1229,-5.1229,-5.1229,-5.1229,-5.1229,-5.1229,-5.1229,0.0,-5.1229,-5.09,-5.0614,-5.0614,-5.0092,-4.9434,-4.8775,-4.8446,-4.8027,-4.7369,-4.7309,-4.704,-4.6339,-4.5095,0.0,0.0,0.0,-4.0816,-4.0816,-4.0816,0.0,0.0,0.0,0.0,0.0,0.0,0.0,0.0,-3.899,-3.926,0.0,0.0,0.0,0.0,0.0,0.0,0.0,0.0,0.0,0.0,0.0,0.0,0.0,0.0,0.0,0.0,-6.1672,-6.3767,-6.5054,-6.5263,-6.5682,-6.6849,-6.6999,-6.6999,-6.6999,-6.6999,-6.6999,-6.6999,-6.6999,-6.6999,-6.6999,-6.6999,0.0,0.0,0.0,-6.6999,-6.6999,-6.6999,-6.6999,-6.6999,-6.6999,-6.67,-6.6131,-6.6041,-6.5682,-6.5084,-6.4336,-6.4006,-6.3947,-6.3318,-6.266,-6.1852,-6.0565,-5.9668,-5.9099,-5.9099,-5.8291,-5.7184,-5.7124,0.0,0.0,-5.5209,-5.5179,-5.494,-5.3683,-5.3234,-5.2935,-5.1678,-5.1289,-5.1229,-5.1229,-5.1229,-5.1229,-5.1229,-5.1229,-5.1229,-5.1229,-5.1229,-5.1229,-5.1229,-5.1229,-5.1229,-5.1229,-5.1229,-5.1229,-5.1229,-5.0674,-5.0092,-4.9419,-4.879,-4.8117,-4.7369,0.0,0.0,-4.6429,-4.5274,-4.4496,-4.4436,-4.2641,-4.1564,-4.1542,-4.1564,-4.1594,-4.1594,-4.1594,-4.1923,-4.262,-4.315,-4.3439,-4.3469,-4.1137,-4.0995,0.0,0.0,0.0,0.0,0.0,0.0,0.0,0.0,0.0,0.0,0.0,0.0,0.0,0.0,0.0,-6.1822,-6.3617,-6.5114,-6.643,-6.661,-6.67,-6.6969,-6.6999,-6.6999,-6.6999,-6.6999,-6.6999,-6.6999,-6.6999,-6.6999,-6.6999,-6.6999,-6.6999,-6.6999,-6.6999,-6.6999,-6.6999,-6.6999,-6.6999,-6.6999,0.0,0.0,-6.6789,-6.6251,-6.5951,-6.5742,-6.4545,-6.4006,-6.3947,-6.3318,-6.2391,-6.1224,-6.0416,-5.9668,-5.9099,-5.9099,-5.859,-5.7842,-5.7304,-5.6615,-5.5948,-5.5359,-5.5179,-5.5029,-5.4251,-5.3623,0.0,-5.2247,-5.1618,-5.1229,-5.1229,-5.1229,-5.1229,-5.1229,-5.1229,-5.1229,-5.1229,-5.1229,-5.1229,-5.1229,-5.1229,-5.1229,-5.1229,-5.1229,-5.1229,-5.1229,-5.1109,-5.0601,-4.9449,-4.9209,-4.8626,-4.7429,-4.7309,-4.7249,-4.713,-4.6381,-4.5693,-4.5155,-4.3778,-4.2761,-4.2231,-4.2671,-4.2901,-4.2901,-4.2901,-4.323,-4.3928,-4.4077,-4.4407,-4.4915,-4.4377,-4.4077,0.0,0.0,0.0,0.0,0.0,0.0,0.0,0.0,0.0,0.0,0.0,-5.4269,-5.7197,0.0,-6.1463,-6.4126,-6.5084,-6.5862,-6.6849,-6.6999,-6.6999,-6.6999,-6.6999,-6.6999,-6.6999,-6.6999,-6.6999,-6.6999,-6.6999,-6.6999,-6.6999,-6.6999,-6.6999,-6.6999,-6.6999,-6.6999,-6.6999,-6.6999,-6.6999,-6.6999,-6.6999,-6.6999,-6.6969,-6.664,-6.649,-6.643,-6.5443,-6.4814,-6.4455,-6.3468,-6.251,-6.1583,-6.1224,-6.0266,-5.9099,-5.9099,-5.868,-5.8082,-5.7723,-5.6974,-5.6107,-5.5777,-5.5448,-5.5059,-5.4401,-5.3713,-5.3054,-5.2396,-5.1738,-5.1229,-5.1229,-5.1229,-5.1229,-5.1229,-5.1229,-5.1229,-5.1229,-5.1229,-5.1229,-5.1229,-5.1229,-5.1229,-5.1229,-5.1229,-5.1229,-5.1229,-5.1229,-5.087,-4.9883,-4.9464,-4.894,-4.7908,-4.7489,-4.7309,-4.7309,-4.6711,-4.6022,-4.5334,-4.4706,-4.4197,-4.3878,-4.4137,-4.4317,-4.4317,-4.4317,-4.4466,-4.4796,-4.5155,-4.5484,-4.5813,-4.6142,-4.5933,0.0,0.0,0.0,0.0,0.0,0.0,0.0,-4.7699,-4.9719,-5.4178,-5.6034,-5.8094,-6.195,-6.278,-6.3588,-6.5832,-6.6191,-6.637,-6.6909,-6.6999,-6.6999,-6.6999,-6.6999,-6.6999,-6.6999,-6.6999,-6.6999,-6.6999,-6.6999,-6.6999,-6.6999,-6.6999,-6.6999,-6.6999,-6.6999,-6.6999,-6.6999,-6.6999,-6.6999,-6.6999,-6.6999,-6.6999,-6.6999,-6.6999,-6.6999,-6.6939,-6.6161,-6.5443,-6.4755,-6.3558,-6.269,-6.2091,-6.2091,-6.0954,-5.9308,-5.9308,-5.889,-5.8291,-5.8022,-5.7244,-5.6316,-5.6128,-5.5628,-5.5089,-5.4551,-5.3832,-5.3084,-5.2546,-5.1828,-5.1229,-5.1229,-5.1229,-5.1229,-5.1229,-5.1229,-5.1229,-5.1229,-5.1229,-5.1229,-5.1229,-5.1229,-5.1229,-5.1229,-5.1229,-5.1229,-5.1229,-5.1229,-5.0943,-5.0285,-4.9793,-4.9164,-4.8356,-4.7818,-4.7429,-4.7309,-4.68,-4.6232,-4.5544,-4.5484,-4.5424,-4.5304,-4.5304,-4.5364,-4.5484,-4.5484,-4.5574,-4.5693,-4.6232,-4.6459,-4.6488,-4.7189,-4.716,-3.917,-4.072,-4.324,-4.7306,-4.8218,-4.9925,0.0,-5.7056,-5.6957,-6.0416,-6.2129,-6.3353,-6.4456,-6.5173,-6.5862,-6.6729,-6.6879,-6.6909,-6.6969,-6.6999,-6.6999,-6.6999,-6.6999,-6.6999,-6.6999,-6.6999,-6.6999,-6.6999,-6.6999,-6.6999,-6.6999,-6.6999,-6.6999,-6.6999,-6.6999,-6.6999,-6.6999,-6.6999,-6.6999,-6.6999,-6.6999,-6.6999,-6.6999,-6.6999,-6.6999,-6.6909,-6.5682,-6.4755,-6.4066,-6.3378,-6.269,-6.2091,-6.2091,-6.1224,-5.9967,-5.9967,-5.9548,-5.883,-5.7633,-5.7124,-5.6795,-5.5658,-5.5239,-5.5179,-5.5089,-5.4192,-5.3174,-5.3084,-5.2187,-5.1229,-5.1229,-5.1229,-5.1229,-5.1229,-5.1229,-5.1229,-5.1229,-5.1229,-5.1229,-5.1229,-5.1229,-5.1229,-5.1229,-5.1229,-5.1229,-5.1229,-5.1229,-5.0943,-5.0285,-5.0136,-4.9673,-4.8416,-4.8207,-4.7938,-4.7369,-4.7249,-4.692,-4.6262,-4.6202,-4.5933,-4.5304,-4.5304,-4.5574,-4.6202,-4.6202,-4.6501,-4.707,-4.716,-4.7189,-4.7219,-4.7878,-4.7818,-4.3736,-4.5662,-4.7638,-5.0212,-5.2176,-5.4386,-5.8044,-5.8809,-5.9655,-6.3087,-6.4545,-6.5383,-6.6041,-6.64,-6.667,-6.6939,-6.6999,-6.6999,-6.6999,-6.6999,-6.6849,-6.646,-6.6759,-6.6999,-6.6999,-6.6999,-6.6999,-6.6999,-6.6999,-6.6999,-6.6999,-6.6999,-6.6999,-6.6999,-6.6999,-6.6999,-6.6999,-6.6999,-6.6999,-6.6999,-6.6999,-6.6999,-6.6999,-6.6999,-6.6789,-6.637,-6.5443,-6.4635,-6.3947,-6.3318,-6.2899,-6.263,-6.2241,-6.1523,-6.0625,-6.0236,-5.9668,-5.8979,-5.8022,-5.7423,-5.6944,-5.6047,-5.5508,-5.5179,-5.5179,-5.4251,-5.3174,-5.3174,-5.2247,-5.1229,-5.1229,-5.1229,-5.1229,-5.1229,-5.1229,-5.1229,-5.1229,-5.1229,-5.1229,-5.1229,-5.1229,-5.1229,-5.1229,-5.1229,-5.1229,-5.1229,-5.1229,-5.1109,-5.084,-5.0435,-4.9687,-4.8416,-4.8297,-4.8027,-4.7369,-4.7309,-4.7189,-4.692,-4.689,-4.677,-4.6471,-4.6471,-4.6591,-4.689,-4.689,-4.704,-4.7309,-4.7309,-4.7309,-4.7309,-4.7967,-4.8147,-4.6694,-4.906,-5.1098,-5.2911,-5.5706,-5.8253,-5.8952,-6.0238,-6.1879,-6.4219,-6.5413,-6.6161,-6.664,-6.6729,-6.6789,-6.6969,-6.6999,-6.6999,-6.6999,-6.6819,-6.661,-6.6311,-6.655,-6.6789,-6.6969,-6.6999,-6.6999,-6.6999,-6.6999,-6.6999,-6.6999,-6.6999,-6.6999,-6.6999,-6.6999,-6.6999,-6.6999,-6.6999,-6.6999,-6.6999,-6.6999,-6.6999,-6.6999,-6.6999,-6.664,-6.5981,-6.5323,-6.4635,-6.3947,-6.3318,-6.3079,-6.3019,-6.2361,-6.1702,-6.1044,-6.0326,-5.9668,-5.9009,-5.8351,-5.7663,-5.7004,-5.6428,-5.5718,-5.5179,-5.5179,-5.4251,-5.3174,-5.3174,-5.2247,-5.1229,-5.1229,-5.1229,-5.1229,-5.1229,-5.1229,-5.1229,-5.1229,-5.1229,-5.1229,-5.1229,-5.1229,-5.1229,-5.1229,-5.1229,-5.1229,-5.1229,-5.1229,-5.1229,-5.1229,-5.0584,-4.9747,-4.8686,-4.8386,-4.8027,-4.7369,-4.7309,-4.7309,-4.7309,-4.7309,-4.7309,-4.7309,-4.7309,-4.7309,-4.7309,-4.7309,-4.7309,-4.7309,-4.7309,-4.7399,-4.7578,-4.8237,-4.8656,-4.6705,-4.9497,-5.2659,-5.6105,-5.8967,-6.1167,-6.1825,-6.3469,-6.4695,-6.4156,-6.5084,-6.6011,-6.6041,-6.6041,-6.6251,-6.6879,-6.6999,-6.6999,-6.6999,-6.643,-6.6251,-6.6879,-6.64,-6.6281,-6.6939,-6.6999,-6.6999,-6.6999,-6.6999,-6.6999,-6.6999,-6.6999,-6.6999,-6.6999,-6.6999,-6.6999,-6.6999,-6.6999,-6.6999,-6.6999,-6.6999,-6.6999,-6.6999,-6.6999,-6.664,-6.5981,-6.5323,-6.4635,-6.3947,-6.3318,-6.3079,-6.3019,-6.2361,-6.1702,-6.1044,-6.0326,-5.9668,-5.9009,-5.8351,-5.7663,-5.7004,-5.6428,-5.5718,-5.5179,-5.5179,-5.4251,-5.3174,-5.3174,-5.2247,-5.1229,-5.1229,-5.1229,-5.1229,-5.1229,-5.1229,-5.1229,-5.1229,-5.1229,-5.1229,-5.1229,-5.1229,-5.1229,-5.1229,-5.1229,-5.1229,-5.1229,-5.1229,-5.1229,-5.1229,-5.0584,-4.9972,-4.9359,-4.87,-4.8027,-4.7369,-4.7309,-4.7309,-4.7309,-4.7309,-4.7309,-4.7309,-4.7309,-4.7309,-4.7309,-4.7309,-4.7309,-4.7309,-4.7309,-4.7638,-4.8267,-4.897,-4.9583,-5.001,-5.3079,-5.6162,-5.9583,-6.1065,-6.2151,-6.3707,-6.4216,-6.4276,-6.4036,-6.4366,-6.4545,-6.4126,-6.4395,-6.4904,-6.5562,-6.6071,-6.649,-6.6939,-6.6789,-6.658,-6.637,-6.652,-6.658,-6.637,-6.6729,-6.6999,-6.6999,-6.6999,-6.6999,-6.6999,-6.6999,-6.6999,-6.6999,-6.6999,-6.6999,-6.6999,-6.6999,-6.6999,-6.6999,-6.6999,-6.6999,-6.6999,-6.6999,-6.664,-6.5981,-6.5323,-6.4635,-6.3947,-6.3318,-6.3079,-6.2959,-6.1882,-6.1313,-6.0984,-5.9847,-5.9279,-5.9009,-5.8351,-5.7663,-5.7004,-5.6428,-5.5718,-5.5179,-5.5179,-5.4251,-5.3174,-5.3174,-5.2247,-5.1319,-5.1768,-5.1558,-5.1319,-5.1768,-5.1528,-5.1229,-5.1229,-5.1229,-5.1229,-5.1229,-5.1229,-5.1229,-5.1229,-5.1229,-5.1229,-5.1229,-5.1229,-5.1229,-5.1229,-5.102,-5.0631,-4.9972,-4.9344,-4.87,-4.8027,-4.7549,-4.7309,-4.7309,-4.7309,-4.7309,-4.7309,-4.7309,-4.7309,-4.7309,-4.7309,-4.7309,-4.7309,-4.7309,-4.7638,-4.8297,-4.9,-4.9613,-5.3692,-5.6308,-5.8606,-6.1955,-6.278,-6.2989,-6.3797,-6.3827,-6.3468,-6.275,-6.26,-6.248,-6.2091,-6.2151,-6.278,-6.4395,-6.5024,-6.5682,-6.6819,-6.6789,-6.658,-6.637,-6.652,-6.658,-6.637,-6.6759,-6.6999,-6.6999,-6.6999,-6.6999,-6.6999,-6.6999,-6.6999,-6.6999,-6.6999,-6.6999,-6.6999,-6.6999,-6.6999,-6.6999,-6.6999,-6.6999,-6.6999,-6.6999,-6.649,-6.5622,-6.5203,-6.4515,-6.3647,-6.3228,-6.3079,-6.2959,-6.1613,-6.1104,-6.0954,-5.9608,-5.9099,-5.9039,-5.862,-5.8022,-5.7363,-5.6705,-5.6077,-5.5508,-5.5269,-5.4431,-5.3563,-5.3563,-5.2606,-5.1678,-5.2097,-5.1708,-5.1319,-5.1738,-5.1528,-5.1229,-5.1229,-5.1229,-5.1229,-5.1229,-5.1229,-5.1229,-5.1229,-5.1229,-5.1229,-5.1229,-5.1229,-5.1229,-5.1229,-5.1229,-5.096,-5.0255,-4.9853,-4.9344,-4.8686,-4.8027,-4.7668,-4.7668,-4.7429,-4.7309,-4.7309,-4.7309,-4.7309,-4.7309,-4.7309,-4.7429,-4.7668,-4.7668,-4.8117,-4.8985,-4.9404,-4.9972,-5.7395,-5.9161,-6.0093,-6.3266,-6.4036,-6.3677,-6.2421,-6.254,-6.2361,-6.0386,-5.9937,-5.9877,-5.9847,-5.9428,-6.0146,-6.3318,-6.3947,-6.4725,-6.67,-6.646,-6.6281,-6.6909,-6.643,-6.6311,-6.6939,-6.6999,-6.6999,-6.6999,0.0,-6.6999,-6.6999,-6.6999,-6.6999,-6.6999,-6.6999,-6.6999,-6.6999,-6.6999,-6.6999,-6.6999,-6.6999,-6.6999,-6.6999,-6.6999,-6.6311,-6.5114,-6.5054,-6.4336,-6.3169,-6.3109,-6.3079,-6.2959,-6.1613,-6.1104,-6.0954,-5.9608,-5.9099,-5.9099,-5.9099,-5.868,-5.8022,-5.7334,-5.6675,-5.6047,-5.5388,-5.473,-5.4221,-5.4221,-5.3264,-5.2247,-5.2247,-5.1768,-5.1259,-5.1259,-5.1229,-5.1229,-5.1229,-5.1229,-5.1229,-5.1229,-5.1229,-5.1229,-5.1229,-5.1229,-5.1229,-5.1229,-5.1229,-5.1229,-5.1229,-5.1229,-5.0943,-5.0315,-5.0226,-5.0002,-4.9419,-4.8716,-4.8327,-4.8327,-4.7728,-4.7369,-4.7369,-4.7309,-4.7309,-4.7309,-4.7339,-4.7668,-4.8297,-4.8327,-4.8985,-5.0196,-5.0196,-5.0554,-5.8956,-6.1497,-6.3684,-6.4516,-6.4366,-6.3797,-6.3019,-6.1792,-6.0416,-5.8919,-5.7842,-5.7004,-5.6526,-5.7902,-5.9697,-6.1553,-6.3498,-6.5293,-6.6789,-6.6849,-6.6819,-6.6969,-6.6849,-6.6819,-6.6969,-6.6999,-6.6999,-6.6999,-6.6999,-6.6999,-6.6999,-6.6999,-6.6999,-6.6999,-6.6999,-6.6999,-6.6999,-6.6999,-6.6999,-6.6999,-6.6999,-6.6999,-6.6999,-6.6999,-6.6819,-6.643,-6.5443,-6.4844,-6.4455,-6.3468,-6.3079,-6.2959,-6.1613,-6.1104,-6.0954,-5.9608,-5.9099,-5.9099,-5.9099,-5.868,-5.8022,-5.7334,-5.6675,-5.6047,-5.5388,-5.473,-5.4221,-5.4221,-5.3593,-5.2935,-5.2935,-5.2456,-5.1947,-5.1947,-5.1558,-5.1229,-5.1229,-5.1229,-5.1229,-5.1229,-5.1229,-5.1229,-5.1229,-5.1229,-5.1229,-5.1229,-5.1229,-5.1229,-5.1229,-5.1229,-5.1139,-5.0943,-5.0495,-5.0136,-5.0002,-4.9404,-4.906,-4.906,-4.8386,-4.8027,-4.8027,-4.7578,-4.7309,-4.7309,-4.7788,-4.8117,-4.8297,-4.882,-4.9434,-5.0196,-5.0196,-5.0554,-6.1849,-6.395,-6.5383,-6.5114,-6.4515,-6.3411,-6.1019,-5.9342,-5.7614,-5.5089,-5.4241,-5.3861,-5.3508,-5.5359,-5.7663,-5.9877,-6.2211,-6.4395,-6.6281,-6.6819,-6.6999,-6.6999,-6.6999,-6.6999,-6.6999,-6.6999,-6.6999,-6.6999,-6.6999,-6.6999,-6.6999,-6.6999,-6.6999,-6.6999,-6.6999,-6.6999,-6.6999,-6.6999,-6.6999,-6.6999,-6.6999,-6.6999,-6.6999,-6.6999,-6.6819,-6.649,0.0,-6.4844,-6.4515,-6.3498,-6.3079,-6.2959,-6.1613,-6.1104,-6.0954,-5.9608,-5.9099,-5.9099,-5.9099,-5.886,-5.8381,-5.7423,-5.6855,-5.6406,-5.5478,-5.494,-5.464,-5.464,-5.4162,-5.3623,-5.3623,-5.3144,-5.2546,-5.2276,-5.1917,-5.1558,-5.1289,-5.1229,-5.1229,-5.1229,-5.1229,-5.1229,-5.1229,-5.1229,-5.1229,-5.1229,-5.1229,-5.1229,-5.1229,-5.1229,-5.1229,-5.1229,-5.0853,-5.0614,-5.0614,-5.0062,-4.9673,-4.9673,-4.9075,-4.876,-4.876,-4.8356,-4.8177,-4.8177,-4.8536,-4.8865,-4.9134,-4.9523,-5.0032,-5.0614,-5.0614,-5.0823,-6.4844,-6.6011,-6.5951,-6.5203,-6.4455,-6.2672,-5.8141,-5.6295,-5.4495,-5.0675,-5.0323,-5.071,-5.071,-5.2662,-5.5299,-5.856,-6.0805,-6.3049,-6.5742,-6.664,-6.6999,-6.6999,-6.6999,-6.6999,-6.6999,-6.6999,-6.6999,-6.6999,-6.6999,-6.6999,-6.6999,-6.6999,-6.6999,-6.6999,-6.6999,-6.6999,-6.6999,-6.6999,-6.6999,-6.6999,-6.6999,-6.6999,-6.6999,-6.6999,-6.667,-6.6101,-6.5353,-6.4695,-6.4066,-6.3378,-6.3079,-6.2959,-6.1613,-6.1104,-6.0954,-5.9608,-5.9099,-5.9099,-5.9099,-5.9099,-5.889,-5.7543,-5.7094,-5.6855,-5.5568,-5.5179,-5.5179,-5.5179,-5.479,-5.4311,-5.4221,-5.3773,-5.3114,-5.2366,-5.2187,-5.2007,-5.1349,-5.1229,-5.1229,-5.1229,-5.1229,-5.1229,-5.1229,-5.1229,-5.1229,-5.1229,-5.1229,-5.1229,-5.1229,-5.1229,-5.1229,-5.1229,-5.1229,-5.1229,-5.1229,-5.0644,-5.0315,-5.0315,-4.9763,-4.9449,-4.9449,-4.9359,-4.9299,-4.9299,-4.9389,-4.9673,-5.0196,-5.0285,-5.0614,-5.1229,-5.1229,-5.1229,-6.4845,-6.5981,-6.652,-6.5323,-6.4126,-6.2193,-5.8025,-5.4934,-5.2138,-4.9197,-4.8708,-4.8798,-4.8798,-5.1749,-5.5299,-5.856,-6.0805,-6.3199,-6.637,-6.6909,-6.6999,-6.6999,-6.6999,-6.6999,-6.6999,-6.6999,-6.6999,-6.6999,-6.6999,-6.6999,-6.6999,-6.6999,-6.6999,-6.6999,-6.6999,-6.6999,-6.6999,-6.6999,-6.6999,-6.6999,-6.6999,-6.6999,-6.6999,-6.6999,-6.6939,-6.6759,-6.5562,0.0,-6.4755,-6.3558,-6.3079,-6.2959,-6.1613,-6.1104,-6.0954,-5.9608,-5.9099,-5.9099,-5.9099,-5.9099,-5.889,-5.7543,-5.7094,-5.6855,-5.5568,-5.5179,-5.5179,-5.5179,-5.5119,-5.491,-5.4341,-5.4132,-5.3713,-5.2486,-5.2187,-5.2007,-5.1349,-5.1229,-5.1229,-5.1229,-5.1229,-5.1229,-5.1229,-5.1229,-5.1229,-5.1229,-5.1229,-5.1229,-5.1229,-5.1229,-5.1229,-5.1229,-5.1229,-5.1229,-5.1229,-5.1109,-5.105,-5.105,-5.0375,-5.0016,-5.0016,-4.9553,-4.9299,-4.9299,-4.9793,-5.0076,-5.0196,-5.0734,-5.1109,-5.1229,-5.1229,-5.1229,-6.5263,-6.6251,-6.667,-6.5353,-6.3797,-6.1422,-5.7064,-5.3271,-4.9844,-4.6774,-4.5942,-4.6073,-4.7052,-4.9965,-5.3255,-5.6541,-5.8441,-6.0775,-6.4425,-6.4964,-6.5473,-6.6819,-6.6999,-6.6999,-6.6999,-6.6999,-6.6999,-6.6999,-6.6999,-6.6999,-6.6999,-6.6999,-6.6999,-6.6999,-6.6999,-6.6999,-6.6999,-6.6999,-6.6999,-6.6999,-6.6999,-6.6999,-6.6999,-6.6999,-6.6999,-6.6909,-6.5592,-6.5024,-6.4934,-6.3617,-6.3079,-6.2959,-6.1613,-6.1104,-6.0954,-5.9608,-5.9099,-5.9099,-5.9099,-5.9099,-5.8949,-5.7962,-5.7393,-5.6855,-5.5568,-5.5179,-5.5179,-5.5179,-5.5179,-5.5119,-5.479,-5.473,-5.4371,-5.3025,-5.2187,-5.1588,-5.1289,-5.1229,-5.1229,-5.1229,-5.1229,-5.1229,-5.1229,-5.1229,-5.1229,-5.1229,-5.1229,-5.1229,-5.1229,-5.1229,-5.1229,-5.1229,-5.1229,-5.1229,-5.1229,-5.1229,-5.1229,-5.1229,-5.0883,-5.0704,-5.0704,-5.0451,-5.0272,-5.0272,-5.0601,-5.0704,-5.0704,-5.105,-5.1229,-5.1229,-5.1229,-5.1229,-6.5203,-6.6071,-6.6311,-6.5293,-6.3228,-6.0291,-5.5874,-5.1623,-4.7683,-4.4491,-4.349,-4.3717,-4.5403,-4.7963,-5.093,-5.4205,-5.6101,-5.8501,-6.251,-6.3318,-6.4366,-6.67,-6.6999,-6.6999,-6.6999,-6.6999,-6.6999,-6.6999,-6.6999,-6.6999,-6.6999,-6.6999,-6.6999,-6.6999,-6.6999,-6.6999,-6.6999,-6.6999,-6.6999,-6.6999,-6.6999,-6.6999,-6.6999,-6.6999,-6.6999,-6.6909,-6.5592,-6.5024,-6.4934,-6.3617,-6.3079,-6.2959,-6.1792,-6.1253,-6.0954,-5.9757,-5.9219,-5.9099,-5.9099,-5.9099,-5.9009,-5.8351,-5.7663,-5.6885,-5.5748,-5.5299,-5.5179,-5.5179,-5.5179,-5.5179,-5.5179,-5.5179,-5.488,-5.3683,-5.2396,-5.1439,-5.1439,-5.1319,-5.1229,-5.1229,-5.1229,-5.1229,-5.1229,-5.1229,-5.1229,-5.1229,-5.1229,-5.1229,-5.1229,-5.1229,-5.1229,-5.1229,-5.1229,-5.1229,-5.1229,-5.1229,-5.1229,-5.1229,-5.1229,-5.1229,-5.1229,-5.1229,-5.1229,-5.1229,-5.1229,-5.1229,-5.1229,-5.1229,-5.1229,-5.1229,-5.1229,-5.1229,-6.3827,-6.4695,-6.5173,-6.5054,-6.2181,-5.8476,-5.4948,-5.0266,-4.5898,-4.3112,-4.2618,-4.2878,-4.3537,-4.6333,-4.954,-5.2735,-5.5417,-5.8501,-6.251,-6.4096,-6.5383,-6.6819,-6.6999,-6.6999,-6.6999,-6.6999,-6.6999,-6.6999,-6.6999,-6.6999,-6.6999,-6.6999,-6.6999,-6.6999,-6.6999,-6.6999,-6.6999,-6.6999,-6.6999,-6.6999,-6.6999,-6.6999,-6.6999,-6.6999,-6.6999,-6.6909,-6.5592,-6.5024,0.0,-6.3617,-6.3079,-6.3019,-6.2301,-6.1642,-6.1014,-6.0266,-5.9608,-5.9099,-5.9099,-5.9099,-5.9009,-5.8351,-5.7663,-5.6974,-5.6286,-5.5658,-5.5179,-5.5179,-5.5179,-5.5179,-5.5179,-5.5179,-5.4999,-5.4281,-5.3084,-5.2127,-5.2127,-5.1648,-5.1229,-5.1229,-5.1229,-5.1229,-5.1229,-5.1229,-5.1229,-5.1229,-5.1229,-5.1229,-5.1229,-5.1229,-5.1229,-5.1229,-5.1229,-5.1229,-5.1229,-5.1229,-5.1229,-5.1229,-5.1229,-5.1229,-5.1229,-5.1229,-5.1229,-5.1229,-5.1229,-5.1229,-5.1229,-5.1229,-5.1229,-5.1229,-5.1229,-5.1229,-6.248,-6.3917,-6.4844,-6.4066,-6.0867,-5.7163,-5.426,-4.9242,-4.4714,-4.2902,-4.1642,-4.1363,-4.3097,-4.5144,-4.7631,-5.0838,-5.2573,-5.494,-5.8919,-5.9937,-6.1493,-6.4784,-6.5562,-6.6131,-6.6909,-6.6999,-6.6999,-6.6999,-6.6999,-6.6999,-6.6999,-6.6999,-6.6999,-6.6999,-6.6999,-6.6999,-6.6999,-6.6999,-6.6999,-6.6999,-6.6999,-6.6999,-6.6999,-6.6999,-6.6999,-6.6909,-6.5592,-6.5024,0.0,-6.3617,-6.3079,-6.3019,-6.2361,-6.1702,-6.1044,-6.0326,-5.9668,-5.9099,-5.9099,-5.9099,-5.9069,-5.88,-5.8261,-5.7513,-5.6496,-5.5987,-5.5688,-5.5299,-5.5179,-5.5179,-5.5179,-5.491,-5.4521,-5.4281,-5.3473,-5.2785,-5.2785,-5.2276,-5.1798,-5.1798,-5.1498,-5.1229,-5.1229,-5.1229,-5.1229,-5.1229,-5.1229,-5.1229,-5.1229,-5.1229,-5.1229,-5.1229,-5.1229,-5.1229,-5.1229,-5.1229,-5.1229,-5.1229,-5.1229,-5.1229,-5.1229,-5.1229,-5.1229,-5.1229,-5.1229,-5.1229,-5.1229,-5.1229,-5.1229,-5.1229,-5.1229,-5.1229,-6.0745,-6.2361,-6.3408,-6.266,-5.9347,-5.56,-5.3279,-4.8239,-4.3752,-4.2536,-4.1054,-4.0461,-4.2216,-4.4276,-4.6439,-4.8688,-5.0769,-5.3264,-5.6645,-5.7603,-5.9398,-6.3258,-6.4306,-6.5173,-6.6311,-6.6759,-6.6999,-6.6999,-6.6999,-6.6999,-6.6999,-6.6999,-6.6999,-6.6999,-6.6999,-6.6999,-6.6999,-6.6999,-6.6999,-6.6999,-6.6999,-6.6999,-6.6969,-6.6789,-6.67,-6.664,-6.5293,-6.4725,0.0,-6.3528,-6.3079,-6.3019,-6.257,-6.1852,-6.1044,-6.0565,-5.9847,-5.9099,-5.9099,-5.9099,-5.9099,-5.9099,-5.88,-5.8201,-5.7094,-5.6466,-5.6128,-5.5598,-5.5329,-5.5179,-5.5179,-5.485,-5.4491,-5.4491,-5.3982,-5.3503,-5.3503,-5.2965,-5.2426,-5.2247,-5.1828,-5.1439,-5.1259,-5.1229,-5.1229,-5.1229,-5.1229,-5.1229,-5.1229,-5.1229,-5.1229,-5.1229,-5.1229,-5.1229,-5.1229,-5.1229,-5.1229,-5.1229,-5.1229,-5.1229,-5.1229,-5.1229,-5.1229,-5.1229,-5.1229,-5.1229,-5.1229,-5.1229,-5.1229,-5.1229,-5.1229,-5.1229,-5.8411,-5.9638,-6.0296,-6.0954,-5.7584,-5.3666,-5.1751,-4.7193,-4.3067,-4.1855,-4.1004,-4.0501,-4.0526,-4.3694,-4.6283,-4.6311,-5.0722,-5.488,-5.6803,-5.883,-6.0805,-6.2839,-6.3617,-6.4276,-6.4994,-6.6221,-6.6999,-6.6999,-6.6999,0.0,-6.6999,-6.6999,-6.6999,-6.6999,-6.6999,-6.6999,-6.6999,-6.6999,-6.6999,-6.6999,-6.6999,-6.6999,-6.6969,-6.6311,-6.6011,-6.5951,-6.4605,-6.4006,0.0,-6.3318,-6.3079,-6.3079,-6.3079,-6.2271,-6.1104,-6.1104,-6.0266,-5.9099,-5.9099,-5.9099,-5.9099,-5.9099,-5.9099,-5.8979,-5.8321,-5.7184,-5.6218,-5.6218,-5.5688,-5.5179,-5.5179,-5.5179,-5.5179,-5.5179,-5.467,-5.4192,-5.4192,-5.3653,-5.2965,-5.2336,-5.2187,-5.1977,-5.1319,-5.1229,-5.1229,-5.1229,-5.1229,-5.1229,-5.1229,-5.1229,-5.1229,-5.1229,-5.1229,-5.1229,-5.1229,-5.1229,-5.1229,-5.1229,-5.1229,-5.1229,-5.1229,-5.1229,-5.1229,-5.1229,-5.1229,-5.1229,-5.1229,-5.1229,-5.1229,-5.1229,-5.1229,-5.1229,-5.482,-5.5597,-5.5987,-5.5259,-5.2218,-4.8899,-4.7065,-4.4229,-4.1666,-4.0543,-4.0411,-4.0626,-4.0949,-4.3909,-4.6342,-4.6545,-5.0869,-5.4348,-5.4778,-5.7853,-6.0655,-6.2211,-6.4545,-6.6131,-6.634,-6.6759,-6.6999,-6.6999,-6.6999,-6.6999,-6.6999,-6.6999,-6.6999,-6.6999,-6.6999,-6.6999,-6.6999,-6.6999,-6.6999,-6.6999,-6.6999,-6.6759,-6.6311,-6.6101,-6.5772,0.0,-6.4395,0.0,0.0,-6.3318,-6.3079,-6.3079,-6.3079,-6.2271,-6.1104,-6.1104,-6.0266,-5.9099,-5.9099,-5.9099,-5.9099,-5.9099,-5.9099,-5.9069,-5.886,-5.8201,-5.7334,-5.6436,-5.5688,-5.5179,-5.5179,-5.5179,-5.5179,-5.5179,-5.5029,-5.488,-5.488,-5.4371,-5.3832,-5.3623,-5.2845,-5.2127,-5.1917,-5.1498,-5.1229,-5.1229,-5.1229,-5.1229,-5.1229,-5.1229,-5.1229,-5.1229,-5.1229,-5.1229,-5.1229,-5.1229,-5.1229,-5.1229,-5.1229,-5.1229,-5.1229,-5.1229,-5.1229,-5.1229,-5.1229,-5.1229,-5.1229,-5.1229,-5.1229,-5.1229,-5.1229,-5.1229,-5.1472,-5.2222,-5.248,-5.1184,-4.9042,-4.6705,-4.4623,-4.2525,-4.0777,-3.9873,-4.03,-4.0824,-4.0949,-4.3625,-4.5813,-4.5764,-4.986,-5.3136,-5.3473,-5.7134,-6.0475,-6.257,-6.4844,-6.634,-6.661,-6.6849,-6.6999,-6.6999,-6.6999,-6.6999,-6.6999,-6.6999,-6.6999,-6.6999,-6.6999,-6.6999,-6.6999,-6.6999,-6.6999,-6.6999,-6.6729,-6.64,-6.5981,-6.5473,-6.5024,0.0,0.0,0.0,0.0,-6.3228,-6.3079,-6.3079,-6.3079,-6.2271,-6.1104,-6.1104,-6.0266,-5.9099,-5.9099,-5.9099,-5.9099,-5.9099,-5.9099,-5.9099,-5.9099,-5.865,-5.7842,-5.6526,-5.5867,-5.5508,-5.5269,-5.5179,-5.5179,-5.5179,-5.5179,-5.5179,-5.5179,-5.488,-5.4491,-5.4251,-5.3533,-5.2875,-5.2606,-5.2217,-5.1887,-5.1618,-5.1588,-5.1498,-5.1259,-5.1229,-5.1229,-5.1229,-5.1229,-5.1229,-5.1229,-5.1229,-5.1229,-5.1229,-5.1229,-5.1229,-5.1229,-5.1229,-5.1229,-5.1229,-5.1229,-5.1229,-5.1229,-5.1229,-5.1229,-5.1229,-5.1229,-5.1229,0.0,-4.9149,-4.9388,-4.8164,-4.7339,-4.6192,-4.385,-4.1827,0.0,-3.9798,-4.0551,-4.11,-4.0701,-4.299,-4.481,-4.4335,-4.8263,-5.1719,-5.2934,-5.675,-6.0595,-6.3827,-6.4784,-6.5413,-6.6011,-6.664,-6.6999,-6.6999,-6.6999,-6.6999,-6.6999,-6.6999,-6.6999,-6.6999,-6.6999,-6.6999,-6.6999,-6.6999,-6.6969,-6.6909,-6.6311,-6.5951,-6.5832,-6.4575,-6.3977,0.0,0.0,0.0,0.0,-6.3079,-6.3079,-6.3079,-6.3079,-6.2271,-6.1104,-6.1104,-6.0266,-5.9099,-5.9099,-5.9099,-5.9099,-5.9099,-5.9099,-5.9099,-5.9099,-5.865,-5.7872,-5.6645,-5.6286,-5.6077,-5.5418,-5.5269,-5.5239,-5.5209,-5.5179,-5.5179,-5.5179,-5.5179,-5.4999,-5.4401,-5.4251,-5.4012,-5.3354,-5.3204,-5.2965,-5.2366,-5.2276,-5.2037,-5.1379,-5.1289,-5.1259,-5.1229,-5.1229,-5.1229,-5.1229,-5.1229,-5.1229,-5.1229,-5.1229,-5.1229,-5.1229,-5.1229,-5.1229,-5.1229,-5.1229,-5.1229,-5.1229,-5.1229,-5.1229,-5.1229,-5.1229,-5.1229,-4.1937,0.0,-4.3534,-4.2785,-4.2312,-4.1852,0.0,-4.0536,-4.035,-3.9798,-4.0249,-4.0927,-4.163,-4.3196,-4.4567,-4.5081,-4.9803,-5.3213,-5.2883,-5.8196,-6.3169,-6.5951,-6.643,-6.658,-6.6759,-6.6909,-6.6999,-6.6999,-6.6999,-6.6999,-6.6999,-6.6999,-6.6999,-6.6999,-6.6999,-6.6999,-6.6999,-6.6999,-6.6729,-6.6251,-6.6071,-6.5473,-6.4455,-6.4126,-6.3737,-6.3288,-6.3139,0.0,-6.3079,-6.3079,-6.3079,-6.3079,-6.3079,-6.2271,-6.1104,-6.1104,-6.0266,-5.9099,-5.9099,-5.9099,-5.9099,-5.9099,-5.9099,-5.9099,-5.9099,-5.865,-5.8052,-5.7752,-5.7274,-5.6735,-5.6107,-5.5927,-5.5807,-5.5299,-5.5179,-5.5179,-5.5179,-5.5179,-5.5149,-5.4999,-5.4551,-5.4162,-5.3982,-5.3533,-5.3144,-5.2965,-5.2935,-5.2725,-5.2067,-5.1977,-5.1768,-5.1259,-5.1229,-5.1229,-5.1229,-5.1229,-5.1229,-5.1229,-5.1229,-5.1229,-5.1229,-5.1229,-5.1229,-5.1229,-5.1229,-5.1229,-5.1229,-5.1229,-5.1229,-5.1229,-5.1229,-5.1229,-3.9521,-4.0579,-4.1462,-4.0506,-4.0848,-4.1105,-4.028,-4.0099,-4.0049,-3.9747,-4.0124,-4.0777,-4.163,-4.3353,-4.5018,-4.5985,-5.0381,-5.4425,-5.6678,-6.076,-6.4366,-6.67,-6.6999,-6.6999,0.0,-6.6999,-6.6999,-6.6999,-6.6999,-6.6999,-6.6999,-6.6999,-6.6999,-6.6999,-6.6999,-6.6999,-6.6999,-6.6999,-6.667,-6.6011,-6.5712,-6.5024,-6.3977,-6.3707,-6.3378,-6.3079,-6.3079,0.0,-6.3079,-6.3079,-6.3079,-6.3079,-6.3079,-6.245,-6.1523,-6.1224,-6.0446,-5.9518,-5.9219,-5.9099,-5.9099,-5.9099,-5.9099,-5.9099,-5.9099,-5.886,-5.8501,-5.8201,-5.7842,-5.7423,-5.6765,-5.6585,-5.6436,-5.5777,-5.5658,-5.5568,-5.5269,-5.5179,-5.5179,-5.5179,-5.491,-5.467,-5.467,-5.4341,-5.4012,-5.3713,-5.3653,-5.3294,-5.2336,-5.2187,-5.1947,-5.1289,-5.1229,-5.1229,-5.1229,-5.1229,-5.1229,-5.1229,-5.1229,-5.1229,-5.1229,-5.1229,-5.1229,-5.1229,-5.1229,-5.1229,-5.1229,-5.1229,-5.1229,-5.1229,-5.1229,-5.1229,-3.8871,-4.0162,-4.1097,-3.9778,-4.0875,-4.193,-4.0788,-4.0149,-3.9848,-3.9923,-4.0249,-4.0779,-4.1698,-4.3801,-4.5738,-4.6983,-5.0739,-5.5536,-6.1535,-6.3408,-6.4874,-6.6759,-6.6999,-6.6999,-6.6999,-6.6999,-6.6999,-6.6999,-6.6999,-6.6999,-6.6999,-6.6999,-6.6999,-6.6999,-6.6999,-6.6999,-6.6999,-6.6879,-6.646,-6.5682,-6.5144,-6.4515,-6.3827,-6.3318,-6.3079,-6.3079,0.0,0.0,-6.3079,-6.3079,-6.3079,-6.3079,-6.3079,-6.266,-6.2032,-6.1373,-6.0685,-5.9997,-5.9338,-5.9099,-5.9099,-5.9099,-5.9099,-5.9099,-5.9099,-5.9099,-5.8979,-5.8441,-5.8261,-5.8112,-5.7423,-5.7244,-5.7064,-5.6346,-5.6218,-5.6038,-5.5329,-5.5179,-5.5179,-5.5179,-5.5179,-5.5179,-5.5179,-5.5179,-5.4999,-5.4431,-5.4371,-5.3922,-5.2665,-5.2426,-5.2097,-5.1439,-5.1289,-5.1229,-5.1229,-5.1229,-5.1229,-5.1229,-5.1229,-5.1229,-5.1229,-5.1229,-5.1229,-5.1229,-5.1229,-5.1229,-5.1229,-5.1229,-5.1229,-5.1229,-5.1229,-5.1229,-3.7906,-3.9399,-4.0283,-3.8668,-3.9902,-4.1291,-4.0679,-4.045,-4.0526,-4.0949,-4.0777,-4.1324,-4.3934,-4.5338,-4.6535,-4.7947,-5.2062,-5.713,-6.291,-6.4395,-6.5383,-6.6819,-6.6999,-6.6999,-6.6999,-6.6999,-6.6999,-6.6999,-6.6999,-6.6999,-6.6999,-6.6999,-6.6999,-6.6999,-6.6999,-6.6999,-6.6999,-6.643,-6.5533,-6.4306,-6.4216,-6.3827,-6.3228,-6.3109,-6.3079,-6.3079,0.0,-6.3079,-6.3079,-6.3079,-6.3079,-6.3079,-6.3079,-6.266,-6.2032,-6.1373,-6.0685,-5.9997,-5.9338,-5.9099,-5.9099,-5.9099,-5.9099,-5.9099,-5.9099,-5.9099,-5.9069,-5.8979,-5.8949,-5.88,-5.8141,-5.7962,-5.7663,-5.6466,-5.6218,-5.6038,-5.5329,-5.5179,-5.5179,-5.5179,-5.5179,-5.5179,-5.5179,-5.5179,-5.5149,-5.5059,-5.5029,-5.476,-5.4012,-5.3384,-5.2785,-5.2127,-5.1558,-5.1229,-5.1229,-5.1229,-5.1229,-5.1229,-5.1229,-5.1229,-5.1229,-5.1229,-5.1229,-5.1229,-5.1229,-5.1229,-5.1229,-5.1229,-5.1229,-5.1229,-5.1229,-5.1229,-3.6985,-3.8341,-3.9521,-3.9044,-4.0802,-4.273,-4.2986,-4.2225,-4.1724,-4.2782,-4.1892,-4.1783,-4.457,-4.6598,-4.9363,-5.3979,-5.7456,-6.0735,-6.4099,-6.5144,-6.5922,-6.6879,0.0,-6.6999,-6.6999,-6.6999,-6.6999,-6.6999,-6.6999,-6.6999,-6.6999,-6.6999,-6.6999,-6.6999,-6.664,-6.6281,-6.5922,-6.5263,-6.4784,-6.4545,-6.4186,-6.3677,-6.3079,-6.3079,-6.3079,-6.3079,0.0,-6.3079,-6.3079,-6.3079,-6.3079,-6.3079,-6.3079,-6.2899,-6.251,-6.1493,-6.0446,-5.9518,-5.9219,-5.9099,-5.9099,-5.9099,-5.9099,-5.9099,-5.9099,-5.9099,-5.9099,-5.9099,-5.9099,-5.9039,-5.874,-5.865,-5.8411,-5.7453,-5.6944,-5.6585,-5.6286,-5.5688,-5.5299,-5.5658,-5.5448,-5.5179,-5.5179,-5.5179,-5.5179,-5.5179,-5.5179,-5.497,-5.4311,-5.3922,-5.3473,-5.2785,-5.2456,-5.2276,-5.2276,-5.2276,-5.1977,-5.1259,-5.1229,-5.1229,-5.1229,-5.1558,-5.1738,-5.1738,-5.2097,-5.2276,-5.2276,-5.2276,-5.2276,-5.2276,-5.1917,-5.1947,-3.6732,-3.7938,-3.9195,-3.9747,-4.1555,-4.3574,-4.4817,-4.3771,-4.3022,-4.4559,-4.3762,-4.3387,-4.5388,-4.8165,-5.2287,-5.8696,-6.1577,-6.3446,-6.4815,-6.5712,-6.643,-6.6939,-6.6999,-6.6999,-6.6999,-6.6999,-6.6999,-6.6999,-6.6999,-6.6999,-6.6999,-6.6999,-6.6999,-6.6999,-6.649,-6.6011,-6.5503,-6.4665,-6.4366,-6.4575,-6.4036,-6.3528,-6.3079,-6.3079,-6.3079,-6.3079,-6.3079,-6.3079,-6.3079,-6.3079,-6.3079,-6.3079,-6.3079,-6.2899,-6.251,-6.1493,-6.0266,-5.9099,-5.9099,-5.9099,-5.9099,-5.9099,-5.9099,-5.9099,-5.9099,-5.9099,-5.9099,-5.9099,-5.9099,-5.9099,-5.9099,-5.9099,-5.8949,-5.8291,-5.7723,-5.7304,-5.7124,-5.6316,-5.5777,-5.6286,-5.5867,-5.5418,-5.5418,-5.5299,-5.5179,-5.5179,-5.5179,-5.4999,-5.4491,-5.4311,-5.4012,-5.3473,-5.3264,-5.3174,-5.3174,-5.3174,-5.2755,-5.1738,-5.1678,-5.1678,-5.1678,-5.2157,-5.2426,-5.2426,-5.2935,-5.3174,-5.3174,-5.3174,-5.3174,-5.3174,-5.2665,-5.2695,-3.7613,-3.8743,-3.9772,-4.0325,-4.1003,-4.2032,-4.4155,-4.4123,-4.4174,-4.5792,-4.6727,-4.7257,-4.731,-5.0519,-5.4362,-5.8204,-6.0894,-6.3094,-6.4755,-6.6131,-6.6939,-6.6999,-6.6999,-6.6999,-6.6999,-6.6999,-6.6999,-6.6999,-6.6999,-6.6999,-6.6999,-6.6999,-6.6999,-6.6999,-6.6939,-6.6879,-6.6849,-6.5592,-6.4366,-6.3228,-6.3169,-6.3109,-6.3079,-6.3079,-6.3079,-6.3079,-6.3079,-6.3079,-6.3079,-6.3079,-6.3079,-6.3079,-6.3079,-6.2331,-6.1253,-6.1164,-6.0266,-5.9099,-5.9099,-5.9099,-5.9099,-5.9099,-5.9099,-5.9099,-5.9099,-5.9099,-5.9099,-5.9099,-5.9099,-5.9099,-5.9099,-5.9099,-5.8949,-5.8291,-5.8082,-5.7872,-5.7244,-5.7034,-5.6974,-5.7004,-5.6526,-5.6158,-5.6158,-5.5598,-5.5179,-5.5179,-5.5179,-5.5179,-5.5119,-5.4581,-5.4192,-5.4132,-5.3563,-5.3174,-5.3174,-5.3174,-5.3144,-5.3054,-5.3025,-5.3025,-5.3025,-5.3084,-5.3114,-5.3114,-5.3144,-5.3174,-5.3174,-5.3174,-5.3174,-5.3174,-5.3144,-5.3144,-3.686,-3.8316,-3.9823,-4.0375,-4.1455,-4.3012,-4.5468,-4.5668,-4.602,-4.8249,-4.7974,-4.7725,-4.9015,-5.2636,-5.5988,-5.7495,-6.0984,-6.3589,-6.4015,-6.5759,-6.6999,-6.6999,-6.6999,-6.6999,-6.6999,-6.6999,-6.6999,-6.6999,-6.6999,-6.6999,-6.6999,-6.6999,-6.6819,-6.64,-6.5981,-6.5562,-6.5144,-6.4246,-6.3558,-6.3079,-6.3079,-6.3079,-6.3079,-6.3079,-6.3079,-6.3079,-6.3079,-6.3079,-6.3079,-6.3079,-6.3079,-6.3079,-6.3079,-6.2271,-6.1104,-6.1104,-6.0266,-5.9099,-5.9099,-5.9099,-5.9099,-5.9099,-5.9099,-5.9099,-5.9099,-5.9099,-5.9099,-5.9099,-5.9099,-5.9099,-5.9099,-5.9099,-5.9039,-5.88,-5.8411,-5.8171,-5.8321,-5.7693,-5.7214,-5.7663,-5.7184,-5.6735,-5.6735,-5.6226,-5.5807,-5.5807,-5.5448,-5.5179,-5.5179,-5.497,-5.482,-5.482,-5.4581,-5.4431,-5.4431,-5.4431,-5.4431,-5.4431,-5.3653,-5.3174,-5.3174,-5.3593,-5.3832,-5.3832,-5.4221,-5.4431,-5.4431,-5.4431,-5.4431,-5.4431,-5.4012,-5.4042,-3.6933,-3.8391,-4.0099,-4.0651,-4.2007,-4.3872,-4.6409,-4.6874,-4.7485,-4.9816,-4.8855,-4.8328,-5.0629,-5.3325,-5.5681,-5.6975,-6.0279,-6.2954,-6.3859,-6.5235,-6.6384,-6.6908,-6.6999,-6.6999,-6.6999,-6.6819,-6.6759,-6.6969,-6.6789,-6.6759,-6.6969,-6.6789,-6.646,-6.6011,-6.5383,-6.4814,-6.4336,-6.3677,-6.3378,-6.3378,-6.3169,-6.3079,-6.3079,-6.3079,-6.3079,-6.3079,-6.3079,-6.3079,-6.3079,-6.3079,-6.3079,-6.3049,-6.2839,-6.2091,-6.1074,-6.0864,-6.0086,-5.9099,-5.9099,-5.9099,-5.9099,-5.9099,-5.9099,-5.9099,-5.9099,-5.9099,-5.9099,-5.9099,-5.9099,-5.9099,-5.9099,-5.9099,-5.9099,-5.9099,-5.877,-5.856,-5.9009,-5.8381,-5.7872,-5.8351,-5.7872,-5.7423,-5.7423,-5.6885,-5.6406,-5.6248,-5.5777,-5.5418,-5.5209,-5.5179,-5.5179,-5.5179,-5.5179,-5.5179,-5.5179,-5.5179,-5.5179,-5.5179,-5.4341,-5.3803,-5.3803,-5.4251,-5.4521,-5.4521,-5.497,-5.5179,-5.5179,-5.5179,-5.5179,-5.5179,-5.473,-5.476,-3.799,-3.922,-4.0651,-4.115,-4.2585,-4.4418,-4.6627,-4.7556,-4.8498,-5.0092,-4.9565,-4.9622,-5.2082,-5.2322,-5.3227,-5.6603,-5.8612,-6.0963,-6.4426,-6.4539,-6.4949,-6.6785,-6.6969,-6.6969,-6.6969,-6.637,-6.6281,-6.6909,-6.637,-6.6281,-6.6939,-6.634,-6.6011,-6.5981,-6.5353,-6.5024,-6.4994,-6.4336,-6.3977,-6.3977,-6.3378,-6.3079,-6.3079,-6.3079,-6.3079,-6.3079,-6.3079,-6.3079,-6.3079,-6.3079,-6.3079,-6.2989,-6.2361,-6.1702,-6.1014,-6.0326,-5.9668,-5.9099,-5.9099,-5.9099,-5.9099,-5.9099,-5.9099,-5.9099,-5.9099,-5.9099,-5.9099,-5.9099,-5.9099,-5.9099,-5.9099,-5.9099,-5.9099,-5.9099,-5.9099,-5.9099,-5.9099,-5.9099,-5.9099,-5.9099,-5.859,-5.8141,-5.8141,-5.7573,-5.6885,-5.6286,-5.6218,-5.5927,-5.5269,-5.5179,-5.5179,-5.5179,-5.5179,-5.5179,-5.5179,-5.5179,-5.5179,-5.5179,-5.5179,-5.5179,-5.5179,-5.5179,-5.5179,-5.5179,-5.5179,-5.5179,-5.5179,-5.5179,-5.5179,-5.5179,-5.5179,-5.5179,-3.7538,-3.8944,-4.0651,-4.115,-4.3463,-4.5849,-4.6842,-4.8159,-4.959,-5.1247,-5.1348,-5.1229,-5.159,-5.2465,-5.3264,-5.3581,-5.6386,-5.905,-6.0602,-6.2062,-6.3702,-6.5412,-6.5592,-6.5592,-6.5592,-6.5443,-6.5413,-6.5592,-6.5443,-6.5413,-6.5592,-6.5413,-6.5084,-6.4605,-6.4395,-6.4096,-6.3647,-6.3468,-6.3348,-6.3348,-6.3169,-6.3079,-6.3079,-6.3079,-6.3079,-6.3079,-6.3079,-6.3079,-6.3079,-6.3079,-6.281,-6.2361,-6.2181,-6.1403,-6.0356,-6.0146,-5.9668,-5.9099,-5.9099,-5.9099,-5.9099,-5.9099,-5.9099,-5.9099,-5.9099,-5.9099,-5.9099,-5.9099,-5.9099,-5.9099,-5.9099,-5.9099,-5.9099,-5.9099,-5.9099,-5.9099,-5.9099,-5.9099,-5.9099,-5.9099,-5.8949,-5.88,-5.88,-5.8261,-5.7603,-5.6915,-5.6436,-5.5927,-5.5269,-5.5179,-5.5179,-5.5179,-5.5179,-5.5179,-5.5179,-5.5179,-5.5179,-5.5179,-5.5179,-5.5179,-5.5179,-5.5179,-5.5179,-5.5179,-5.5179,-5.5179,-5.5179,-5.5179,-5.5179,-5.5179,-5.5179,-5.5179,-3.8743,-4.03,-4.2007,-4.2785,-4.4819,-4.6954,-4.8159,-4.9389,-5.067,-5.2126,-5.2076,-5.18,-5.1925,-5.2363,-5.2879,-5.3346,-5.5022,-5.695,-5.8705,-5.9801,-6.131,-6.373,-6.3973,-6.4245,-6.4964,-6.4158,-6.3979,-6.4934,-6.4128,-6.4039,-6.4964,-6.4755,-6.4425,-6.4006,-6.3767,-6.3468,-6.3079,-6.3079,-6.3079,-6.3079,-6.3079,-6.3079,-6.3079,-6.3079,-6.3079,-6.3079,-6.3079,-6.3079,-6.3049,-6.278,-6.245,-6.2061,-6.1493,-6.0805,-6.0057,-5.9787,-5.9458,-5.9099,-5.9099,-5.9099,-5.9099,-5.9099,-5.9099,-5.9099,-5.9099,-5.9099,-5.9099,-5.9099,-5.9099,-5.9099,-5.9099,-5.9099,-5.9099,-5.9099,-5.9099,-5.9099,-5.9099,-5.9099,-5.9099,-5.9099,-5.9099,-5.9099,-5.9099,-5.877,-5.8201,-5.7244,-5.6346,-5.5658,-5.5239,-5.5179,-5.5179,-5.5179,-5.5179,-5.5179,-5.5179,-5.5179,-5.5179,-5.5179,-5.5179,-5.5179,-5.5179,-5.5179,-5.5179,-5.5179,-5.5179,-5.5179,-5.5179,-5.5179,-5.5179,-5.5179,-5.5179,-5.5179,-4.0701,-4.2359,-4.394,-4.5121,-4.6351,-4.7832,-4.9941,-5.082,-5.1523,-5.2628,-5.2051,-5.1674,-5.2729,-5.2101,-5.2235,-5.4759,-5.433,-5.48,-5.8161,-5.7797,-5.8386,-6.1896,-6.2174,-6.2761,-6.4457,-6.2694,-6.2273,-6.4398,-6.2754,0.0,-6.4696,-6.4246,-6.3917,-6.3917,-6.3378,-6.3079,-6.3079,-6.3079,-6.3079,-6.3079,-6.3079,-6.3079,-6.3079,-6.3079,-6.3079,-6.3079,-6.3079,-6.3049,-6.2929,-6.2331,-6.2032,-6.1792,-6.0565,-6.0057,-5.9937,-5.9308,-5.9099,-5.9099,-5.9099,-5.9099,-5.9099,-5.9099,-5.9099,-5.9099,-5.9099,-5.9099,-5.9099,-5.9099,-5.9099,-5.9099,-5.9099,-5.9099,-5.9099,-5.9099,-5.9099,-5.9099,-5.9099,-5.9099,-5.9099,-5.9099,-5.9099,-5.9099,-5.9099,-5.9069,-5.856,-5.7214,-5.5987,-5.5179,-5.5179,-5.5179,-5.5179,-5.5179,-5.5179,-5.5179,-5.5179,-5.5179,-5.5179,-5.5179,-5.5179,-5.5179,-5.5179,-5.5179,-5.5179,-5.5179,-5.5179,-5.5179,-5.5179,-5.5179,-5.5179,-5.5179,-5.5179,-5.5179,-3.9295,-4.0927,-4.2942,-4.4418,-4.6627,-4.8761,-5.0117,-5.0519,-5.0921,-5.2051,-5.2101,-5.2126,-5.2804,-5.2729,-5.2765,-5.3308,-5.3211,-5.3784,-5.5868,-5.5974,-5.7077,-6.0516,-5.9776,-5.9651,-6.1276,-6.1039,-6.095,0.0,0.0,0.0,-6.3498,-6.3348,-6.3258,-6.3258,-6.3139,-6.3079,-6.3079,-6.3079,-6.3079,0.0,-6.3079,-6.3079,-6.3079,-6.3079,-6.3079,-6.3079,-6.3079,-6.278,-6.2301,-6.2151,-6.1463,-6.0475,-6.0206,-5.9757,-5.9308,-5.9159,-5.9099,-5.9099,-5.9099,-5.9099,-5.9099,-5.9099,-5.9099,-5.9099,-5.9099,-5.9099,-5.9099,-5.9099,-5.9099,-5.9099,-5.9099,-5.9099,-5.9099,-5.9099,-5.9099,-5.9099,-5.9099,-5.9099,-5.9099,-5.9099,-5.9099,-5.9099,-5.9099,-5.868,-5.7902,-5.6555,-5.5688,-5.5179,-5.5179,-5.5179,-5.5179,-5.5179,-5.5179,-5.5179,-5.5179,-5.5179,-5.5179,-5.5179,-5.5179,-5.5179,-5.5179,-5.5179,-5.5179,-5.5179,-5.5179,-5.5179,-5.5179,-5.5179,-5.5179,-5.5179,-5.5179,-5.5179,-3.9295,-4.1078,-4.3137,-4.5573,-4.7682,-4.9314,-4.9891,-5.0017,-5.0268,-5.1122,-5.1724,-5.2201,-5.2477,-5.2754,-5.2929,-5.2929,-5.2929,-5.3247,-5.4122,-5.4164,-5.5181,-5.776,-5.7277,-5.7405,-5.9104,0.0,0.0,0.0,0.0,-6.2233,-6.3079,-6.3079,-6.2759,-6.191,-6.2672,-6.2701,-6.1851,-6.2672,-6.3079,-6.3079,-6.3079,-6.3079,-6.3079,-6.3079,-6.3079,-6.3049,-6.275,-6.2421,-6.2061,-6.1403,-6.0715,-6.0057,-5.9727,-5.9398,-5.9099,-5.9099,-5.9099,-5.9099,-5.9099,-5.9099,-5.9099,-5.9099,-5.9099,-5.9099,-5.9099,-5.9099,-5.9099,-5.9099,-5.9099,-5.9099,-5.9099,-5.9099,-5.9099,-5.9099,-5.9099,-5.9099,-5.9099,-5.9099,-5.9099,-5.9099,-5.9099,-5.9099,-5.9099,-5.856,-5.7902,-5.7214,-5.6286,-5.5658,-5.5658,-5.5388,-5.5179,-5.5179,-5.5179,-5.5179,-5.5179,-5.5179,-5.5179,-5.5179,-5.5179,-5.5179,-5.5179,-5.5179,-5.5179,-5.5179,-5.5179,-5.5179,-5.5179,-5.5179,-5.5179,-5.5179,-5.5179,-5.5179,-3.9145,-4.1354,-4.374,-4.6979,-4.8611,-4.949,-4.9565,-4.959,-4.9715,-5.0167,-5.1172,-5.2,-5.2076,-5.2553,-5.2929,-5.2929,-5.2929,-5.2929,-5.2929,-5.2929,-5.3538,-5.5181,-5.5181,-5.5617,0.0,0.0,0.0,0.0,0.0,-6.069,-6.2116,-6.2233,-6.1525,-6.0116,-6.1466,-6.1673,-6.048,-6.1644,-6.238,-6.2672,-6.2672,-6.2817,-6.3079,-6.3079,-6.3019,-6.2869,-6.2331,-6.1972,-6.1672,-6.0535,-6.0027,-5.9847,-5.9308,-5.9099,-5.9099,-5.9099,-5.9099,-5.9099,-5.9099,-5.9099,-5.9099,-5.9099,-5.9099,-5.9099,-5.9099,-5.9099,-5.9099,-5.9099,-5.9099,-5.9099,-5.9099,-5.9099,-5.9099,-5.9099,-5.9099,-5.9099,-5.9099,-5.9099,-5.9099,-5.9099,-5.9099,-5.9069,-5.8949,-5.8471,-5.8082,-5.7962,-5.7034,-5.6338,-5.6248,-5.5688,-5.5329,-5.5209,-5.5179,-5.5179,-5.5179,-5.5299,-5.5299,-5.5209,-5.5299,-5.5299,-5.5179,-5.5179,-5.5179,-5.5179,-5.5179,-5.5179,-5.5179,-5.5179,-5.5179,-5.5179,-5.5179,-5.5179,-3.6732,-3.9925,-4.3664,-4.6527,-4.8058,-4.9012,-4.949,-4.959,-4.9615,-4.969,-5.0594,-5.1548,-5.2026,-5.2553,-5.2929,-5.2929,-5.2929,-5.2929,-5.2929,-5.2929,-5.3538,-5.5181,-5.4122,0.0,0.0,0.0,0.0,0.0,-5.7469,-5.8446,-5.8697,-5.8697,-5.8571,-5.832,-5.8571,-5.9256,-6.048,-5.9318,-5.9442,-6.087,-6.087,-6.1644,-6.3079,-6.3079,-6.278,-6.2211,-6.2121,-6.1433,-6.0326,-6.0146,-5.9757,-5.9219,-5.9129,-5.9099,-5.9099,-5.9099,-5.9099,-5.9099,-5.9099,-5.9099,-5.9099,-5.9099,-5.9099,-5.9099,-5.9099,-5.9099,-5.9099,-5.9099,-5.9099,-5.9099,-5.9099,-5.9099,-5.9099,-5.9099,-5.9099,-5.9099,-5.9099,-5.9099,-5.9099,-5.9099,-5.9099,-5.8919,-5.8351,-5.8171,-5.7932,-5.7334,-5.7094,-5.6765,-5.6308,-5.6107,-5.5837,-5.5239,-5.5179,-5.5179,-5.5179,-5.5718,-5.5807,-5.5239,-5.5718,-5.5777,-5.5209,-5.5179,-5.5179,-5.5179,-5.5179,-5.5179,-5.5179,-5.5179,-5.5179,-5.5179,-5.5179,-5.5179,-3.7588,-4.0325,-4.3187,-4.5974,-4.7255,-4.7983,-4.8535,-4.8912,-4.9138,-4.9138,-5.0017,-5.0971,-5.1548,-5.2101,-5.2578,-5.2879,-5.2929,-5.2929,-5.2929,-5.2929,-5.3179,0.0,0.0,0.0,0.0,0.0,0.0,0.0,-5.7021,-5.8005,-5.8005,-5.8005,-5.756,-5.6569,-5.7496,-5.785,-5.7633,-5.8793,-6.0266,-6.1969,-6.0582,-6.0852,-6.251,-6.2151,-6.2032,-6.2061,-6.1702,-6.0984,-6.0057,-5.9697,-5.9368,-5.9099,-5.9099,-5.9099,-5.9099,-5.9099,-5.9099,-5.9099,-5.9099,-5.9099,-5.9099,-5.9099,-5.9099,-5.9099,-5.9099,-5.9099,-5.9099,-5.9099,-5.9099,-5.9099,-5.9099,-5.9099,-5.9099,-5.9099,-5.9099,-5.9099,-5.9099,-5.9099,-5.9099,-5.9099,-5.9099,-5.9009,-5.871,-5.868,-5.856,-5.8261,-5.7902,-5.7573,-5.7304,-5.6202,-5.5636,-5.6183,-5.5145,-5.4929,-5.6175,-5.6196,-5.6196,-5.6256,-5.6196,-5.6098,-5.5748,-5.5388,-5.5179,-5.5179,-5.5179,-5.5179,-5.5179,-5.5179,-5.5179,-5.5179,-5.5179,-5.5179,-3.7739,-3.9747,-4.1659,-4.4518,-4.5773,-4.6527,-4.7481,-4.8033,-4.8435,-4.8711,-4.9439,-5.0218,-5.0921,-5.1624,-5.2226,-5.2653,-5.2829,-5.2929,-5.2929,-5.2929,0.0,0.0,0.0,0.0,0.0,0.0,0.0,0.0,-5.5972,-5.6661,-5.6661,-5.6661,-5.6103,-5.4809,-5.6037,-5.6386,-5.577,-5.8727,-6.079,-6.1934,-6.0265,-6.0355,-6.1822,-6.1343,-6.1283,-6.1553,-6.1074,-6.0475,-5.9787,-5.9308,-5.9099,-5.9099,-5.9099,-5.9099,-5.9099,-5.9099,-5.9099,-5.9099,-5.9099,-5.9099,-5.9099,-5.9099,-5.9099,-5.9099,-5.9099,-5.9099,-5.9099,-5.9099,-5.9099,-5.9099,-5.9099,-5.9099,-5.9099,-5.9099,-5.9099,-5.9099,-5.9099,-5.9099,-5.9099,-5.9099,-5.9099,-5.9099,-5.9099,-5.9099,-5.9099,-5.9099,-5.868,-5.8321,-5.8141,-5.6643,-5.5883,-5.6433,-5.5026,-5.4562,-5.5811,-5.6031,-5.6242,-5.6509,-5.6586,-5.6585,-5.6406,-5.5777,-5.5448,-5.5448,-5.5269,-5.5179,-5.5179,-5.5179,-5.5179,-5.5179,-5.5179,-5.5179,-3.5232,-3.6584,-3.8241,-4.1609,-4.3187,-4.4543,-4.6677,-4.7205,-4.7506,-4.856,-4.8812,-4.9188,-5.0268,-5.1373,-5.2126,-5.2151,-5.2578,-5.2929,-5.2929,0.0,0.0,0.0,0.0,0.0,0.0,0.0,0.0,0.0,-5.311,-5.3179,-5.3179,-5.3179,-5.311,-5.3042,-5.311,-5.4374,-5.6899,-5.8685,-5.9299,-5.8782,-5.927,-6.0063,-6.1164,-6.1134,-6.0775,-6.0176,-6.0146,-5.9757,-5.9159,-5.9129,-5.9099,-5.9099,-5.9099,-5.9099,-5.9099,-5.9099,-5.9099,-5.9099,-5.9099,-5.9099,-5.9099,-5.9099,-5.9099,-5.9099,-5.9099,-5.9099,-5.9099,-5.9099,-5.9099,-5.9099,-5.9099,-5.9099,-5.9099,-5.9099,-5.9099,-5.9099,-5.9099,-5.9099,-5.9099,-5.9099,-5.9099,-5.9099,-5.9099,-5.9099,-5.9099,-5.9099,-5.9069,-5.883,-5.8201,-5.7975,-5.7143,-5.514,-5.4806,-5.4171,-5.2764,-5.4572,-5.5524,-5.4947,-5.6888,-5.7723,-5.7064,-5.6436,-5.6188,-5.6188,-5.5508,-5.5179,-5.5179,-5.5179,-5.5179,-5.5179,-5.5179,-5.5179,-3.5056,-3.5784,-3.686,-3.9823,-4.1404,-4.261,-4.4116,-4.5573,-4.6728,-4.7104,-4.7732,-4.846,-4.9213,-5.0268,-5.1147,-5.1523,-5.1749,-5.2,0.0,0.0,0.0,0.0,0.0,0.0,0.0,0.0,0.0,0.0,0.0,-5.2929,-5.2929,-5.2929,-5.2754,-5.2402,-5.2402,-5.3944,-5.7093,-5.8041,-5.9505,-6.1408,-5.9654,-5.9655,-6.1074,-6.0206,-5.9697,-5.9458,-5.9458,-5.9308,-5.9099,-5.9099,-5.9099,-5.9099,-5.9099,-5.9099,-5.9099,-5.9099,-5.9099,-5.9099,-5.9099,-5.9099,-5.9099,-5.9099,-5.9099,-5.9099,-5.9099,-5.9099,-5.9099,-5.9099,-5.9099,-5.9099,-5.9099,-5.9099,-5.9099,-5.9099,-5.9099,-5.9099,-5.9099,-5.9099,-5.9099,-5.9099,-5.8276,-5.7552,-5.7552,-5.6736,-5.6108,-5.6108,-5.6108,-5.6022,-5.5737,-5.4816,-5.4296,-5.4536,-5.3248,-5.2724,-5.3579,-5.4051,-5.4369,-5.4538,-5.5845,-5.653,-5.6184,-5.6591,-5.6585,-5.6248,-5.5011,-5.4635,-5.5179,-5.5179,-5.5179,-5.5179,-5.5179,-5.5179,-3.4424,-3.4806,-3.5608,-3.8442,-3.9546,-4.0526,-4.276,-4.4116,-4.5171,-4.6125,-4.6878,-4.7606,-4.8335,-4.9238,-5.0117,-5.087,-5.1147,0.0,0.0,0.0,0.0,0.0,0.0,0.0,0.0,0.0,0.0,0.0,0.0,0.0,-5.2929,-5.2929,-5.2927,-5.2951,-5.3045,-5.4506,-5.7309,-5.8249,-5.9709,-6.1732,-6.0116,-5.985,-6.0745,-5.9847,-5.9428,-5.9428,-5.9189,-5.9099,-5.9099,-5.9099,-5.9099,-5.9099,-5.9099,-5.9099,-5.9099,-5.9099,-5.9099,-5.9099,-5.9099,-5.9099,-5.9099,-5.9099,-5.9099,-5.9099,-5.9099,-5.9099,-5.9099,-5.9099,-5.9099,-5.9099,-5.9099,-5.9099,-5.9099,-5.9099,-5.9099,-5.9099,-5.9099,-5.9099,-5.9099,-5.9099,-5.7804,-5.6736,-5.6736,-5.5444,-5.4386,-5.4386,-5.4386,-5.4386,-5.4386,-5.3489,-5.3005,-5.3549,-5.2231,-5.175,-5.27,-5.2869,-5.3114,-5.3582,-5.4672,-5.531,-5.5282,-5.5663,-5.5688,-5.5279,-5.3869,-5.3385,-5.3996,-5.4289,-5.4743,-5.5179,-5.5179,-5.5179,0.0,0.0,0.0,-3.7211,-3.7513,-3.8266,-4.261,-4.2811,-4.2916,-4.5623,-4.62,-4.6552,-4.7657,-4.8309,-4.9063,-5.0193,0.0,0.0,0.0,0.0,0.0,0.0,0.0,0.0,0.0,0.0,0.0,0.0,-5.2929,-5.2929,-5.2929,-5.2904,-5.3326,-5.4445,-5.4956,-5.5989,-5.7599,-5.928,-5.9787,-5.9189,-6.0475,-6.0745,-6.0086,-6.0086,-6.0086,-6.0027,-5.9368,-5.9099,-5.9099,-5.9099,-5.9099,-5.9099,-5.9099,-5.9099,-5.9099,-5.9099,-5.9099,-5.9099,-5.9099,-5.9099,-5.9099,-5.9099,-5.9099,-5.9099,-5.9099,-5.9099,-5.9099,-5.9099,-5.9099,-5.9099,-5.9099,-5.9099,-5.9099,-5.9099,-5.9045,-5.9045,-5.9045,-5.8991,-5.8991,-5.9045,-5.7664,-5.6537,-5.6537,-5.5269,-5.4268,-5.4268,-5.4268,-5.4268,-5.4268,-5.4268,-5.367,-5.2112,-5.1927,-5.133,-4.9719,-5.1016,-5.1927,-5.1927,-5.3429,-5.4327,-5.4327,-5.3748,-5.3416,-5.3389,-5.2173,-5.1567,-5.1595,-5.25,-5.3675,-5.5128,-5.5179,-5.5179,-3.3237,0.0,0.0,0.0,0.0,0.0,0.0,0.0,-4.0927,-4.2967,-4.3614,-4.4493,-4.6401,-4.6878,0.0,0.0,0.0,0.0,0.0,0.0,0.0,0.0,0.0,0.0,0.0,0.0,0.0,0.0,-5.2929,-5.2929,-5.2929,-5.2176,-5.2221,-5.3234,-5.4583,-5.602,-5.7686,-5.9779,-6.0745,-6.0565,-6.0924,-6.0745,-6.0086,-6.0086,-5.9817,-5.9368,-5.9189,-5.9099,-5.9099,-5.9099,-5.9099,-5.9099,-5.9099,-5.9099,-5.9099,-5.9099,-5.9099,-5.9099,-5.9099,-5.9099,-5.9099,-5.9099,-5.9099,-5.9099,-5.9099,-5.9099,-5.9099,-5.9099,-5.9099,-5.9099,-5.9099,-5.9099,-5.9099,-5.9099,-5.8221,-5.7384,-5.7384,-5.6508,-5.605,-5.7131,-5.5182,-5.3281,-5.3281,-5.1989,-5.0916,-5.0916,-5.0916,-5.0916,-5.0916,-5.0916,-5.0727,-5.0308,-5.0245,-5.0078,-4.9654,-5.0014,-5.0245,-5.0245,-5.1741,-5.2639,-5.2639,-5.3626,-5.3917,-5.3389,-5.2031,-5.1404,-5.1595,-5.1405,-5.2105,-5.3623,-5.4692,-5.5179,-3.3972,-3.3997,-3.4399,-3.5102,0.0,0.0,-3.8065,-3.8793,-3.9647,0.0,-4.276,-4.3514,-4.5271,0.0,0.0,0.0,0.0,0.0,0.0,0.0,0.0,0.0,0.0,0.0,0.0,-5.2477,-5.2929,-5.2929,-5.2929,-5.2829,-5.2603,-5.1523,-5.1507,-5.2797,-5.4175,-5.5656,-5.7283,-5.9277,-6.0266,-6.0266,-6.0565,-6.0475,-6.0086,-6.0086,-5.9877,-5.9488,-5.9219,-5.9099,-5.9099,-5.9099,-5.9099,-5.9099,-5.9099,-5.9099,-5.9099,-5.9099,-5.9099,-5.9099,-5.9099,-5.9099,-5.9099,-5.9099,-5.9099,-5.9099,-5.9099,-5.9099,-5.9099,-5.9099,-5.9099,-5.9099,-5.9099,-5.8634,-5.8081,-5.8081,-5.6905,-5.5734,-5.5734,-5.4505,-5.385,-5.5444,-5.3703,-5.1989,-5.1989,-5.0664,-4.959,-4.959,-4.959,-4.959,-4.959,-4.959,-4.959,-4.959,-4.959,-4.959,-4.959,-4.959,-4.959,-4.959,-5.0499,-5.1016,-5.1016,-5.1865,-5.2199,-5.1827,-5.0724,-5.015,-5.0073,-5.0098,-5.1128,-5.3016,-5.386,-5.4641,-3.5353,-3.5077,-3.5403,-3.6759,-3.6081,0.0,-3.922,-3.8894,-3.8768,0.0,0.0,-4.2811,0.0,0.0,0.0,0.0,0.0,0.0,0.0,0.0,0.0,0.0,0.0,0.0,-5.1197,-5.2126,-5.2754,-5.2754,-5.2754,-5.2503,-5.195,-5.0971,-5.1124,-5.2691,-5.364,-5.4976,-5.665,-5.8081,-5.8936,-5.9129,-5.9757,-6.0057,-5.9967,-6.0057,-6.0057,-5.9937,-5.9368,-5.9099,-5.9099,-5.9099,-5.9099,-5.9099,-5.9099,-5.9099,-5.9099,-5.9099,-5.9099,-5.9099,-5.9099,-5.9099,-5.9099,-5.9099,-5.9099,-5.9099,-5.9099,-5.9099,-5.9099,-5.9099,-5.9099,-5.9099,-5.9099,-5.7915,-5.6736,-5.6736,-5.5385,-5.4149,-5.4149,-5.2883,-5.2174,-5.361,-5.27,-5.1741,-5.1741,-5.0537,-4.959,-4.959,-4.959,-4.959,-4.959,-4.959,-4.959,-4.959,-4.959,-4.959,-4.959,-4.959,-4.959,-4.959,-4.959,-4.959,-4.959,-4.959,-4.959,-4.959,-4.9063,-4.851,-4.8008,-4.8859,-5.0444,-5.2623,-5.2886,-5.3675,-3.7437,-3.7362,-3.7236,-3.6707,-3.6935,0.0,-3.6586,-3.6935,-3.7663,0.0,-3.8969,0.0,0.0,0.0,0.0,0.0,0.0,0.0,0.0,0.0,0.0,0.0,0.0,0.0,-5.0594,-5.1197,-5.1599,-5.1599,-5.1599,-5.1348,-5.077,-5.0544,-5.0946,-5.2111,-5.235,-5.3822,-5.665,-5.7018,-5.7804,-5.9129,-5.9757,-5.9817,-5.9308,-5.9847,-5.9787,-5.9279,-5.9159,-5.9099,-5.9099,-5.9099,-5.9099,-5.9099,-5.9099,-5.9099,-5.9099,-5.9099,-5.9099,-5.9099,-5.9099,-5.9099,-5.9099,-5.9099,-5.9099,-5.9099,-5.9099,-5.9099,-5.9099,-5.9099,-5.9099,-5.9099,-5.9099,-5.7915,-5.6736,-5.6736,-5.4536,-5.2455,-5.2455,-5.1205,-5.0142,-5.0499,-5.0245,-5.0078,-5.0078,-4.9847,-4.959,-4.959,-4.959,-4.959,-4.959,-4.959,-4.959,-4.959,-4.959,-4.959,-4.959,-4.959,-4.959,-4.959,-4.959,-4.959,-4.959,-4.959,-4.959,-4.959,-4.9063,-4.8711,-4.8611,-4.9066,-4.959,-5.0067,-5.2089,-5.3121,-3.8743,-3.8642,-3.8642,-3.7863,0.0,0.0,0.0,-3.7387,-3.7663,-3.932,-3.9019,-3.9044,0.0,0.0,0.0,0.0,0.0,0.0,0.0,0.0,0.0,0.0,0.0,0.0,-5.0017,-5.077,-5.1272,-5.1272,-5.1021,-5.072,-5.0444,-5.0167,-5.0254,-5.079,-5.1554,-5.316,-5.5502,-5.6308,-5.7496,-5.9099,-5.9428,-5.9428,-5.9129,-5.9458,-5.9428,-5.9099,-5.9099,-5.9099,-5.9099,-5.9099,-5.9099,-5.9099,-5.9099,-5.9099,-5.9099,-5.9099,-5.9099,-5.9099,-5.9099,-5.9099,-5.9099,-5.9099,-5.9099,-5.9099,-5.9099,-5.9099,-5.9099,-5.9099,-5.8495,-5.7915,-5.7915,-5.6137,-5.4359,-5.4359,-5.2516,-5.079,-5.079,-5.0181,-4.959,-4.959,-4.959,-4.959,-4.959,-4.959,-4.959,-4.959,-4.959,-4.959,-4.959,-4.959,-4.959,-4.959,-4.959,-4.959,-4.959,-4.959,-4.959,-4.959,-4.959,-4.959,-4.959,-4.959,-4.959,-4.959,-4.9314,-4.9188,-4.9188,-4.9095,-4.9274,-4.9798,-5.105,-5.1989,0.0,0.0,-4.0149,0.0,0.0,-3.9044,0.0,0.0,0.0,-4.0275,0.0,0.0,0.0,0.0,0.0,0.0,0.0,0.0,0.0,0.0,0.0,0.0,0.0,0.0,0.0,-4.9841,-5.0419,-5.0619,-5.0117,-4.9891,-5.0092,-4.9766,-4.959,-4.959,-5.0853,-5.2297,-5.391,-5.5502,-5.7075,-5.8634,-5.8936,-5.9099,-5.9099,-5.9099,-5.9099,-5.9099,-5.9099,-5.9099,-5.9099,-5.9099,-5.9099,-5.9099,-5.9099,-5.9099,-5.9099,-5.9099,-5.9099,-5.9099,-5.9099,-5.9099,-5.9099,-5.9099,-5.9099,-5.9099,-5.9099,-5.8882,-5.8689,-5.8991,-5.7749,-5.6308,-5.6593,-5.4359,-5.1989,-5.1989,-5.079,-4.959,-4.959,-4.959,-4.959,-4.959,-4.959,-4.959,-4.959,-4.959,-4.959,-4.959,-4.959,-4.959,-4.959,-4.959,-4.959,-4.959,-4.959,-4.959,-4.959,-4.959,-4.959,-4.959,-4.959,-4.959,-4.959,-4.959,-4.959,-4.959,-4.959,-4.959,-4.959,-4.9163,-4.9302,-4.9949,-5.0146,-5.0842,0.0,0.0,0.0,0.0,-4.1379,0.0,0.0,0.0,-3.922,-3.8517,0.0,0.0,0.0,0.0,0.0,0.0,0.0,0.0,0.0,0.0,0.0,0.0,0.0,0.0,0.0,-4.7079,-4.728,-4.8209,-4.7807,-4.7933,-4.8912,-4.9364,-4.959,-4.959,-4.9783,-5.0664,-5.2271,-5.385,-5.5444,-5.6962,-5.844,-5.9099,-5.9099,-5.9099,-5.9099,-5.9099,-5.9099,-5.9099,-5.9099,-5.9099,-5.9099,-5.9099,-5.9099,-5.9099,-5.9099,-5.9099,-5.9099,-5.9099,-5.9099,-5.9099,-5.9099,-5.9099,-5.9099,-5.9099,-5.9099,-5.8081,-5.7272,-5.8689,-5.6991,-5.4976,-5.6366,-5.4359,-5.1989,-5.1989,-5.079,-4.959,-4.959,-4.959,-4.959,-4.959,-4.959,-4.959,-4.959,-4.959,-4.959,-4.959,-4.959,-4.959,-4.959,-4.959,-4.959,-4.959,-4.959,-4.959,-4.959,-4.959,-4.959,-4.959,-4.959,-4.959,-4.959,-4.959,-4.959,-4.959,-4.959,-4.959,-4.959,-4.954,-4.9341,-4.8951,-4.9811,-5.0307,0.0,0.0,0.0,0.0,0.0,0.0,-3.9923,0.0,-3.927,0.0,0.0,0.0,0.0,0.0,0.0,0.0,0.0,0.0,0.0,0.0,0.0,0.0,0.0,0.0,0.0,0.0,0.0,0.0,-4.6778,-4.7129,-4.8209,-4.8812,-4.9264,-4.959,-4.959,-5.0372,-5.1989,-5.2639,-5.379,-5.5385,-5.6962,-5.7719,-5.7749,-5.8689,-5.9099,-5.9099,-5.9099,-5.9099,-5.9099,-5.9099,-5.9099,-5.9099,-5.9099,-5.9099,-5.9099,-5.9099,-5.9099,-5.9099,-5.9099,-5.9099,-5.9099,-5.9099,-5.9099,-5.9099,-5.9099,-5.8634,-5.8026,-5.7804,-5.6108,-5.4327,-5.4061,-5.2271,-5.06,-5.06,-5.0078,-4.959,-4.959,-4.959,-4.959,-4.959,-4.959,-4.959,-4.959,-4.959,-4.959,-4.959,-4.959,-4.959,-4.959,-4.959,-4.959,-4.959,-4.959,-4.959,-4.959,-4.959,-4.959,-4.959,-4.959,-4.959,-4.959,-4.959,-4.959,-4.959,-4.959,-4.959,-4.959,-4.959,-4.9464,-4.9238,-4.9659,-4.9845,-4.2911,0.0,0.0,0.0,0.0,0.0,0.0,0.0,0.0,0.0,0.0,0.0,0.0,0.0,0.0,0.0,0.0,0.0,0.0,0.0,0.0,0.0,0.0,0.0,0.0,0.0,0.0,0.0,0.0,-4.5999,-4.7405,-4.8159,-4.8786,-4.9339,-4.9515,-5.0142,-5.133,-5.1803,-5.2578,-5.373,-5.5327,-5.6308,-5.6736,-5.7915,-5.8689,-5.9099,-5.9099,-5.9099,-5.9099,-5.9099,-5.9099,-5.9099,-5.9099,-5.9099,-5.9099,-5.9099,-5.9099,-5.9099,-5.9099,-5.9099,-5.9099,-5.9099,-5.9099,-5.9099,-5.9099,-5.8798,-5.8221,-5.7018,-5.5241,-5.3489,-5.2271,-5.079,-4.959,-4.959,-4.959,-4.959,-4.959,-4.959,-4.959,-4.959,-4.959,-4.959,-4.959,-4.959,-4.959,-4.959,-4.959,-4.959,-4.959,-4.959,-4.959,-4.959,-4.959,-4.959,-4.959,-4.959,-4.959,-4.959,-4.959,-4.959,-4.959,-4.959,-4.959,-4.959,-4.959,-4.959,-4.959,-4.959,-4.959,-4.959,-4.959,-4.959,0.0,0.0,0.0,-4.1827,0.0,0.0,0.0,0.0,-4.1075,0.0,0.0,0.0,0.0,0.0,0.0,0.0,0.0,0.0,0.0,0.0,0.0,0.0,0.0,0.0,0.0,0.0,0.0,0.0,0.0,0.0,-4.625,-4.7355,-4.8209,-4.8786,-4.9314,-4.959,-4.9654,-5.1205,-5.2051,-5.2112,-5.373,-5.5269,-5.6736,-5.6736,-5.7608,-5.9099,-5.9099,-5.9099,-5.9099,-5.9099,-5.9099,-5.9099,-5.9099,-5.9099,-5.9099,-5.9099,-5.9099,-5.9099,-5.9099,-5.9099,-5.9099,-5.9099,-5.9099,-5.9099,-5.9099,-5.8026,-5.6792,-5.6736,-5.4477,-5.2051,-5.2051,-5.079,-4.959,-4.959,-4.959,-4.959,-4.959,-4.959,-4.959,-4.959,-4.959,-4.959,-4.959,-4.959,-4.959,-4.959,-4.959,-4.959,-4.959,-4.959,-4.959,-4.959,-4.959,-4.959,-4.959,-4.959,-4.959,-4.959,-4.959,-4.959,-4.959,-4.959,-4.959,-4.959,-4.959,-4.959,-4.959,-4.959,-4.959,-4.959,-4.959,-4.959,0.0,0.0,-4.5689,-4.3514,0.0,0.0,0.0,0.0,0.0,0.0,0.0,0.0,0.0,0.0,0.0,0.0,0.0,0.0,0.0,0.0,0.0,0.0,0.0,0.0,0.0,0.0,0.0,0.0,-4.2886,0.0,0.0,-4.6602,-4.7631,-4.8184,-4.9113,-4.959,-4.959,-5.0142,-5.0436,-5.0436,-5.3126,-5.4149,-5.3703,-5.6849,-5.797,-5.7552,-5.8634,-5.9099,-5.9099,-5.9099,-5.9099,-5.9099,-5.9099,-5.9099,-5.9099,-5.9099,-5.9099,-5.9099,-5.9099,-5.9099,-5.9099,-5.9099,-5.9099,-5.9099,-5.9099,-5.797,-5.648,-5.5444,-5.3643,-5.1741,-5.0664,-5.0014,-4.959,-4.959,-4.959,-4.959,-4.959,-4.959,-4.959,-4.959,-4.959,-4.959,-4.959,-4.959,-4.959,-4.959,-4.959,-4.959,-4.959,-4.959,-4.959,-4.959,-4.959,-4.959,-4.959,-4.959,-4.959,-4.959,-4.959,-4.959,-4.959,-4.959,-4.959,-4.959,-4.959,-4.959,-4.959,-4.959,-4.959,-4.959,-4.959,-4.959,-4.6652,-4.6853,0.0,-4.4869,-4.4392,0.0,-4.1856,0.0,0.0,0.0,0.0,0.0,0.0,0.0,0.0,0.0,0.0,0.0,0.0,-3.7889,0.0,0.0,0.0,0.0,0.0,0.0,-4.0852,-4.1806,-4.2007,0.0,0.0,0.0,-4.6878,-4.7606,-4.8711,-4.9389,-4.959,-4.959,-4.959,-4.959,-5.1705,-5.2482,-5.2086,-5.5791,-5.716,-5.6792,-5.8386,-5.9099,-5.9099,-5.9099,-5.9099,-5.9099,-5.9099,-5.9099,-5.9099,-5.9099,-5.9099,-5.9099,-5.9099,-5.9099,-5.9099,-5.9099,-5.9099,-5.9099,-5.9099,-5.8386,-5.7075,-5.4976,-5.367,-5.2385,-5.0371,-4.9891,-4.9941,-5.0142,-5.0042,-4.9891,-4.9891,-4.9741,-4.959,-4.959,-4.959,-4.9665,-4.9841,-4.9891,-4.9816,-4.9615,-4.959,-4.959,-4.959,-4.959,-4.959,-4.959,-4.959,-4.959,-4.959,-4.959,-4.959,-4.959,-4.959,-4.959,-4.959,-4.959,-4.959,-4.959,-4.959,-4.959,-4.959,-4.959,-4.959,-4.959,-4.959,-4.959]},{"header":{"parameterUnit":"m.s-1","parameterCategory":1,"la1":30.6,"la2":29.2853,"lo1":-89.7004,"lo2":-87.6739,"dy":0.0162,"dx":0.0183,"nx":112,"ny":82,"refTime":"2024-06-14T18:00:00:Z","depth":0,"parameterNumber":3,"parameterNumberName":"V-component_of_WINDS"},"data":[0.0,0.0,0.0,0.0,0.0,0.0,0.0,0.0,0.0,0.0,0.0,0.0,0.0,0.0,0.0,0.0,0.0,0.0,0.0,0.0,0.0,0.0,0.0,0.0,0.0,0.0,0.0,0.0,0.0,0.0,0.0,0.0,0.0,0.0,0.0,0.0,0.0,0.0,0.0,0.0,0.0,0.0,0.0,0.0,0.0,0.0,0.0,0.0,0.0,0.0,0.0,0.0,0.0,0.0,0.0,0.0,0.0,0.0,0.0,0.0,0.0,0.0,0.0,0.0,0.0,0.0,0.0,0.0,0.0,0.0,0.0,0.0,0.0,0.0,0.0,0.0,0.0,0.0,0.0,0.0,0.0,0.0,0.0,0.0,0.0,0.0,0.0,0.0,0.0,0.0,2.8809,3.043,3.2285,3.3418,3.3418,3.2539,3.1094,2.9043,0.0,0.0,0.0,0.0,0.0,0.0,0.0,0.0,0.0,0.0,0.0,0.0,0.0,0.0,0.0,0.0,0.0,0.0,0.0,0.0,0.0,0.0,0.0,0.0,0.0,0.0,0.0,0.0,0.0,0.0,0.0,0.0,0.0,0.0,0.0,0.0,0.0,0.0,0.0,0.0,0.0,0.0,0.0,0.0,0.0,0.0,0.0,0.0,0.0,0.0,0.0,0.0,0.0,0.0,0.0,0.0,0.0,0.0,0.0,0.0,0.0,0.0,0.0,0.0,0.0,0.0,0.0,0.0,0.0,0.0,0.0,0.0,0.0,0.0,0.0,0.0,0.0,0.0,0.0,0.0,0.0,0.0,0.0,0.0,0.0,0.0,0.0,0.0,0.0,0.0,0.0,0.0,0.0,0.0,0.0,0.0,0.0,0.0,0.0,0.0,0.0,0.0,0.0,0.0,2.9,3.207,3.3008,3.3418,3.3418,3.1992,3.0469,2.9004,0.0,0.0,0.0,0.0,0.0,0.0,0.0,0.0,0.0,0.0,0.0,0.0,0.0,0.0,0.0,0.0,0.0,0.0,0.0,0.0,0.0,0.0,0.0,0.0,0.0,0.0,0.0,0.0,0.0,0.0,0.0,0.0,0.0,0.0,0.0,0.0,0.0,0.0,0.0,0.0,0.0,0.0,0.0,0.0,0.0,0.0,0.0,0.0,0.0,0.0,0.0,0.0,0.0,0.0,0.0,0.0,0.0,0.0,0.0,0.0,0.0,0.0,0.0,0.0,0.0,0.0,0.0,0.0,0.0,0.0,0.0,0.0,0.0,0.0,0.0,0.0,0.0,0.0,0.0,0.0,0.0,0.0,0.0,0.0,0.0,0.0,0.0,0.0,0.0,0.0,0.0,0.0,0.0,0.0,0.0,0.0,0.0,0.0,0.0,0.0,0.0,0.0,0.0,2.8223,2.9844,3.2812,3.3301,3.332,3.3105,3.1738,3.0234,2.8672,2.6523,0.0,0.0,0.0,0.0,0.0,0.0,0.0,0.0,0.0,0.0,0.0,0.0,0.0,0.0,0.0,0.0,0.0,0.0,0.0,0.0,0.0,0.0,0.0,0.0,0.0,0.0,0.0,0.0,0.0,0.0,0.0,0.0,0.0,0.0,0.0,0.0,0.0,0.0,0.0,0.0,0.0,0.0,0.0,0.0,0.0,0.0,0.0,0.0,0.0,0.0,0.0,0.0,0.0,0.0,0.0,0.0,0.0,0.0,0.0,0.0,0.0,0.0,0.0,0.0,0.0,0.0,0.0,0.0,0.0,0.0,0.0,0.0,0.0,0.0,0.0,0.0,0.0,0.0,0.0,0.0,0.0,0.0,0.0,0.0,0.0,0.0,0.0,0.0,0.0,0.0,0.0,0.0,0.0,0.0,0.0,0.0,0.0,0.0,0.0,0.0,0.0,0.0,2.9824,3.0781,3.3164,3.3418,3.3242,3.2832,3.1426,2.9883,2.8242,2.5605,0.0,0.0,0.0,0.0,0.0,0.0,0.0,0.0,0.0,0.0,0.0,0.0,0.0,0.0,0.0,0.0,0.0,0.0,0.0,0.0,0.0,0.0,0.0,0.0,0.0,0.0,0.0,0.0,0.0,0.0,0.0,0.0,0.0,0.0,0.0,0.0,0.0,0.0,0.0,0.0,0.0,0.0,0.0,0.0,0.0,0.0,0.0,0.0,0.0,0.0,0.0,0.0,0.0,0.0,0.0,0.0,0.0,0.0,0.0,0.0,0.0,0.0,0.0,0.0,0.0,0.0,0.0,0.0,0.0,0.0,0.0,0.0,0.0,0.0,0.0,0.0,0.0,0.0,0.0,0.0,0.0,0.0,0.0,0.0,0.0,0.0,0.0,0.0,0.0,0.0,0.0,0.0,0.0,0.0,0.0,0.0,0.0,0.0,0.0,0.0,0.0,0.0,2.9824,3.1465,3.3223,3.3418,3.3242,3.2832,3.0879,2.9156,2.7845,2.4949,0.0,0.0,0.0,0.0,0.0,0.0,0.0,0.0,0.0,0.0,0.0,0.0,0.0,0.0,0.0,0.0,0.0,0.0,0.0,0.0,0.0,0.0,0.0,0.0,0.0,0.0,0.0,0.0,0.0,0.0,0.0,0.0,0.0,0.0,0.0,0.0,0.0,0.0,0.0,0.0,0.0,0.0,0.0,0.0,0.0,0.0,0.0,0.0,0.0,0.0,0.0,0.0,0.0,0.0,0.0,0.0,0.0,0.0,0.0,0.0,0.0,0.0,0.0,0.0,0.0,0.0,0.0,0.0,0.0,0.0,0.0,0.0,0.0,0.0,0.0,0.0,0.0,0.0,0.0,0.0,0.0,0.0,0.0,0.0,0.0,0.0,0.0,0.0,0.0,0.0,0.0,0.0,0.0,0.0,0.0,0.0,0.0,0.0,0.0,0.0,0.0,0.0,2.916,3.082,0.0,3.3027,3.2871,3.2441,3.0664,2.8789,2.6992,0.0,0.0,0.0,0.0,0.0,0.0,0.0,0.0,0.0,0.0,0.0,0.0,0.0,0.0,0.0,0.0,0.0,0.0,0.0,0.0,0.0,0.0,0.0,0.0,0.0,0.0,0.0,0.0,0.0,0.0,0.0,0.0,0.0,0.0,0.0,0.0,0.0,0.0,0.0,0.0,0.0,0.0,0.0,0.0,0.0,0.0,0.0,0.0,0.0,0.0,0.0,0.0,0.0,0.0,0.0,0.0,0.0,0.0,0.0,0.0,0.0,0.0,0.0,0.0,0.0,0.0,0.0,0.0,0.0,0.0,0.0,0.0,0.0,0.0,0.0,0.0,0.0,0.0,0.0,0.0,0.0,0.0,0.0,0.0,0.0,0.0,0.0,0.0,0.0,0.0,0.0,0.0,0.0,0.0,0.0,0.0,0.0,0.0,0.0,0.0,0.0,0.0,2.7356,2.9023,3.0703,0.0,3.2793,3.2617,3.2207,3.0332,2.8379,2.6504,0.0,0.0,0.0,0.0,0.0,0.0,0.0,0.0,0.0,0.0,0.0,0.0,0.0,0.0,0.0,0.0,0.0,0.0,0.0,0.0,0.0,0.0,0.0,0.0,0.0,0.0,0.0,0.0,0.0,0.0,0.0,0.0,0.0,0.0,0.0,0.0,0.0,0.0,0.0,0.0,0.0,0.0,0.0,0.0,0.0,0.0,0.0,0.0,0.0,0.0,0.0,0.0,0.0,0.0,0.0,0.0,0.0,0.0,0.0,0.0,0.0,0.0,0.0,0.0,0.0,0.0,0.0,0.0,0.0,0.0,0.0,0.0,0.0,0.0,0.0,0.0,0.0,0.0,0.0,0.0,0.0,0.0,0.0,0.0,0.0,0.0,0.0,0.0,0.0,0.0,0.0,0.0,0.0,0.0,0.0,0.0,0.0,0.0,0.0,0.0,0.0,0.0,2.7434,2.9551,3.1367,3.2637,3.2793,3.2617,3.2187,2.9785,2.7734,0.0,0.0,0.0,0.0,0.0,0.0,0.0,0.0,0.0,0.0,0.0,0.0,0.0,0.0,0.0,0.0,0.0,0.0,0.0,0.0,0.0,0.0,0.0,0.0,0.0,0.0,0.0,0.0,0.0,0.0,0.0,0.0,0.0,0.0,0.0,0.0,0.0,0.0,0.0,0.0,0.0,0.0,0.0,0.0,0.0,0.0,0.0,0.0,0.0,0.0,0.0,0.0,0.0,0.0,0.0,0.0,0.0,0.0,0.0,0.0,0.0,0.0,0.0,0.0,0.0,0.0,0.0,0.0,0.0,0.0,0.0,0.0,0.0,0.0,0.0,0.0,0.0,0.0,0.0,0.0,0.0,0.0,0.0,0.0,0.0,0.0,0.0,0.0,0.0,0.0,0.0,0.0,0.0,0.0,0.0,0.0,0.0,0.0,0.0,0.0,0.0,0.0,0.0,2.6934,2.9375,3.1152,3.1816,3.2168,3.207,3.1328,2.9434,2.748,2.5586,0.0,0.0,0.0,0.0,0.0,0.0,0.0,0.0,0.0,0.0,0.0,0.0,0.0,0.0,0.0,0.0,0.0,0.0,0.0,0.0,0.0,0.0,0.0,0.0,0.0,0.0,0.0,0.0,0.0,0.0,0.0,0.0,0.0,0.0,0.0,0.0,0.0,0.0,0.0,0.0,0.0,0.0,0.0,0.0,0.0,0.0,0.0,0.0,0.0,0.0,0.0,0.0,0.0,0.0,0.0,0.0,0.0,0.0,0.0,0.0,0.0,0.0,0.0,0.0,0.0,0.0,0.0,0.0,0.0,0.0,0.0,0.0,0.0,0.0,0.0,0.0,0.0,0.0,0.0,0.0,0.0,0.0,0.0,0.0,0.0,0.0,0.0,0.0,0.0,0.0,0.0,0.0,0.0,0.0,0.0,0.0,0.0,0.0,0.0,0.0,0.0,0.0,2.6758,2.9121,3.084,3.1445,3.1758,3.1699,3.1191,2.9551,2.7695,2.5723,0.0,0.0,0.0,0.0,0.0,0.0,0.0,0.0,0.0,0.0,0.0,0.0,0.0,0.0,0.0,0.0,0.0,0.0,0.0,0.0,0.0,0.0,0.0,0.0,0.0,0.0,0.0,0.0,0.0,0.0,0.0,0.0,0.0,0.0,0.0,0.0,0.0,0.0,0.0,0.0,0.0,0.0,0.0,0.0,0.0,0.0,0.0,0.0,0.0,0.0,0.0,0.0,0.0,0.0,0.0,0.0,0.0,0.0,0.0,0.0,0.0,0.0,0.0,0.0,0.0,0.0,0.0,0.0,0.0,0.0,0.0,0.0,0.0,0.0,0.0,0.0,0.0,0.0,0.0,0.0,0.0,0.0,0.0,0.0,0.0,0.0,0.0,0.0,0.0,0.0,0.0,0.0,0.0,0.0,0.0,0.0,0.0,0.0,0.0,0.0,0.0,0.0,2.6836,2.8906,3.0527,3.1367,3.1504,3.1484,3.1406,2.9883,2.8184,2.6504,0.0,0.0,0.0,0.0,0.0,0.0,0.0,0.0,0.0,0.0,0.0,0.0,0.0,0.0,0.0,0.0,0.0,0.0,0.0,0.0,0.0,0.0,0.0,0.0,0.0,0.0,0.0,0.0,0.0,0.0,0.0,0.0,0.0,0.0,0.0,0.0,0.0,0.0,0.0,0.0,0.0,0.0,0.0,0.0,0.0,0.0,0.0,0.0,0.0,0.0,0.0,0.0,0.0,0.0,0.0,0.0,0.0,0.0,0.0,0.0,3.6659,3.5554,0.0,0.0,0.0,0.0,0.0,0.0,0.0,0.0,0.0,0.0,0.0,0.0,0.0,0.0,0.0,0.0,0.0,0.0,0.0,0.0,0.0,0.0,0.0,0.0,0.0,0.0,0.0,0.0,0.0,0.0,0.0,0.0,0.0,0.0,0.0,0.0,0.0,0.0,0.0,0.0,2.7226,2.9082,3.041,3.0957,3.1328,3.123,3.0527,2.9531,2.8184,2.6504,2.459,0.0,0.0,0.0,0.0,0.0,0.0,0.0,0.0,0.0,0.0,0.0,0.0,0.0,0.0,0.0,0.0,0.0,0.0,0.0,0.0,0.0,0.0,0.0,0.0,0.0,0.0,0.0,0.0,0.0,0.0,0.0,0.0,0.0,0.0,0.0,0.0,0.0,0.0,0.0,0.0,0.0,0.0,0.0,0.0,0.0,0.0,0.0,0.0,0.0,0.0,0.0,0.0,0.0,0.0,0.0,0.0,0.0,0.0,0.0,3.917,3.7939,0.0,0.0,0.0,0.0,0.0,0.0,0.0,0.0,0.0,0.0,0.0,0.0,0.0,0.0,0.0,0.0,0.0,0.0,0.0,0.0,0.0,0.0,0.0,0.0,0.0,0.0,0.0,0.0,0.0,0.0,0.0,0.0,0.0,0.0,0.0,0.0,0.0,0.0,0.0,0.0,2.7434,2.8965,3.0156,3.082,3.1094,3.1035,3.0566,2.9726,2.8672,2.7383,2.5488,0.0,0.0,0.0,0.0,0.0,0.0,0.0,0.0,0.0,0.0,0.0,0.0,0.0,0.0,0.0,0.0,0.0,0.0,0.0,0.0,0.0,0.0,0.0,0.0,0.0,0.0,0.0,0.0,0.0,0.0,0.0,0.0,0.0,0.0,0.0,0.0,0.0,0.0,0.0,0.0,0.0,0.0,0.0,0.0,0.0,0.0,0.0,0.0,0.0,0.0,0.0,0.0,0.0,4.3865,4.4267,4.4493,4.4041,4.4041,4.4267,4.1982,4.0978,4.0827,3.9346,0.0,0.0,0.0,0.0,0.0,0.0,0.0,0.0,0.0,0.0,0.0,0.0,0.0,0.0,0.0,0.0,0.0,0.0,0.0,0.0,0.0,0.0,0.0,0.0,3.8542,3.8266,3.4474,0.0,0.0,0.0,0.0,0.0,0.0,0.0,0.0,0.0,0.0,0.0,2.7611,2.8941,2.998,3.0801,3.0898,3.0898,3.0898,3.0305,2.9604,2.8813,2.7082,2.627,0.0,0.0,0.0,0.0,0.0,0.0,0.0,0.0,0.0,0.0,0.0,0.0,0.0,0.0,0.0,0.0,0.0,0.0,0.0,0.0,0.0,0.0,0.0,0.0,0.0,0.0,0.0,0.0,0.0,0.0,0.0,0.0,3.6408,3.7538,0.0,0.0,0.0,0.0,0.0,0.0,0.0,0.0,0.0,0.0,0.0,0.0,0.0,4.4518,4.5422,4.6577,4.7405,4.7908,4.846,4.8259,4.7355,4.728,4.7054,4.6617,4.6301,0.0,4.261,4.1961,0.0,0.0,0.0,0.0,0.0,0.0,0.0,0.0,0.0,0.0,0.0,0.0,0.0,0.0,0.0,0.0,0.0,0.0,0.0,0.0,0.0,0.0,4.1207,4.0275,4.0551,4.0674,0.0,3.7066,3.4645,3.3321,3.1162,0.0,0.0,0.0,0.0,0.0,0.0,0.0,2.8047,2.9316,3.0312,3.084,3.0898,3.0898,3.0898,3.1167,3.1158,3.0639,3.0392,3.0276,3.0451,2.914,0.0,0.0,0.0,0.0,0.0,0.0,0.0,0.0,0.0,0.0,0.0,0.0,0.0,0.0,0.0,0.0,0.0,0.0,0.0,0.0,0.0,0.0,0.0,0.0,0.0,0.0,0.0,0.0,0.0,3.6835,3.8542,3.932,3.927,3.8919,0.0,0.0,0.0,0.0,0.0,0.0,0.0,0.0,0.0,4.5372,4.6401,4.733,4.8159,4.8937,4.9439,4.9715,5.0268,5.0293,4.9816,4.9816,4.9665,4.9439,4.9113,4.8109,4.6527,4.4418,4.261,4.1028,0.0,0.0,0.0,0.0,3.912,3.8843,4.0651,4.0551,3.9573,3.8894,0.0,0.0,0.0,0.0,0.0,0.0,0.0,0.0,0.0,0.0,4.1656,4.148,4.1856,4.2183,4.1957,4.0501,3.8567,0.0,3.5055,3.3353,2.9875,0.0,0.0,0.0,0.0,2.8369,2.8623,2.9551,3.0371,3.084,3.0898,3.0781,3.0527,3.1172,3.1449,3.1042,3.1249,3.1725,3.2462,3.1032,2.9941,0.0,0.0,0.0,0.0,0.0,0.0,0.0,0.0,0.0,0.0,0.0,0.0,0.0,0.0,0.0,0.0,0.0,0.0,0.0,0.0,0.0,0.0,0.0,0.0,0.0,0.0,0.0,0.0,3.912,4.0727,4.1304,4.1982,4.1907,0.0,0.0,0.0,0.0,0.0,0.0,4.5849,4.7355,4.8435,4.8962,4.954,5.0042,5.0444,5.0845,5.1071,5.1071,5.1498,5.1624,5.1498,5.1498,5.1423,5.1247,5.067,5.0193,4.959,4.6652,4.4819,4.3689,4.2158,4.0978,4.0275,4.1505,4.1455,4.1053,4.3263,4.3388,4.2514,4.1781,4.0902,3.9772,3.7965,0.0,0.0,0.0,0.0,3.9622,4.0174,4.1028,4.1856,4.2313,4.274,4.2986,4.2986,4.2715,4.1609,0.0,3.8341,3.712,3.2916,0.0,0.0,0.0,0.0,3.0672,3.0248,3.0959,3.1649,3.2015,3.2055,3.1795,3.1329,3.2108,3.25,3.2023,3.2587,3.3168,3.3765,3.2726,3.1864,3.1411,0.0,0.0,0.0,0.0,0.0,0.0,0.0,0.0,0.0,0.0,0.0,0.0,0.0,0.0,0.0,0.0,0.0,0.0,0.0,0.0,0.0,0.0,0.0,0.0,0.0,0.0,0.0,0.0,0.0,4.3564,4.4618,0.0,0.0,0.0,0.0,4.5196,4.6778,4.8184,4.9289,5.0444,5.1322,5.1875,5.2427,5.2729,5.2754,5.2779,5.2804,5.2804,5.2829,5.2578,5.2076,5.2076,5.1774,5.1247,5.067,5.0393,5.0243,4.846,4.7104,4.6024,4.4869,4.4066,4.3564,4.3639,4.3639,4.3689,4.4342,4.4192,4.379,4.4267,4.293,4.1075,4.0501,3.9597,0.0,0.0,4.035,4.1354,4.1936,4.2514,4.2911,4.2936,4.2961,4.2986,4.2986,4.2961,4.2585,0.0,4.03,3.8837,3.6367,0.0,3.4592,3.2669,3.318,3.3802,3.3742,3.4508,3.5046,3.5068,3.5068,3.4868,3.4247,3.505,3.5388,3.4819,3.5672,3.5715,3.4665,3.4585,3.3533,3.1436,3.0281,0.0,0.0,0.0,0.0,0.0,0.0,0.0,0.0,0.0,0.0,0.0,0.0,0.0,0.0,0.0,0.0,0.0,0.0,0.0,0.0,0.0,0.0,0.0,0.0,0.0,0.0,0.0,0.0,4.6376,4.8083,0.0,4.7355,4.7908,4.8586,4.9163,5.0419,5.1473,5.2201,5.298,5.3482,5.3683,5.3884,5.3984,5.3984,5.3984,5.3984,5.3984,5.3984,5.3683,5.313,5.313,5.2854,5.2302,5.1749,5.1297,5.0896,4.9916,4.8887,4.7807,4.7029,4.6426,4.5949,4.5949,4.5723,4.5447,4.5648,4.5347,4.4869,4.4669,4.384,4.2886,4.2685,4.2108,4.1555,4.1756,4.2082,4.2434,4.2635,4.2891,4.2986,4.2986,4.2986,4.2986,4.2986,4.2986,4.2861,4.2459,4.1781,4.0696,3.8807,3.8284,3.7409,3.5152,3.5367,3.5392,3.4493,3.4917,3.5288,3.5288,3.5288,3.4952,3.4092,3.4773,3.4952,3.4074,3.4809,3.5127,3.4751,3.4374,3.3822,3.3018,3.1562,2.9804,0.0,0.0,0.0,0.0,0.0,0.0,0.0,0.0,0.0,0.0,0.0,0.0,0.0,0.0,0.0,0.0,0.0,0.0,0.0,0.0,0.0,0.0,0.0,0.0,0.0,4.5874,4.8159,4.8686,5.0745,5.1599,5.0293,5.0996,5.1674,5.2076,5.313,5.3909,5.426,5.4813,5.5114,5.5114,5.4938,5.4838,5.4838,5.4662,5.4561,5.4561,5.4561,5.426,5.3708,5.3708,5.3406,5.2904,5.2352,5.19,5.1523,5.0946,5.0167,4.9264,4.8485,4.7983,4.7657,4.7456,4.7154,4.6828,4.6652,4.6225,4.5673,4.5095,4.4669,4.4292,4.3915,4.3539,4.3212,4.3037,4.2986,4.2986,4.2986,4.2986,4.2986,4.2986,4.2986,4.2986,4.2986,4.2986,4.2986,4.2986,4.274,4.2087,4.0752,4.0526,3.9937,3.8063,3.7931,3.7661,3.6737,3.6717,3.678,3.678,3.678,3.636,3.531,3.5532,3.538,3.4533,3.4644,3.468,3.468,3.4198,3.3796,3.3621,3.1989,3.0507,2.9227,0.0,0.0,0.0,0.0,0.0,0.0,0.0,0.0,0.0,0.0,0.0,0.0,0.0,0.0,0.0,0.0,0.0,0.0,0.0,0.0,0.0,0.0,0.0,4.6301,4.8309,4.9916,5.0469,5.2452,5.3155,5.1599,5.2854,5.3783,5.3783,5.4787,5.5415,5.5415,5.5917,5.6219,5.6219,5.5691,5.5415,5.5415,5.4888,5.4612,5.4612,5.4612,5.431,5.3758,5.3733,5.3432,5.2929,5.2377,5.2126,5.2076,5.1523,5.0946,5.0318,4.9238,4.8812,4.8736,4.8159,4.7908,4.7807,4.7305,4.6778,4.6225,4.5673,4.5497,4.5271,4.4166,4.3815,4.3689,4.3137,4.2986,4.2986,4.2986,4.2986,4.2986,4.2986,4.2986,4.2986,4.2986,4.2986,4.2986,4.2986,4.2986,4.2811,4.2313,4.2213,4.1982,4.1401,4.0902,0.0,4.0526,4.0049,3.9722,3.9697,3.9697,3.9245,3.8115,3.7513,3.6935,3.643,3.5303,3.47,3.47,3.4198,3.3646,3.3162,3.1512,3.0407,2.9854,0.0,0.0,0.0,0.0,0.0,0.0,0.0,0.0,0.0,0.0,0.0,0.0,0.0,0.0,0.0,0.0,0.0,0.0,0.0,0.0,0.0,4.6225,4.7908,4.8083,5.067,5.2779,5.3356,5.4662,5.534,5.4913,5.5265,5.5516,5.5516,5.5817,5.5993,5.5993,5.6118,5.6219,5.6219,5.6068,5.5993,5.5993,5.5842,5.5767,5.5767,5.5767,5.5465,5.4913,5.4511,5.4009,5.3457,5.2929,5.2477,5.2101,5.195,5.1297,5.0393,5.0092,4.9715,4.9289,4.8736,4.8033,4.733,4.7118,4.6778,4.6276,4.6125,4.5824,4.5347,4.4618,4.4116,4.3689,4.3137,4.2986,4.2986,4.2986,4.2986,4.2986,4.2986,4.2986,4.2986,4.2986,4.2986,4.2986,4.2986,4.2986,4.2936,4.2841,4.2464,4.2162,4.1957,4.1455,0.0,4.0576,4.0375,4.0149,3.9747,3.9697,3.9396,3.8693,3.7739,3.6784,3.583,3.4726,3.4123,3.4123,3.3972,3.3822,3.3671,3.2416,3.1512,0.0,0.0,0.0,0.0,0.0,0.0,0.0,0.0,0.0,0.0,0.0,0.0,0.0,0.0,0.0,0.0,0.0,0.0,0.0,0.0,0.0,0.0,4.9063,5.067,5.1147,5.2854,5.4361,5.5164,5.5817,5.6219,5.6219,5.6219,5.6219,5.6219,5.6219,5.6219,5.6219,5.6219,5.6219,5.6219,5.6219,5.6219,5.6219,5.6219,5.6219,5.6219,5.6219,5.5917,5.539,5.5064,5.4587,5.4034,5.3482,5.308,5.2754,5.2528,5.1925,0.0,0.0,0.0,0.0,0.0,4.841,4.7456,4.7456,4.6954,4.6301,4.6301,4.61,4.5673,4.4869,4.4392,4.3991,4.3187,4.2986,4.2986,4.2986,4.2986,4.2986,4.2986,4.2986,4.2986,4.2986,4.2986,4.2986,4.2986,4.2986,0.0,4.2986,4.271,4.2564,4.2564,4.2032,4.148,4.0927,4.0651,4.03,3.9747,3.9697,3.9471,3.8969,3.7839,0.0,0.0,0.0,3.4248,3.4248,3.4248,0.0,0.0,0.0,0.0,0.0,0.0,0.0,0.0,3.2717,3.2943,0.0,0.0,0.0,0.0,0.0,0.0,0.0,0.0,0.0,0.0,0.0,0.0,0.0,0.0,0.0,0.0,5.1749,5.3507,5.4587,5.4762,5.5114,5.6093,5.6219,5.6219,5.6219,5.6219,5.6219,5.6219,5.6219,5.6219,5.6219,5.6219,0.0,0.0,0.0,5.6219,5.6219,5.6219,5.6219,5.6219,5.6219,5.5968,5.5491,5.5415,5.5114,5.4612,5.3984,5.3708,5.3658,5.313,5.2578,5.19,5.082,5.0067,4.959,4.959,4.8912,4.7983,4.7933,0.0,0.0,4.6326,4.6301,4.61,4.5045,4.4669,4.4418,4.3363,4.3037,4.2986,4.2986,4.2986,4.2986,4.2986,4.2986,4.2986,4.2986,4.2986,4.2986,4.2986,4.2986,4.2986,4.2986,4.2986,4.2986,4.2986,4.2615,4.2032,4.1376,4.0849,4.0375,3.9747,0.0,0.0,3.9045,3.799,3.7337,3.7287,3.578,3.4876,3.4781,3.4876,3.4901,3.4901,3.4901,3.5177,3.5683,3.6207,3.6531,3.6556,3.4595,3.4399,0.0,0.0,0.0,0.0,0.0,0.0,0.0,0.0,0.0,0.0,0.0,0.0,0.0,0.0,0.0,5.1875,5.3381,5.4637,5.5742,5.5892,5.5968,5.6194,5.6219,5.6219,5.6219,5.6219,5.6219,5.6219,5.6219,5.6219,5.6219,5.6219,5.6219,5.6219,5.6219,5.6219,5.6219,5.6219,5.6219,5.6219,0.0,0.0,5.6043,5.5591,5.534,5.5164,5.416,5.3708,5.3658,5.313,5.2352,5.1373,5.0695,5.0067,4.959,4.959,4.9163,4.8535,4.8083,4.7506,4.6842,4.6451,4.6301,4.6175,4.5522,4.4995,0.0,4.384,4.3313,4.2986,4.2986,4.2986,4.2986,4.2986,4.2986,4.2986,4.2986,4.2986,4.2986,4.2986,4.2986,4.2986,4.2986,4.2986,4.2986,4.2986,4.2886,4.2459,4.1401,4.12,4.0802,3.9798,3.9697,3.9647,3.9546,3.8919,3.8341,3.7889,3.6734,3.5881,3.5357,3.5805,3.6078,3.6078,3.6078,3.6355,3.686,3.6985,3.7262,3.7688,3.7236,3.6985,0.0,0.0,0.0,0.0,0.0,0.0,0.0,0.0,0.0,0.0,0.0,4.8544,4.9831,0.0,5.1574,5.3808,5.4612,5.5265,5.6093,5.6219,5.6219,5.6219,5.6219,5.6219,5.6219,5.6219,5.6219,5.6219,5.6219,5.6219,5.6219,5.6219,5.6219,5.6219,5.6219,5.6219,5.6219,5.6219,5.6219,5.6219,5.6219,5.6219,5.6194,5.5917,5.5792,5.5742,5.4913,5.4386,5.4084,5.3256,5.2452,5.1674,5.1373,5.0569,4.959,4.959,4.9238,4.8736,4.8435,4.7807,4.7079,4.6803,4.6527,4.62,4.5648,4.507,4.4518,4.3966,4.3413,4.2986,4.2986,4.2986,4.2986,4.2986,4.2986,4.2986,4.2986,4.2986,4.2986,4.2986,4.2986,4.2986,4.2986,4.2986,4.2986,4.2986,4.2986,4.2685,4.1856,4.1505,4.0974,4.0199,3.9848,3.9697,3.9697,3.9195,3.8617,3.804,3.7513,3.7086,3.6737,3.7036,3.7186,3.7186,3.7186,3.7312,3.7588,3.7889,3.8165,3.8442,3.8718,3.8542,0.0,0.0,0.0,0.0,0.0,0.0,0.0,4.8858,4.9828,4.8996,4.9793,5.106,5.2329,5.2678,5.3356,5.5239,5.5541,5.5691,5.6143,5.6219,5.6219,5.6219,5.6219,5.6219,5.6219,5.6219,5.6219,5.6219,5.6219,5.6219,5.6219,5.6219,5.6219,5.6219,5.6219,5.6219,5.6219,5.6219,5.6219,5.6219,5.6219,5.6219,5.6219,5.6219,5.6219,5.6168,5.5516,5.4913,5.4336,5.3331,5.2603,5.2101,5.2101,5.1147,4.9766,4.9766,4.9414,4.8912,4.8686,4.8033,4.7255,4.6993,4.6677,4.6225,4.5773,4.5171,4.4543,4.4091,4.3489,4.2986,4.2986,4.2986,4.2986,4.2986,4.2986,4.2986,4.2986,4.2986,4.2986,4.2986,4.2986,4.2986,4.2986,4.2986,4.2986,4.2986,4.2986,4.2841,4.2288,4.1781,4.1254,4.0576,4.0124,3.9798,3.9697,3.927,3.8793,3.8216,3.8165,3.8115,3.8015,3.8015,3.8065,3.8165,3.8165,3.8241,3.8341,3.8793,3.907,3.9095,3.9597,3.9572,4.6681,4.6432,4.6471,4.793,4.7904,4.8002,0.0,5.0701,5.1397,5.1601,5.248,5.3514,5.4205,5.4687,5.5265,5.5993,5.6118,5.6143,5.6194,5.6219,5.6219,5.6219,5.6219,5.6219,5.6219,5.6219,5.6219,5.6219,5.6219,5.6219,5.6219,5.6219,5.6219,5.6219,5.6219,5.6219,5.6219,5.6219,5.6219,5.6219,5.6219,5.6219,5.6219,5.6219,5.6219,5.6143,5.5114,5.4336,5.3758,5.3181,5.2603,5.2101,5.2101,5.1373,5.0318,5.0318,4.9967,4.9364,4.836,4.7933,4.7657,4.6702,4.6351,4.6301,4.6225,4.5472,4.4618,4.4543,4.379,4.2986,4.2986,4.2986,4.2986,4.2986,4.2986,4.2986,4.2986,4.2986,4.2986,4.2986,4.2986,4.2986,4.2986,4.2986,4.2986,4.2986,4.2986,4.2841,4.2288,4.2162,4.1681,4.0626,4.045,4.0224,3.9747,3.9647,3.9371,3.8818,3.8768,3.8542,3.8015,3.8015,3.8241,3.8768,3.8768,3.9019,3.9496,3.9572,3.9597,3.9622,4.0174,4.0124,4.9762,4.9073,4.8371,4.9776,5.0056,5.0274,5.1353,5.2374,5.3244,5.3525,5.416,5.4863,5.5415,5.5717,5.5942,5.6168,5.6219,5.6219,5.6219,5.6219,5.6093,5.5767,5.6018,5.6219,5.6219,5.6219,5.6219,5.6219,5.6219,5.6219,5.6219,5.6219,5.6219,5.6219,5.6219,5.6219,5.6219,5.6219,5.6219,5.6219,5.6219,5.6219,5.6219,5.6219,5.6043,5.5691,5.4913,5.4235,5.3658,5.313,5.2779,5.2553,5.2226,5.1624,5.087,5.0544,5.0067,4.949,4.8686,4.8184,4.7782,4.7029,4.6577,4.6301,4.6301,4.5522,4.4618,4.4618,4.384,4.2986,4.2986,4.2986,4.2986,4.2986,4.2986,4.2986,4.2986,4.2986,4.2986,4.2986,4.2986,4.2986,4.2986,4.2986,4.2986,4.2986,4.2986,4.2886,4.266,4.2414,4.1785,4.0626,4.0526,4.03,3.9747,3.9697,3.9597,3.9371,3.9346,3.9245,3.8994,3.8994,3.9094,3.9346,3.9346,3.9471,3.9697,3.9697,3.9697,3.9697,4.0249,4.04,5.1519,5.0803,5.0213,5.1207,5.1607,5.1765,5.2271,5.3412,5.4386,5.4365,5.4888,5.5516,5.5917,5.5993,5.6043,5.6194,5.6219,5.6219,5.6219,5.6068,5.5892,5.5641,5.5842,5.6043,5.6194,5.6219,5.6219,5.6219,5.6219,5.6219,5.6219,5.6219,5.6219,5.6219,5.6219,5.6219,5.6219,5.6219,5.6219,5.6219,5.6219,5.6219,5.6219,5.6219,5.5917,5.5365,5.4813,5.4235,5.3658,5.313,5.2929,5.2879,5.2327,5.1774,5.1222,5.0619,5.0067,4.9515,4.8962,4.8385,4.7832,4.7244,4.6753,4.6301,4.6301,4.5522,4.4618,4.4618,4.384,4.2986,4.2986,4.2986,4.2986,4.2986,4.2986,4.2986,4.2986,4.2986,4.2986,4.2986,4.2986,4.2986,4.2986,4.2986,4.2986,4.2986,4.2986,4.2986,4.2986,4.2539,4.1835,4.0852,4.0601,4.03,3.9747,3.9697,3.9697,3.9697,3.9697,3.9697,3.9697,3.9697,3.9697,3.9697,3.9697,3.9697,3.9697,3.9697,3.9772,3.9923,4.0475,4.0827,5.1193,5.1033,5.141,5.1636,5.1486,5.1439,5.1993,5.3375,5.4406,5.3833,5.4612,5.539,5.5415,5.5415,5.5591,5.6118,5.6219,5.6219,5.6219,5.5742,5.5591,5.6118,5.5717,5.5616,5.6168,5.6219,5.6219,5.6219,5.6219,5.6219,5.6219,5.6219,5.6219,5.6219,5.6219,5.6219,5.6219,5.6219,5.6219,5.6219,5.6219,5.6219,5.6219,5.6219,5.5917,5.5365,5.4813,5.4235,5.3658,5.313,5.2929,5.2879,5.2327,5.1774,5.1222,5.0619,5.0067,4.9515,4.8962,4.8385,4.7832,4.7244,4.6753,4.6301,4.6301,4.5522,4.4618,4.4618,4.384,4.2986,4.2986,4.2986,4.2986,4.2986,4.2986,4.2986,4.2986,4.2986,4.2986,4.2986,4.2986,4.2986,4.2986,4.2986,4.2986,4.2986,4.2986,4.2986,4.2986,4.2539,4.1932,4.1326,4.0774,4.03,3.9747,3.9697,3.9697,3.9697,3.9697,3.9697,3.9697,3.9697,3.9697,3.9697,3.9697,3.9697,3.9697,3.9697,3.9973,4.0501,4.1,4.1605,5.1787,5.1707,5.1689,5.1909,5.1924,5.2151,5.3457,5.3884,5.3934,5.3733,5.4009,5.416,5.3808,5.4034,5.4461,5.5013,5.544,5.5792,5.6168,5.6043,5.5867,5.5691,5.5817,5.5867,5.5691,5.5993,5.6219,5.6219,5.6219,5.6219,5.6219,5.6219,5.6219,5.6219,5.6219,5.6219,5.6219,5.6219,5.6219,5.6219,5.6219,5.6219,5.6219,5.6219,5.5917,5.5365,5.4813,5.4235,5.3658,5.313,5.2929,5.2829,5.1925,5.1448,5.1172,5.0218,4.9741,4.9515,4.8962,4.8385,4.7832,4.7244,4.6753,4.6301,4.6301,4.5522,4.4618,4.4618,4.384,4.3062,4.3438,4.3263,4.3062,4.3438,4.3237,4.2986,4.2986,4.2986,4.2986,4.2986,4.2986,4.2986,4.2986,4.2986,4.2986,4.2986,4.2986,4.2986,4.2986,4.2811,4.2484,4.1932,4.1404,4.0774,4.03,3.9898,3.9697,3.9697,3.9697,3.9697,3.9697,3.9697,3.9697,3.9697,3.9697,3.9697,3.9697,3.9697,3.9973,4.0526,4.1025,4.163,5.2533,5.2508,5.2308,5.2565,5.2678,5.2854,5.3532,5.3557,5.3256,5.2653,5.2528,5.2427,5.2101,5.2151,5.2678,5.4034,5.4561,5.5114,5.6068,5.6043,5.5867,5.5691,5.5817,5.5867,5.5691,5.6018,5.6219,5.6219,5.6219,5.6219,5.6219,5.6219,5.6219,5.6219,5.6219,5.6219,5.6219,5.6219,5.6219,5.6219,5.6219,5.6219,5.6219,5.6219,5.5792,5.5064,5.4712,5.4135,5.3406,5.3055,5.2929,5.2829,5.1699,5.1272,5.1147,5.0017,4.959,4.954,4.9188,4.8686,4.8134,4.7581,4.7054,4.6577,4.6376,4.5673,4.4945,4.4945,4.4141,4.3363,4.3714,4.3388,4.3062,4.3413,4.3237,4.2986,4.2986,4.2986,4.2986,4.2986,4.2986,4.2986,4.2986,4.2986,4.2986,4.2986,4.2986,4.2986,4.2986,4.2986,4.276,4.2263,4.1831,4.1404,4.0852,4.03,3.9998,3.9998,3.9798,3.9697,3.9697,3.9697,3.9697,3.9697,3.9697,3.9798,3.9998,3.9998,4.0375,4.1103,4.1455,4.1932,5.3405,5.3386,5.34,5.3677,5.3733,5.3432,5.2377,5.2477,5.2327,5.067,5.0293,5.0243,5.0218,4.9866,5.0469,5.313,5.3658,5.431,5.5968,5.5767,5.5616,5.6143,5.5742,5.5641,5.6168,5.6219,5.6219,5.6219,0.0,5.6219,5.6219,5.6219,5.6219,5.6219,5.6219,5.6219,5.6219,5.6219,5.6219,5.6219,5.6219,5.6219,5.6219,5.6219,5.5641,5.4637,5.4587,5.3984,5.3005,5.2955,5.2929,5.2829,5.1699,5.1272,5.1147,5.0017,4.959,4.959,4.959,4.9238,4.8686,4.8109,4.7556,4.7029,4.6476,4.5924,4.5497,4.5497,4.4694,4.384,4.384,4.3438,4.3011,4.3011,4.2986,4.2986,4.2986,4.2986,4.2986,4.2986,4.2986,4.2986,4.2986,4.2986,4.2986,4.2986,4.2986,4.2986,4.2986,4.2986,4.2841,4.2313,4.2238,4.1957,4.1376,4.0877,4.0551,4.0551,4.0049,3.9747,3.9747,3.9697,3.9697,3.9697,3.9722,3.9998,4.0526,4.0551,4.1103,4.2213,4.2213,4.2514,5.3787,5.417,5.4271,5.4376,5.4009,5.3532,5.2879,5.185,5.0695,4.9439,4.8535,4.7832,4.7431,4.8586,5.0092,5.1649,5.3281,5.4787,5.6043,5.6093,5.6068,5.6194,5.6093,5.6068,5.6194,5.6219,5.6219,5.6219,5.6219,5.6219,5.6219,5.6219,5.6219,5.6219,5.6219,5.6219,5.6219,5.6219,5.6219,5.6219,5.6219,5.6219,5.6219,5.6219,5.6068,5.5742,5.4913,5.4411,5.4084,5.3256,5.2929,5.2829,5.1699,5.1272,5.1147,5.0017,4.959,4.959,4.959,4.9238,4.8686,4.8109,4.7556,4.7029,4.6476,4.5924,4.5497,4.5497,4.497,4.4418,4.4418,4.4016,4.3589,4.3589,4.3263,4.2986,4.2986,4.2986,4.2986,4.2986,4.2986,4.2986,4.2986,4.2986,4.2986,4.2986,4.2986,4.2986,4.2986,4.2986,4.2911,4.2841,4.2464,4.2162,4.1957,4.1455,4.1075,4.1075,4.0601,4.03,4.03,3.9923,3.9697,3.9697,4.0099,4.0375,4.0526,4.0874,4.148,4.2213,4.2213,4.2514,5.4479,5.4861,5.4863,5.4637,5.4135,5.3445,5.2578,5.1472,5.0304,4.9385,4.7988,4.6821,4.6513,4.7177,4.8385,5.0243,5.2201,5.4034,5.5616,5.6068,5.6219,5.6219,5.6219,5.6219,5.6219,5.6219,5.6219,5.6219,5.6219,5.6219,5.6219,5.6219,5.6219,5.6219,5.6219,5.6219,5.6219,5.6219,5.6219,5.6219,5.6219,5.6219,5.6219,5.6219,5.6068,5.5792,0.0,5.4411,5.4135,5.3281,5.2929,5.2829,5.1699,5.1272,5.1147,5.0017,4.959,4.959,4.959,4.9389,4.8987,4.8184,4.7707,4.733,4.6552,4.61,4.5849,4.5849,4.5447,4.4995,4.4995,4.4593,4.4091,4.3865,4.3564,4.3263,4.3037,4.2986,4.2986,4.2986,4.2986,4.2986,4.2986,4.2986,4.2986,4.2986,4.2986,4.2986,4.2986,4.2986,4.2986,4.2986,4.2766,4.2564,4.2564,4.2007,4.1681,4.1681,4.1178,4.0824,4.0824,4.0576,4.0425,4.0425,4.0727,4.1003,4.1229,4.1555,4.1982,4.2564,4.2564,4.274,5.5138,5.539,5.534,5.4712,5.4084,5.3291,5.2007,5.1023,5.0155,4.9473,4.7754,4.6365,4.6365,4.5879,4.6401,4.9138,5.1021,5.2904,5.5164,5.5917,5.6219,5.6219,5.6219,5.6219,5.6219,5.6219,5.6219,5.6219,5.6219,5.6219,5.6219,5.6219,5.6219,5.6219,5.6219,5.6219,5.6219,5.6219,5.6219,5.6219,5.6219,5.6219,5.6219,5.6219,5.5942,5.5465,5.4838,5.4285,5.3758,5.3181,5.2929,5.2829,5.1699,5.1272,5.1147,5.0017,4.959,4.959,4.959,4.959,4.9414,4.8284,4.7908,4.7707,4.6627,4.6301,4.6301,4.6301,4.5974,4.5573,4.5497,4.5121,4.4568,4.394,4.379,4.3639,4.3087,4.2986,4.2986,4.2986,4.2986,4.2986,4.2986,4.2986,4.2986,4.2986,4.2986,4.2986,4.2986,4.2986,4.2986,4.2986,4.2986,4.2986,4.2986,4.259,4.2313,4.2313,4.1756,4.1401,4.1401,4.1326,4.1275,4.1275,4.1351,4.1681,4.2213,4.2288,4.2564,4.2986,4.2986,4.2986,5.4532,5.5365,5.5817,5.4813,5.3808,5.2767,5.1903,4.979,4.7986,4.8135,4.6222,4.4519,4.4519,4.5084,4.6401,4.9138,5.1021,5.303,5.5691,5.6143,5.6219,5.6219,5.6219,5.6219,5.6219,5.6219,5.6219,5.6219,5.6219,5.6219,5.6219,5.6219,5.6219,5.6219,5.6219,5.6219,5.6219,5.6219,5.6219,5.6219,5.6219,5.6219,5.6219,5.6219,5.6168,5.6018,5.5013,0.0,5.4336,5.3331,5.2929,5.2829,5.1699,5.1272,5.1147,5.0017,4.959,4.959,4.959,4.959,4.9414,4.8284,4.7908,4.7707,4.6627,4.6301,4.6301,4.6301,4.625,4.6075,4.5598,4.5422,4.507,4.4041,4.379,4.3639,4.3087,4.2986,4.2986,4.2986,4.2986,4.2986,4.2986,4.2986,4.2986,4.2986,4.2986,4.2986,4.2986,4.2986,4.2986,4.2986,4.2986,4.2986,4.2986,4.2886,4.2836,4.2836,4.2363,4.2062,4.2062,4.158,4.1275,4.1275,4.1781,4.2112,4.2213,4.2665,4.2886,4.2986,4.2986,4.2986,5.4762,5.5591,5.5942,5.4838,5.3532,5.2228,5.1044,4.9351,4.8029,4.8014,4.6751,4.5573,4.524,4.5385,4.609,4.7654,4.9038,5.0996,5.4059,5.4511,5.4938,5.6068,5.6219,5.6219,5.6219,5.6219,5.6219,5.6219,5.6219,5.6219,5.6219,5.6219,5.6219,5.6219,5.6219,5.6219,5.6219,5.6219,5.6219,5.6219,5.6219,5.6219,5.6219,5.6219,5.6219,5.6143,5.5039,5.4561,5.4486,5.3381,5.2929,5.2829,5.1699,5.1272,5.1147,5.0017,4.959,4.959,4.959,4.959,4.9464,4.8636,4.8159,4.7707,4.6627,4.6301,4.6301,4.6301,4.6301,4.625,4.5974,4.5924,4.5623,4.4493,4.379,4.3288,4.3037,4.2986,4.2986,4.2986,4.2986,4.2986,4.2986,4.2986,4.2986,4.2986,4.2986,4.2986,4.2986,4.2986,4.2986,4.2986,4.2986,4.2986,4.2986,4.2986,4.2986,4.2986,4.2791,4.264,4.264,4.2333,4.2183,4.2183,4.2459,4.264,4.264,4.2836,4.2986,4.2986,4.2986,4.2986,5.4712,5.544,5.5641,5.4787,5.3055,5.1266,5.0089,4.8881,4.7996,4.7815,4.7357,4.6881,4.6405,4.5814,4.5656,4.6603,4.7388,4.9088,5.2452,5.313,5.4009,5.5968,5.6219,5.6219,5.6219,5.6219,5.6219,5.6219,5.6219,5.6219,5.6219,5.6219,5.6219,5.6219,5.6219,5.6219,5.6219,5.6219,5.6219,5.6219,5.6219,5.6219,5.6219,5.6219,5.6219,5.6143,5.5039,5.4561,5.4486,5.3381,5.2929,5.2829,5.185,5.1398,5.1147,5.0142,4.969,4.959,4.959,4.959,4.9515,4.8962,4.8385,4.7732,4.6778,4.6401,4.6301,4.6301,4.6301,4.6301,4.6301,4.6301,4.605,4.5045,4.3966,4.3162,4.3162,4.3062,4.2986,4.2986,4.2986,4.2986,4.2986,4.2986,4.2986,4.2986,4.2986,4.2986,4.2986,4.2986,4.2986,4.2986,4.2986,4.2986,4.2986,4.2986,4.2986,4.2986,4.2986,4.2986,4.2986,4.2986,4.2986,4.2986,4.2986,4.2986,4.2986,4.2986,4.2986,4.2986,4.2986,4.2986,5.3557,5.4285,5.4687,5.4587,5.2176,4.9723,4.9367,4.7701,4.6301,4.6536,4.6408,4.6487,4.6995,4.5532,4.5097,4.7796,4.8068,4.9088,5.2452,5.3783,5.4863,5.6068,5.6219,5.6219,5.6219,5.6219,5.6219,5.6219,5.6219,5.6219,5.6219,5.6219,5.6219,5.6219,5.6219,5.6219,5.6219,5.6219,5.6219,5.6219,5.6219,5.6219,5.6219,5.6219,5.6219,5.6143,5.5039,5.4561,0.0,5.3381,5.2929,5.2879,5.2277,5.1724,5.1197,5.0569,5.0017,4.959,4.959,4.959,4.9515,4.8962,4.8385,4.7807,4.723,4.6702,4.6301,4.6301,4.6301,4.6301,4.6301,4.6301,4.615,4.5547,4.4543,4.374,4.374,4.3338,4.2986,4.2986,4.2986,4.2986,4.2986,4.2986,4.2986,4.2986,4.2986,4.2986,4.2986,4.2986,4.2986,4.2986,4.2986,4.2986,4.2986,4.2986,4.2986,4.2986,4.2986,4.2986,4.2986,4.2986,4.2986,4.2986,4.2986,4.2986,4.2986,4.2986,4.2986,4.2986,4.2986,4.2986,5.2427,5.3632,5.4411,5.3758,5.2215,5.0462,4.8963,4.7865,4.7015,4.6411,4.6554,4.6958,4.7135,4.5838,4.52,4.6687,4.5802,4.61,4.9439,5.0293,5.1599,5.4361,5.5013,5.5491,5.6143,5.6219,5.6219,5.6219,5.6219,5.6219,5.6219,5.6219,5.6219,5.6219,5.6219,5.6219,5.6219,5.6219,5.6219,5.6219,5.6219,5.6219,5.6219,5.6219,5.6219,5.6143,5.5039,5.4561,0.0,5.3381,5.2929,5.2879,5.2327,5.1774,5.1222,5.0619,5.0067,4.959,4.959,4.959,4.9565,4.9339,4.8887,4.8259,4.7405,4.6979,4.6728,4.6401,4.6301,4.6301,4.6301,4.6075,4.5748,4.5547,4.4869,4.4292,4.4292,4.3865,4.3463,4.3463,4.3212,4.2986,4.2986,4.2986,4.2986,4.2986,4.2986,4.2986,4.2986,4.2986,4.2986,4.2986,4.2986,4.2986,4.2986,4.2986,4.2986,4.2986,4.2986,4.2986,4.2986,4.2986,4.2986,4.2986,4.2986,4.2986,4.2986,4.2986,4.2986,4.2986,4.2986,4.2986,5.0971,5.2327,5.3206,5.2578,5.1704,5.0393,4.8184,4.7716,4.7434,4.6217,4.6814,4.7584,4.7508,4.6353,4.5536,4.5901,4.472,4.4694,4.7531,4.8335,4.9841,5.308,5.3959,5.4687,5.5641,5.6018,5.6219,5.6219,5.6219,5.6219,5.6219,5.6219,5.6219,5.6219,5.6219,5.6219,5.6219,5.6219,5.6219,5.6219,5.6219,5.6219,5.6194,5.6043,5.5968,5.5917,5.4787,5.431,0.0,5.3306,5.2929,5.2879,5.2503,5.19,5.1222,5.082,5.0218,4.959,4.959,4.959,4.959,4.959,4.9339,4.8837,4.7908,4.738,4.6993,4.6652,4.6426,4.6301,4.6301,4.6024,4.5723,4.5723,4.5296,4.4895,4.4895,4.4443,4.3991,4.384,4.3489,4.3162,4.3011,4.2986,4.2986,4.2986,4.2986,4.2986,4.2986,4.2986,4.2986,4.2986,4.2986,4.2986,4.2986,4.2986,4.2986,4.2986,4.2986,4.2986,4.2986,4.2986,4.2986,4.2986,4.2986,4.2986,4.2986,4.2986,4.2986,4.2986,4.2986,4.2986,4.9012,5.0042,5.0594,5.1147,5.0278,4.8746,4.6904,4.6885,4.6897,4.5677,4.6962,4.8267,4.8297,4.7062,4.6082,4.6109,4.577,4.605,4.7769,4.9364,5.1021,5.2729,5.3381,5.3934,5.4536,5.5566,5.6219,5.6219,5.6219,0.0,5.6219,5.6219,5.6219,5.6219,5.6219,5.6219,5.6219,5.6219,5.6219,5.6219,5.6219,5.6219,5.6194,5.5641,5.539,5.534,5.421,5.3708,0.0,5.313,5.2929,5.2929,5.2929,5.2251,5.1272,5.1272,5.0569,4.959,4.959,4.959,4.959,4.959,4.959,4.949,4.8937,4.7983,4.7068,4.7068,4.6728,4.6301,4.6301,4.6301,4.6301,4.6301,4.5874,4.5472,4.5472,4.502,4.4443,4.3915,4.379,4.3614,4.3062,4.2986,4.2986,4.2986,4.2986,4.2986,4.2986,4.2986,4.2986,4.2986,4.2986,4.2986,4.2986,4.2986,4.2986,4.2986,4.2986,4.2986,4.2986,4.2986,4.2986,4.2986,4.2986,4.2986,4.2986,4.2986,4.2986,4.2986,4.2986,4.2986,4.5999,4.78,4.9316,4.8782,4.9445,4.976,4.7894,4.8057,4.8249,4.6948,4.7524,4.8416,4.891,4.7396,4.6851,4.9155,4.7229,4.6315,4.8677,4.9849,5.0896,5.2201,5.416,5.5491,5.5666,5.6018,5.6219,5.6219,5.6219,5.6219,5.6219,5.6219,5.6219,5.6219,5.6219,5.6219,5.6219,5.6219,5.6219,5.6219,5.6219,5.6018,5.5641,5.5465,5.5189,0.0,5.4034,0.0,0.0,5.313,5.2929,5.2929,5.2929,5.2251,5.1272,5.1272,5.0569,4.959,4.959,4.959,4.959,4.959,4.959,4.9565,4.9389,4.8837,4.8109,4.7355,4.6728,4.6301,4.6301,4.6301,4.6301,4.6301,4.6175,4.605,4.605,4.5623,4.5171,4.4995,4.4342,4.374,4.3564,4.3212,4.2986,4.2986,4.2986,4.2986,4.2986,4.2986,4.2986,4.2986,4.2986,4.2986,4.2986,4.2986,4.2986,4.2986,4.2986,4.2986,4.2986,4.2986,4.2986,4.2986,4.2986,4.2986,4.2986,4.2986,4.2986,4.2986,4.2986,4.2986,4.4449,4.6202,4.767,4.7522,4.8404,4.9003,4.7852,4.8278,4.8596,4.7519,4.8027,4.876,4.891,4.8027,4.7857,4.9724,4.773,4.6701,4.8784,4.9666,5.0745,5.2503,5.4411,5.5666,5.5892,5.6093,5.6219,5.6219,5.6219,5.6219,5.6219,5.6219,5.6219,5.6219,5.6219,5.6219,5.6219,5.6219,5.6219,5.6219,5.5993,5.5717,5.5365,5.4938,5.4561,0.0,0.0,0.0,0.0,5.3055,5.2929,5.2929,5.2929,5.2251,5.1272,5.1272,5.0569,4.959,4.959,4.959,4.959,4.959,4.959,4.959,4.959,4.9213,4.8535,4.7431,4.6878,4.6577,4.6376,4.6301,4.6301,4.6301,4.6301,4.6301,4.6301,4.605,4.5723,4.5522,4.492,4.4367,4.4141,4.3815,4.3539,4.3313,4.3288,4.3212,4.3011,4.2986,4.2986,4.2986,4.2986,4.2986,4.2986,4.2986,4.2986,4.2986,4.2986,4.2986,4.2986,4.2986,4.2986,4.2986,4.2986,4.2986,4.2986,4.2986,4.2986,4.2986,4.2986,4.2986,0.0,4.5235,4.5954,4.7124,4.7236,4.7108,4.7024,4.7695,0.0,4.7429,4.8327,4.909,4.8506,4.8805,4.9009,4.8702,4.7636,4.7288,4.8505,4.9332,5.0845,5.3557,5.4361,5.4888,5.539,5.5917,5.6219,5.6219,5.6219,5.6219,5.6219,5.6219,5.6219,5.6219,5.6219,5.6219,5.6219,5.6219,5.6194,5.6143,5.5641,5.534,5.5239,5.4185,5.3683,0.0,0.0,0.0,0.0,5.2929,5.2929,5.2929,5.2929,5.2251,5.1272,5.1272,5.0569,4.959,4.959,4.959,4.959,4.959,4.959,4.959,4.959,4.9213,4.856,4.7531,4.723,4.7054,4.6502,4.6376,4.6351,4.6326,4.6301,4.6301,4.6301,4.6301,4.615,4.5648,4.5522,4.5321,4.4769,4.4644,4.4443,4.394,4.3865,4.3664,4.3112,4.3037,4.3011,4.2986,4.2986,4.2986,4.2986,4.2986,4.2986,4.2986,4.2986,4.2986,4.2986,4.2986,4.2986,4.2986,4.2986,4.2986,4.2986,4.2986,4.2986,4.2986,4.2986,4.2986,4.3617,0.0,4.5279,4.5184,4.6582,4.7829,0.0,4.7777,4.8087,4.7429,4.7967,4.8775,4.9613,4.904,4.9388,5.2319,5.046,4.9298,5.118,5.1828,5.3005,5.534,5.5742,5.5867,5.6018,5.6143,5.6219,5.6219,5.6219,5.6219,5.6219,5.6219,5.6219,5.6219,5.6219,5.6219,5.6219,5.6219,5.5993,5.5591,5.544,5.4938,5.4084,5.3808,5.3482,5.3105,5.298,0.0,5.2929,5.2929,5.2929,5.2929,5.2929,5.2251,5.1272,5.1272,5.0569,4.959,4.959,4.959,4.959,4.959,4.959,4.959,4.959,4.9213,4.8711,4.846,4.8058,4.7606,4.7079,4.6928,4.6828,4.6401,4.6301,4.6301,4.6301,4.6301,4.6276,4.615,4.5773,4.5447,4.5296,4.492,4.4593,4.4443,4.4418,4.4242,4.3689,4.3614,4.3438,4.3011,4.2986,4.2986,4.2986,4.2986,4.2986,4.2986,4.2986,4.2986,4.2986,4.2986,4.2986,4.2986,4.2986,4.2986,4.2986,4.2986,4.2986,4.2986,4.2986,4.2986,4.2941,4.4091,4.5347,4.5683,4.6579,4.7495,4.7686,4.7788,4.7728,4.7369,4.7818,4.8596,4.9613,4.911,4.9453,5.2205,5.0491,4.9653,5.1936,5.2818,5.4009,5.5968,5.6219,5.6219,0.0,5.6219,5.6219,5.6219,5.6219,5.6219,5.6219,5.6219,5.6219,5.6219,5.6219,5.6219,5.6219,5.6219,5.5942,5.539,5.5139,5.4561,5.3683,5.3457,5.3181,5.2929,5.2929,0.0,5.2929,5.2929,5.2929,5.2929,5.2929,5.2402,5.1624,5.1373,5.072,4.9941,4.969,4.959,4.959,4.959,4.959,4.959,4.959,4.9389,4.9088,4.8837,4.8535,4.8184,4.7631,4.7481,4.7355,4.6803,4.6702,4.6627,4.6376,4.6301,4.6301,4.6301,4.6075,4.5874,4.5874,4.5598,4.5321,4.507,4.502,4.4719,4.3915,4.379,4.3589,4.3037,4.2986,4.2986,4.2986,4.2986,4.2986,4.2986,4.2986,4.2986,4.2986,4.2986,4.2986,4.2986,4.2986,4.2986,4.2986,4.2986,4.2986,4.2986,4.2986,4.2986,4.2794,4.4312,4.6046,4.678,4.6918,4.7082,4.8075,4.7848,4.7489,4.7578,4.7967,4.8492,4.9147,4.9183,4.9588,5.0937,5.0188,5.0115,5.2094,5.3206,5.4436,5.6018,5.6219,5.6219,5.6219,5.6219,5.6219,5.6219,5.6219,5.6219,5.6219,5.6219,5.6219,5.6219,5.6219,5.6219,5.6219,5.6118,5.5767,5.5114,5.4662,5.4135,5.3557,5.313,5.2929,5.2929,0.0,0.0,5.2929,5.2929,5.2929,5.2929,5.2929,5.2578,5.2051,5.1498,5.0921,5.0343,4.9791,4.959,4.959,4.959,4.959,4.959,4.959,4.959,4.949,4.9038,4.8887,4.8761,4.8184,4.8033,4.7883,4.728,4.7068,4.6918,4.6426,4.6301,4.6301,4.6301,4.6301,4.6301,4.6301,4.6301,4.615,4.5673,4.5623,4.5246,4.4192,4.3991,4.3714,4.3162,4.3037,4.2986,4.2986,4.2986,4.2986,4.2986,4.2986,4.2986,4.2986,4.2986,4.2986,4.2986,4.2986,4.2986,4.2986,4.2986,4.2986,4.2986,4.2986,4.2986,4.4578,4.6334,4.7479,4.598,4.7239,4.8775,4.8372,4.8207,4.8297,4.891,4.8596,4.8491,4.9116,4.9478,5.0341,5.2439,5.3443,5.386,5.3493,5.4034,5.4863,5.6068,5.6219,5.6219,5.6219,5.6219,5.6219,5.6219,5.6219,5.6219,5.6219,5.6219,5.6219,5.6219,5.6219,5.6219,5.6219,5.5742,5.4988,5.3959,5.3884,5.3557,5.3055,5.2955,5.2929,5.2929,0.0,5.2929,5.2929,5.2929,5.2929,5.2929,5.2929,5.2578,5.2051,5.1498,5.0921,5.0343,4.9791,4.959,4.959,4.959,4.959,4.959,4.959,4.959,4.9565,4.949,4.9464,4.9339,4.8786,4.8636,4.8385,4.738,4.7068,4.6918,4.6426,4.6301,4.6301,4.6301,4.6301,4.6301,4.6301,4.6301,4.6276,4.62,4.6175,4.5949,4.5321,4.4794,4.4292,4.374,4.3263,4.2986,4.2986,4.2986,4.2986,4.2986,4.2986,4.2986,4.2986,4.2986,4.2986,4.2986,4.2986,4.2986,4.2986,4.2986,4.2986,4.2986,4.2986,4.2986,4.4077,4.5693,4.71,4.6531,4.8626,5.0475,4.9016,4.9005,4.9177,4.8676,4.8725,4.8921,4.9068,4.9104,4.9687,5.1336,5.2879,5.397,5.4144,5.4662,5.5315,5.6118,0.0,5.6219,5.6219,5.6219,5.6219,5.6219,5.6219,5.6219,5.6219,5.6219,5.6219,5.6219,5.5917,5.5616,5.5315,5.4762,5.4361,5.416,5.3858,5.3432,5.2929,5.2929,5.2929,5.2929,0.0,5.2929,5.2929,5.2929,5.2929,5.2929,5.2929,5.2779,5.2452,5.1599,5.072,4.9941,4.969,4.959,4.959,4.959,4.959,4.959,4.959,4.959,4.959,4.959,4.959,4.954,4.9289,4.9213,4.9012,4.8209,4.7782,4.7481,4.723,4.6728,4.6401,4.6702,4.6527,4.6301,4.6301,4.6301,4.6301,4.6301,4.6301,4.6125,4.5573,4.5246,4.4869,4.4292,4.4016,4.3865,4.3865,4.3865,4.3614,4.3011,4.2986,4.2986,4.2986,4.3263,4.3413,4.3413,4.3714,4.3865,4.3865,4.3865,4.3865,4.3865,4.3564,4.3589,4.3678,4.5113,4.6711,4.7369,4.9523,5.1244,5.0213,5.0353,5.0483,4.9815,4.9791,4.9911,4.975,4.9767,5.0054,5.1024,5.2708,5.4068,5.4507,5.5139,5.5742,5.6168,5.6219,5.6219,5.6219,5.6219,5.6219,5.6219,5.6219,5.6219,5.6219,5.6219,5.6219,5.6219,5.5792,5.539,5.4963,5.426,5.4009,5.4185,5.3733,5.3306,5.2929,5.2929,5.2929,5.2929,5.2929,5.2929,5.2929,5.2929,5.2929,5.2929,5.2929,5.2779,5.2452,5.1599,5.0569,4.959,4.959,4.959,4.959,4.959,4.959,4.959,4.959,4.959,4.959,4.959,4.959,4.959,4.959,4.959,4.9464,4.8912,4.8435,4.8083,4.7933,4.7255,4.6803,4.723,4.6878,4.6502,4.6502,4.6401,4.6301,4.6301,4.6301,4.615,4.5723,4.5573,4.5321,4.4869,4.4694,4.4618,4.4618,4.4618,4.4267,4.3413,4.3363,4.3363,4.3363,4.3765,4.3991,4.3991,4.4418,4.4618,4.4618,4.4618,4.4618,4.4618,4.4192,4.4217,4.4825,4.6172,4.7399,4.8057,4.8865,5.0092,5.239,5.2468,5.2528,5.4331,5.3165,5.1799,5.1857,5.2543,5.3189,5.3335,5.5313,5.6314,5.4819,5.5491,5.6168,5.6219,5.6219,5.6219,5.6219,5.6219,5.6219,5.6219,5.6219,5.6219,5.6219,5.6219,5.6219,5.6219,5.6168,5.6118,5.6093,5.5039,5.4009,5.3055,5.3005,5.2955,5.2929,5.2929,5.2929,5.2929,5.2929,5.2929,5.2929,5.2929,5.2929,5.2929,5.2929,5.2302,5.1398,5.1322,5.0569,4.959,4.959,4.959,4.959,4.959,4.959,4.959,4.959,4.959,4.959,4.959,4.959,4.959,4.959,4.959,4.9464,4.8912,4.8736,4.856,4.8033,4.7857,4.7807,4.7832,4.7431,4.7018,4.7018,4.6652,4.6301,4.6301,4.6301,4.6301,4.625,4.5799,4.5472,4.5422,4.4945,4.4618,4.4618,4.4618,4.4593,4.4518,4.4493,4.4493,4.4493,4.4543,4.4568,4.4568,4.4593,4.4618,4.4618,4.4618,4.4618,4.4618,4.4593,4.4593,4.3928,4.5663,4.7459,4.8117,4.9404,5.0696,5.1619,5.3,5.4241,5.4896,5.4825,5.442,5.3844,5.3097,5.3247,5.5401,5.5272,5.5399,5.6512,5.6412,5.6219,5.6219,5.6219,5.6219,5.6219,5.6219,5.6219,5.6219,5.6219,5.6219,5.6219,5.6219,5.6068,5.5717,5.5365,5.5013,5.4662,5.3909,5.3331,5.2929,5.2929,5.2929,5.2929,5.2929,5.2929,5.2929,5.2929,5.2929,5.2929,5.2929,5.2929,5.2929,5.2929,5.2251,5.1272,5.1272,5.0569,4.959,4.959,4.959,4.959,4.959,4.959,4.959,4.959,4.959,4.959,4.959,4.959,4.959,4.959,4.959,4.954,4.9339,4.9012,4.8812,4.8937,4.841,4.8008,4.8385,4.7983,4.7606,4.7606,4.7179,4.6828,4.6828,4.6527,4.6301,4.6301,4.6125,4.5999,4.5999,4.5799,4.5673,4.5673,4.5673,4.5673,4.5673,4.502,4.4618,4.4618,4.497,4.5171,4.5171,4.5497,4.5673,4.5673,4.5673,4.5673,4.5673,4.5321,4.5347,4.3917,4.5753,4.7788,4.8446,5.0062,5.1709,5.2456,5.428,5.5968,5.6431,5.6699,5.6585,5.5861,5.4502,5.4242,5.6603,5.6211,5.5942,5.6747,5.6958,5.6823,5.6267,5.6219,5.6219,5.6219,5.6068,5.6018,5.6194,5.6043,5.6018,5.6194,5.6043,5.5767,5.539,5.4863,5.4386,5.3984,5.3432,5.3181,5.3181,5.3005,5.2929,5.2929,5.2929,5.2929,5.2929,5.2929,5.2929,5.2929,5.2929,5.2929,5.2904,5.2729,5.2101,5.1247,5.1071,5.0419,4.959,4.959,4.959,4.959,4.959,4.959,4.959,4.959,4.959,4.959,4.959,4.959,4.959,4.959,4.959,4.959,4.959,4.9314,4.9138,4.9515,4.8987,4.856,4.8962,4.856,4.8184,4.8184,4.7732,4.733,4.7093,4.6803,4.6502,4.6326,4.6301,4.6301,4.6301,4.6301,4.6301,4.6301,4.6301,4.6301,4.6301,4.5598,4.5146,4.5146,4.5522,4.5748,4.5748,4.6125,4.6301,4.6301,4.6301,4.6301,4.6301,4.5924,4.5949,4.5274,4.6741,4.8446,4.9149,5.075,5.2935,5.5568,5.6675,5.767,5.9697,5.9069,5.81,5.797,5.7225,5.6706,5.6975,5.8612,5.8614,5.5146,5.7099,5.8224,5.6412,5.6194,5.6194,5.6194,5.5691,5.5616,5.6143,5.5691,5.5616,5.6168,5.5666,5.539,5.5365,5.4838,5.4561,5.4536,5.3984,5.3683,5.3683,5.3181,5.2929,5.2929,5.2929,5.2929,5.2929,5.2929,5.2929,5.2929,5.2929,5.2929,5.2854,5.2327,5.1774,5.1197,5.0619,5.0067,4.959,4.959,4.959,4.959,4.959,4.959,4.959,4.959,4.959,4.959,4.959,4.959,4.959,4.959,4.959,4.959,4.959,4.959,4.959,4.959,4.959,4.959,4.959,4.9163,4.8786,4.8786,4.8309,4.7732,4.723,4.7068,4.6928,4.6376,4.6301,4.6301,4.6301,4.6301,4.6301,4.6301,4.6301,4.6301,4.6301,4.6301,4.6301,4.6301,4.6301,4.6301,4.6301,4.6301,4.6301,4.6301,4.6301,4.6301,4.6301,4.6301,4.6301,4.4736,4.6411,4.8446,4.9149,5.1798,5.464,5.5948,5.7393,5.9099,6.1074,6.1194,6.0783,6.0271,5.9041,5.8639,6.0297,5.9418,5.8282,5.7635,5.7621,5.6981,5.5253,5.5039,5.5039,5.5039,5.4913,5.4888,5.5039,5.4913,5.4888,5.5039,5.4888,5.4612,5.421,5.4034,5.3783,5.3406,5.3256,5.3155,5.3155,5.3005,5.2929,5.2929,5.2929,5.2929,5.2929,5.2929,5.2929,5.2929,5.2929,5.2703,5.2327,5.2176,5.1523,5.0645,5.0469,5.0067,4.959,4.959,4.959,4.959,4.959,4.959,4.959,4.959,4.959,4.959,4.959,4.959,4.959,4.959,4.959,4.959,4.959,4.959,4.959,4.959,4.959,4.959,4.959,4.9464,4.9339,4.9339,4.8887,4.8335,4.7757,4.7355,4.6928,4.6376,4.6301,4.6301,4.6301,4.6301,4.6301,4.6301,4.6301,4.6301,4.6301,4.6301,4.6301,4.6301,4.6301,4.6301,4.6301,4.6301,4.6301,4.6301,4.6301,4.6301,4.6301,4.6301,4.6301,4.6172,4.8027,5.0062,5.099,5.3414,5.5957,5.7393,5.886,6.0386,6.2121,6.2061,6.1732,6.1882,6.0637,6.0032,6.1232,6.0841,6.0013,5.8962,5.9023,5.8308,5.589,5.5611,5.5357,5.4632,5.5039,5.5127,5.4607,5.5013,5.5058,5.4632,5.4336,5.4059,5.3708,5.3507,5.3256,5.2929,5.2929,5.2929,5.2929,5.2929,5.2929,5.2929,5.2929,5.2929,5.2929,5.2929,5.2929,5.2904,5.2678,5.2402,5.2076,5.1599,5.1021,5.0393,5.0167,4.9891,4.959,4.959,4.959,4.959,4.959,4.959,4.959,4.959,4.959,4.959,4.959,4.959,4.959,4.959,4.959,4.959,4.959,4.959,4.959,4.959,4.959,4.959,4.959,4.959,4.959,4.959,4.9314,4.8837,4.8033,4.728,4.6702,4.6351,4.6301,4.6301,4.6301,4.6301,4.6301,4.6301,4.6301,4.6301,4.6301,4.6301,4.6301,4.6301,4.6301,4.6301,4.6301,4.6301,4.6301,4.6301,4.6301,4.6301,4.6301,4.6301,4.6301,4.8506,5.0481,5.2366,5.3773,5.5239,5.7004,5.9518,6.0565,6.1403,6.272,6.2032,6.1583,6.2839,6.2091,6.1159,6.0816,6.2499,6.2763,5.9444,6.0772,6.0857,5.7341,5.7097,5.651,5.4809,5.5589,5.5825,5.4758,5.552,0.0,5.4527,5.3909,5.3632,5.3632,5.3181,5.2929,5.2929,5.2929,5.2929,5.2929,5.2929,5.2929,5.2929,5.2929,5.2929,5.2929,5.2929,5.2904,5.2804,5.2302,5.2051,5.185,5.082,5.0393,5.0293,4.9766,4.959,4.959,4.959,4.959,4.959,4.959,4.959,4.959,4.959,4.959,4.959,4.959,4.959,4.959,4.959,4.959,4.959,4.959,4.959,4.959,4.959,4.959,4.959,4.959,4.959,4.959,4.959,4.9565,4.9138,4.8008,4.6979,4.6301,4.6301,4.6301,4.6301,4.6301,4.6301,4.6301,4.6301,4.6301,4.6301,4.6301,4.6301,4.6301,4.6301,4.6301,4.6301,4.6301,4.6301,4.6301,4.6301,4.6301,4.6301,4.6301,4.6301,4.6301,4.683,4.8775,5.1063,5.2935,5.5568,5.8112,5.9727,6.0206,6.0685,6.2032,6.2091,6.2121,6.2929,6.2839,6.2605,6.2554,6.2995,6.2558,6.0438,6.0553,5.9623,5.6186,5.6973,5.7104,5.5415,5.5444,5.5484,0.0,0.0,0.0,5.3281,5.3155,5.308,5.308,5.298,5.2929,5.2929,5.2929,5.2929,0.0,5.2929,5.2929,5.2929,5.2929,5.2929,5.2929,5.2929,5.2678,5.2277,5.2151,5.1574,5.0745,5.0519,5.0142,4.9766,4.964,4.959,4.959,4.959,4.959,4.959,4.959,4.959,4.959,4.959,4.959,4.959,4.959,4.959,4.959,4.959,4.959,4.959,4.959,4.959,4.959,4.959,4.959,4.959,4.959,4.959,4.959,4.959,4.9238,4.8586,4.7456,4.6728,4.6301,4.6301,4.6301,4.6301,4.6301,4.6301,4.6301,4.6301,4.6301,4.6301,4.6301,4.6301,4.6301,4.6301,4.6301,4.6301,4.6301,4.6301,4.6301,4.6301,4.6301,4.6301,4.6301,4.6301,4.6301,4.683,4.8955,5.1409,5.4311,5.6825,5.877,5.9458,5.9608,5.9907,6.0924,6.1642,6.2211,6.254,6.2869,6.3079,6.3079,6.3079,6.2759,6.1851,6.1762,6.075,5.8139,5.8669,5.8543,5.6828,0.0,0.0,0.0,0.0,5.3742,5.2929,5.2929,5.3247,5.4055,5.3291,5.3316,5.4122,5.3291,5.2929,5.2929,5.2929,5.2929,5.2929,5.2929,5.2929,5.2904,5.2653,5.2377,5.2076,5.1523,5.0946,5.0393,5.0117,4.9841,4.959,4.959,4.959,4.959,4.959,4.959,4.959,4.959,4.959,4.959,4.959,4.959,4.959,4.959,4.959,4.959,4.959,4.959,4.959,4.959,4.959,4.959,4.959,4.959,4.959,4.959,4.959,4.959,4.959,4.9138,4.8586,4.8008,4.723,4.6702,4.6702,4.6476,4.6301,4.6301,4.6301,4.6301,4.6301,4.6301,4.6301,4.6301,4.6301,4.6301,4.6301,4.6301,4.6301,4.6301,4.6301,4.6301,4.6301,4.6301,4.6301,4.6301,4.6301,4.6301,4.6651,4.9284,5.2127,5.5987,5.7932,5.8979,5.9069,5.9099,5.9249,5.9787,6.0984,6.1972,6.2061,6.263,6.3079,6.3079,6.3079,6.3079,6.3079,6.3079,6.2409,6.075,6.075,6.0298,0.0,0.0,0.0,0.0,0.0,5.5247,5.3878,5.3742,5.4433,5.5814,5.45,5.4325,5.5419,5.4299,5.3632,5.3291,5.3291,5.3179,5.2929,5.2929,5.2879,5.2754,5.2302,5.2,5.1749,5.0795,5.0368,5.0218,4.9766,4.959,4.959,4.959,4.959,4.959,4.959,4.959,4.959,4.959,4.959,4.959,4.959,4.959,4.959,4.959,4.959,4.959,4.959,4.959,4.959,4.959,4.959,4.959,4.959,4.959,4.959,4.959,4.959,4.9565,4.9464,4.9063,4.8736,4.8636,4.7857,4.7168,4.7093,4.6728,4.6426,4.6326,4.6301,4.6301,4.6301,4.6401,4.6401,4.6326,4.6401,4.6401,4.6301,4.6301,4.6301,4.6301,4.6301,4.6301,4.6301,4.6301,4.6301,4.6301,4.6301,4.6301,4.3678,4.7475,5.2037,5.5448,5.7274,5.8411,5.8979,5.9099,5.9129,5.9219,6.0296,6.1433,6.2002,6.263,6.3079,6.3079,6.3079,6.3079,6.3079,6.3079,6.2409,6.075,6.1851,0.0,0.0,0.0,0.0,0.0,5.8481,5.756,5.7305,5.7305,5.7432,5.7687,5.7432,5.6726,5.5419,5.6661,5.6531,5.5049,5.5049,5.4299,5.2929,5.2929,5.2678,5.2201,5.2126,5.1548,5.0619,5.0469,5.0142,4.969,4.9615,4.959,4.959,4.959,4.959,4.959,4.959,4.959,4.959,4.959,4.959,4.959,4.959,4.959,4.959,4.959,4.959,4.959,4.959,4.959,4.959,4.959,4.959,4.959,4.959,4.959,4.959,4.959,4.959,4.9439,4.8962,4.8812,4.8611,4.8109,4.7908,4.7631,4.7143,4.7079,4.6853,4.6351,4.6301,4.6301,4.6301,4.6753,4.6828,4.6351,4.6753,4.6803,4.6326,4.6301,4.6301,4.6301,4.6301,4.6301,4.6301,4.6301,4.6301,4.6301,4.6301,4.6301,4.4796,4.8057,5.1468,5.479,5.6316,5.7184,5.7842,5.8291,5.856,5.856,5.9608,6.0745,6.1433,6.2091,6.266,6.3019,6.3079,6.3079,6.3079,6.3079,6.2817,0.0,0.0,0.0,0.0,0.0,0.0,0.0,5.8918,5.8005,5.8005,5.8005,5.8446,5.9352,5.8509,5.8103,5.8265,5.7149,5.5709,5.3987,5.4668,5.4074,5.2452,5.2151,5.2051,5.2076,5.1774,5.1172,5.0393,5.0092,4.9816,4.959,4.959,4.959,4.959,4.959,4.959,4.959,4.959,4.959,4.959,4.959,4.959,4.959,4.959,4.959,4.959,4.959,4.959,4.959,4.959,4.959,4.959,4.959,4.959,4.959,4.959,4.959,4.959,4.959,4.959,4.9515,4.9264,4.9238,4.9138,4.8887,4.8586,4.8309,4.8083,4.8534,4.8471,4.7352,4.7726,4.7855,4.7241,4.7154,4.7154,4.7205,4.7154,4.6968,4.6778,4.6476,4.6301,4.6301,4.6301,4.6301,4.6301,4.6301,4.6301,4.6301,4.6301,4.6301,4.4975,4.7369,4.9538,5.3054,5.4551,5.5448,5.6585,5.7244,5.7723,5.8052,5.8919,5.9847,6.0685,6.1523,6.2241,6.275,6.2959,6.3079,6.3079,6.3079,0.0,0.0,0.0,0.0,0.0,0.0,0.0,0.0,6.0022,5.9318,5.9318,5.9318,5.99,6.1139,5.9961,5.9418,5.9676,5.6712,5.4496,5.3131,5.4144,5.3633,5.1875,5.1473,5.1423,5.1649,5.1247,5.0745,5.0167,4.9766,4.959,4.959,4.959,4.959,4.959,4.959,4.959,4.959,4.959,4.959,4.959,4.959,4.959,4.959,4.959,4.959,4.959,4.959,4.959,4.959,4.959,4.959,4.959,4.959,4.959,4.959,4.959,4.959,4.959,4.959,4.959,4.959,4.959,4.959,4.959,4.959,4.9238,4.8937,4.8786,4.9456,4.955,4.8625,4.9221,4.9561,4.9161,4.8493,4.8248,4.8477,4.7904,4.7481,4.733,4.6803,4.6527,4.6527,4.6376,4.6301,4.6301,4.6301,4.6301,4.6301,4.6301,4.6301,4.2081,4.3599,4.5574,4.9478,5.1468,5.3084,5.5628,5.6256,5.6615,5.7872,5.8171,5.862,5.9907,6.1224,6.2121,6.2151,6.266,6.3079,6.3079,0.0,0.0,0.0,0.0,0.0,0.0,0.0,0.0,0.0,6.2875,6.2817,6.2817,6.2817,6.2875,6.2933,6.2875,6.1055,5.7397,5.5569,5.4337,5.3745,5.4311,5.3491,5.1322,5.1297,5.0996,5.0494,5.0469,5.0142,4.964,4.9615,4.959,4.959,4.959,4.959,4.959,4.959,4.959,4.959,4.959,4.959,4.959,4.959,4.959,4.959,4.959,4.959,4.959,4.959,4.959,4.959,4.959,4.959,4.959,4.959,4.959,4.959,4.959,4.959,4.959,4.959,4.959,4.959,4.959,4.959,4.959,4.959,4.9565,4.9364,4.8837,4.8863,4.9237,5.0086,5.0221,5.0848,5.2306,5.1561,5.0767,5.024,4.9234,4.8435,4.7883,4.7355,4.7043,4.7043,4.6577,4.6301,4.6301,4.6301,4.6301,4.6301,4.6301,4.6301,4.1871,4.274,4.3928,4.7459,4.9344,5.078,5.2576,5.4311,5.5688,5.6137,5.6885,5.7752,5.865,5.9907,6.0954,6.1403,6.1672,6.1972,0.0,0.0,0.0,0.0,0.0,0.0,0.0,0.0,0.0,0.0,0.0,6.3079,6.3079,6.3079,6.2869,6.245,6.245,6.0706,5.7093,5.6913,5.561,5.3263,5.3831,5.3127,5.1247,5.0519,5.0092,4.9891,4.9891,4.9766,4.959,4.959,4.959,4.959,4.959,4.959,4.959,4.959,4.959,4.959,4.959,4.959,4.959,4.959,4.959,4.959,4.959,4.959,4.959,4.959,4.959,4.959,4.959,4.959,4.959,4.959,4.959,4.959,4.959,4.959,4.959,4.959,5.0436,5.1142,5.1142,5.1989,5.2666,5.2666,5.2666,5.2585,5.2432,5.3283,5.359,5.3011,5.3481,5.3887,5.3813,5.3116,5.2734,5.2897,5.1284,5.0234,5.0036,4.844,4.7481,4.7093,4.782,4.7598,4.6301,4.6301,4.6301,4.6301,4.6301,4.6301,4.1025,4.1572,4.253,4.5813,4.713,4.8297,5.096,5.2576,5.3832,5.497,5.5867,5.6735,5.7603,5.868,5.9727,6.0625,6.0954,0.0,0.0,0.0,0.0,0.0,0.0,0.0,0.0,0.0,0.0,0.0,0.0,0.0,6.3079,6.3079,6.2519,6.1317,6.0354,5.8451,5.5706,5.5518,5.4236,5.18,5.2605,5.2257,5.0971,5.0218,4.9866,4.9866,4.9665,4.959,4.959,4.959,4.959,4.959,4.959,4.959,4.959,4.959,4.959,4.959,4.959,4.959,4.959,4.959,4.959,4.959,4.959,4.959,4.959,4.959,4.959,4.959,4.959,4.959,4.959,4.959,4.959,4.959,4.959,4.959,4.959,4.959,5.0916,5.1989,5.1989,5.3308,5.4386,5.4386,5.4386,5.4386,5.4386,5.5269,5.5734,5.5211,5.5766,5.6106,5.6022,5.5107,5.4762,5.5124,5.3375,5.2259,5.2232,5.0672,4.9594,4.923,4.9796,4.9457,4.8087,4.7401,4.6755,4.6301,4.6301,4.6301,0.0,0.0,0.0,4.4347,4.4706,4.5603,5.078,5.102,5.1033,5.4371,5.5059,5.5478,5.6795,5.7573,5.8471,5.9817,0.0,0.0,0.0,0.0,0.0,0.0,0.0,0.0,0.0,0.0,0.0,0.0,6.3079,6.3079,6.3079,6.3049,6.2025,5.9677,5.6785,5.4542,5.3012,5.1305,5.0167,4.9665,5.0745,5.0971,5.0419,5.0419,5.0419,5.0368,4.9816,4.959,4.959,4.959,4.959,4.959,4.959,4.959,4.959,4.959,4.959,4.959,4.959,4.959,4.959,4.959,4.959,4.959,4.959,4.959,4.959,4.959,4.959,4.959,4.959,4.959,4.959,4.959,4.9654,4.9654,4.9654,4.9719,4.9719,4.9654,5.1016,5.2148,5.2148,5.3489,5.4505,5.4505,5.4505,5.4505,5.4505,5.4505,5.5094,5.6622,5.6792,5.7384,5.8991,5.7664,5.6792,5.6792,5.5327,5.4446,5.4446,5.3865,5.3533,5.3505,5.2401,5.1792,5.1708,4.9603,4.7802,4.6361,4.6301,4.6301,3.9523,0.0,0.0,0.0,0.0,0.0,0.0,0.0,4.8775,5.1092,5.1977,5.3025,5.5299,5.5867,0.0,0.0,0.0,0.0,0.0,0.0,0.0,0.0,0.0,0.0,0.0,0.0,0.0,0.0,6.3079,6.3079,6.3079,6.2181,6.0605,5.835,5.6276,5.4454,5.286,5.1623,5.0971,5.082,5.1122,5.0971,5.0419,5.0419,5.0193,4.9816,4.9665,4.959,4.959,4.959,4.959,4.959,4.959,4.959,4.959,4.959,4.959,4.959,4.959,4.959,4.959,4.959,4.959,4.959,4.959,4.959,4.959,4.959,4.959,4.959,4.959,4.959,4.959,4.959,5.0499,5.133,5.133,5.2236,5.2727,5.1554,5.3522,5.5415,5.5415,5.6736,5.7804,5.7804,5.7804,5.7804,5.7804,5.7804,5.797,5.8386,5.844,5.8634,5.9045,5.8689,5.844,5.844,5.6962,5.6079,5.6079,5.4809,5.3917,5.3505,5.4233,5.3697,5.1708,5.0625,4.9338,4.786,4.6815,4.6301,4.0487,4.0516,4.0995,4.1833,0.0,0.0,4.5364,4.6232,4.7249,0.0,5.096,5.1858,5.3952,0.0,0.0,0.0,0.0,0.0,0.0,0.0,0.0,0.0,0.0,0.0,0.0,6.254,6.3079,6.3079,6.3079,6.2959,6.269,6.1403,5.9776,5.7744,5.5855,5.41,5.249,5.1189,5.0569,5.0569,5.082,5.0745,5.0419,5.0419,5.0243,4.9916,4.969,4.959,4.959,4.959,4.959,4.959,4.959,4.959,4.959,4.959,4.959,4.959,4.959,4.959,4.959,4.959,4.959,4.959,4.959,4.959,4.959,4.959,4.959,4.959,4.959,5.0078,5.06,5.06,5.1803,5.3005,5.3005,5.4268,5.4918,5.3308,5.5007,5.6736,5.6736,5.8026,5.9099,5.9099,5.9099,5.9099,5.9099,5.9099,5.9099,5.9099,5.9099,5.9099,5.9099,5.9099,5.9099,5.9099,5.8221,5.7664,5.7664,5.6849,5.6222,5.5822,5.6459,5.582,5.3932,5.2677,5.0794,4.8474,4.7652,4.6874,4.2132,4.1803,4.2192,4.3808,4.3,0.0,4.6741,4.6352,4.6202,0.0,0.0,5.102,0.0,0.0,0.0,0.0,0.0,0.0,0.0,0.0,0.0,0.0,0.0,0.0,6.1014,6.2121,6.2869,6.2869,6.2869,6.257,6.1912,6.0745,5.9333,5.7628,5.5667,5.379,5.2024,5.06,4.9783,4.9615,5.0142,5.0393,5.0318,5.0393,5.0393,5.0293,4.9816,4.959,4.959,4.959,4.959,4.959,4.959,4.959,4.959,4.959,4.959,4.959,4.959,4.959,4.959,4.959,4.959,4.959,4.959,4.959,4.959,4.959,4.959,4.959,4.959,5.079,5.1989,5.1989,5.3368,5.4623,5.4623,5.5849,5.6565,5.5152,5.6022,5.6962,5.6962,5.8136,5.9099,5.9099,5.9099,5.9099,5.9099,5.9099,5.9099,5.9099,5.9099,5.9099,5.9099,5.9099,5.9099,5.9099,5.9099,5.9099,5.9099,5.9099,5.9099,5.9099,5.8471,5.7812,5.7214,5.4983,5.2236,4.9072,4.8673,4.7802,4.4616,4.4526,4.4377,4.3648,4.4018,0.0,4.3698,4.4018,4.4885,0.0,4.6441,0.0,0.0,0.0,0.0,0.0,0.0,0.0,0.0,0.0,0.0,0.0,0.0,0.0,6.0296,6.1014,6.1493,6.1493,6.1493,6.1194,6.0505,6.0236,5.9125,5.6994,5.6509,5.489,5.2024,5.1678,5.0916,4.9615,5.0142,5.0193,4.9766,5.0218,5.0167,4.9741,4.964,4.959,4.959,4.959,4.959,4.959,4.959,4.959,4.959,4.959,4.959,4.959,4.959,4.959,4.959,4.959,4.959,4.959,4.959,4.959,4.959,4.959,4.959,4.959,4.959,5.079,5.1989,5.1989,5.4181,5.6251,5.6251,5.7496,5.858,5.8221,5.844,5.8634,5.8634,5.8882,5.9099,5.9099,5.9099,5.9099,5.9099,5.9099,5.9099,5.9099,5.9099,5.9099,5.9099,5.9099,5.9099,5.9099,5.9099,5.9099,5.9099,5.9099,5.9099,5.9099,5.8471,5.8052,5.7932,5.5216,5.3528,5.276,4.9864,4.8358,4.6172,4.6052,4.6052,4.5024,0.0,0.0,0.0,4.4556,4.4885,4.686,4.6501,4.6531,0.0,0.0,0.0,0.0,0.0,0.0,0.0,0.0,0.0,0.0,0.0,0.0,5.9608,6.0505,6.1104,6.1104,6.0805,6.0446,6.0116,5.9787,5.9101,5.7915,5.7131,5.5532,5.3248,5.2394,5.1205,4.959,4.9866,4.9866,4.9615,4.9891,4.9866,4.959,4.959,4.959,4.959,4.959,4.959,4.959,4.959,4.959,4.959,4.959,4.959,4.959,4.959,4.959,4.959,4.959,4.959,4.959,4.959,4.959,4.959,4.959,5.0181,5.079,5.079,5.2578,5.4359,5.4359,5.6194,5.7915,5.7915,5.8495,5.9099,5.9099,5.9099,5.9099,5.9099,5.9099,5.9099,5.9099,5.9099,5.9099,5.9099,5.9099,5.9099,5.9099,5.9099,5.9099,5.9099,5.9099,5.9099,5.9099,5.9099,5.9099,5.9099,5.9099,5.9099,5.9099,5.877,5.862,5.862,5.6852,5.545,5.4345,5.2519,5.1313,0.0,0.0,4.7848,0.0,0.0,4.6531,0.0,0.0,0.0,4.7997,0.0,0.0,0.0,0.0,0.0,0.0,0.0,0.0,0.0,0.0,0.0,0.0,0.0,0.0,0.0,5.9398,6.0086,6.0326,5.9727,5.9458,5.9697,5.9308,5.9099,5.9099,5.786,5.6451,5.4859,5.3248,5.1616,5.0078,4.9783,4.959,4.959,4.959,4.959,4.959,4.959,4.959,4.959,4.959,4.959,4.959,4.959,4.959,4.959,4.959,4.959,4.959,4.959,4.959,4.959,4.959,4.959,4.959,4.959,4.9847,5.0014,4.9719,5.0979,5.2394,5.2086,5.4359,5.6736,5.6736,5.7915,5.9099,5.9099,5.9099,5.9099,5.9099,5.9099,5.9099,5.9099,5.9099,5.9099,5.9099,5.9099,5.9099,5.9099,5.9099,5.9099,5.9099,5.9099,5.9099,5.9099,5.9099,5.9099,5.9099,5.9099,5.9099,5.9099,5.9099,5.9099,5.9099,5.9099,5.9099,5.9099,5.859,5.7345,5.5474,5.5086,5.4284,0.0,0.0,0.0,0.0,4.9314,0.0,0.0,0.0,4.6741,4.5903,0.0,0.0,0.0,0.0,0.0,0.0,0.0,0.0,0.0,0.0,0.0,0.0,0.0,0.0,0.0,5.6107,5.6346,5.7453,5.6974,5.7124,5.8291,5.883,5.9099,5.9099,5.8936,5.8026,5.6423,5.4918,5.3308,5.1741,5.0245,4.959,4.959,4.959,4.959,4.959,4.959,4.959,4.959,4.959,4.959,4.959,4.959,4.959,4.959,4.959,4.959,4.959,4.959,4.959,4.959,4.959,4.959,4.959,4.959,5.06,5.1455,5.0014,5.1767,5.379,5.2332,5.4359,5.6736,5.6736,5.7915,5.9099,5.9099,5.9099,5.9099,5.9099,5.9099,5.9099,5.9099,5.9099,5.9099,5.9099,5.9099,5.9099,5.9099,5.9099,5.9099,5.9099,5.9099,5.9099,5.9099,5.9099,5.9099,5.9099,5.9099,5.9099,5.9099,5.9099,5.9099,5.9099,5.9099,5.9099,5.9099,5.9039,5.8543,5.7696,5.5808,5.478,0.0,0.0,0.0,0.0,0.0,0.0,4.7578,0.0,4.68,0.0,0.0,0.0,0.0,0.0,0.0,0.0,0.0,0.0,0.0,0.0,0.0,0.0,0.0,0.0,0.0,0.0,0.0,0.0,5.5748,5.6166,5.7453,5.8171,5.871,5.9099,5.9099,5.8331,5.6736,5.6079,5.4976,5.3368,5.1741,5.0954,5.0979,5.0014,4.959,4.959,4.959,4.959,4.959,4.959,4.959,4.959,4.959,4.959,4.959,4.959,4.959,4.959,4.959,4.959,4.959,4.959,4.959,4.959,4.959,5.0078,5.0664,5.0916,5.2666,5.4446,5.4654,5.6423,5.8081,5.8081,5.8634,5.9099,5.9099,5.9099,5.9099,5.9099,5.9099,5.9099,5.9099,5.9099,5.9099,5.9099,5.9099,5.9099,5.9099,5.9099,5.9099,5.9099,5.9099,5.9099,5.9099,5.9099,5.9099,5.9099,5.9099,5.9099,5.9099,5.9099,5.9099,5.9099,5.9099,5.9099,5.9099,5.9099,5.8949,5.868,5.7759,5.734,5.1139,0.0,0.0,0.0,0.0,0.0,0.0,0.0,0.0,0.0,0.0,0.0,0.0,0.0,0.0,0.0,0.0,0.0,0.0,0.0,0.0,0.0,0.0,0.0,0.0,0.0,0.0,0.0,0.0,5.482,5.6496,5.7393,5.8141,5.88,5.9009,5.858,5.7384,5.6905,5.6137,5.5035,5.3429,5.2394,5.1989,5.079,5.0014,4.959,4.959,4.959,4.959,4.959,4.959,4.959,4.959,4.959,4.959,4.959,4.959,4.959,4.959,4.959,4.959,4.959,4.959,4.959,4.959,4.9886,5.0499,5.1678,5.3462,5.5269,5.6423,5.7915,5.9099,5.9099,5.9099,5.9099,5.9099,5.9099,5.9099,5.9099,5.9099,5.9099,5.9099,5.9099,5.9099,5.9099,5.9099,5.9099,5.9099,5.9099,5.9099,5.9099,5.9099,5.9099,5.9099,5.9099,5.9099,5.9099,5.9099,5.9099,5.9099,5.9099,5.9099,5.9099,5.9099,5.9099,5.9099,5.9099,5.9099,5.9099,5.9099,5.9099,0.0,0.0,0.0,4.9958,0.0,0.0,0.0,0.0,4.906,0.0,0.0,0.0,0.0,0.0,0.0,0.0,0.0,0.0,0.0,0.0,0.0,0.0,0.0,0.0,0.0,0.0,0.0,0.0,0.0,0.0,5.5119,5.6436,5.7453,5.8141,5.877,5.9099,5.9045,5.7496,5.6679,5.6622,5.5035,5.3489,5.1989,5.1989,5.1079,4.959,4.959,4.959,4.959,4.959,4.959,4.959,4.959,4.959,4.959,4.959,4.959,4.959,4.959,4.959,4.959,4.959,4.959,4.959,4.959,5.0664,5.1927,5.1989,5.424,5.6679,5.6679,5.7915,5.9099,5.9099,5.9099,5.9099,5.9099,5.9099,5.9099,5.9099,5.9099,5.9099,5.9099,5.9099,5.9099,5.9099,5.9099,5.9099,5.9099,5.9099,5.9099,5.9099,5.9099,5.9099,5.9099,5.9099,5.9099,5.9099,5.9099,5.9099,5.9099,5.9099,5.9099,5.9099,5.9099,5.9099,5.9099,5.9099,5.9099,5.9099,5.9099,5.9099,0.0,0.0,5.4571,5.1858,0.0,0.0,0.0,0.0,0.0,0.0,0.0,0.0,0.0,0.0,0.0,0.0,0.0,0.0,0.0,0.0,0.0,0.0,0.0,0.0,0.0,0.0,0.0,0.0,5.1109,0.0,0.0,5.5538,5.6765,5.7423,5.853,5.9099,5.9099,5.858,5.8276,5.8276,5.5618,5.4623,5.5007,5.1865,5.0727,5.1142,5.0078,4.959,4.959,4.959,4.959,4.959,4.959,4.959,4.959,4.959,4.959,4.959,4.959,4.959,4.959,4.959,4.959,4.959,4.959,5.0727,5.2209,5.3308,5.5066,5.6962,5.8026,5.8689,5.9099,5.9099,5.9099,5.9099,5.9099,5.9099,5.9099,5.9099,5.9099,5.9099,5.9099,5.9099,5.9099,5.9099,5.9099,5.9099,5.9099,5.9099,5.9099,5.9099,5.9099,5.9099,5.9099,5.9099,5.9099,5.9099,5.9099,5.9099,5.9099,5.9099,5.9099,5.9099,5.9099,5.9099,5.9099,5.9099,5.9099,5.9099,5.9099,5.9099,5.5598,5.5837,0.0,5.3473,5.2905,0.0,4.9883,0.0,0.0,0.0,0.0,0.0,0.0,0.0,0.0,0.0,0.0,0.0,0.0,4.5155,0.0,0.0,0.0,0.0,0.0,0.0,4.8686,4.9823,5.0062,0.0,0.0,0.0,5.5867,5.6735,5.8052,5.886,5.9099,5.9099,5.9099,5.9099,5.7047,5.628,5.6593,5.2944,5.158,5.1927,5.0308,4.959,4.959,4.959,4.959,4.959,4.959,4.959,4.959,4.959,4.959,4.959,4.959,4.959,4.959,4.959,4.959,4.959,4.959,5.0308,5.1616,5.379,5.5094,5.6423,5.8847,5.9458,5.9518,5.9757,5.9638,5.9458,5.9458,5.9279,5.9099,5.9099,5.9099,5.9189,5.9398,5.9458,5.9368,5.9129,5.9099,5.9099,5.9099,5.9099,5.9099,5.9099,5.9099,5.9099,5.9099,5.9099,5.9099,5.9099,5.9099,5.9099,5.9099,5.9099,5.9099,5.9099,5.9099,5.9099,5.9099,5.9099,5.9099,5.9099,5.9099,5.9099]}]]